GEFSCGP_prec_meanprecacc_066.txt.gz
Total_Precipitation_Accumulation
0.07 0.11 0.24 0.22 0.19 0.18 0.14 0.11 0.10 0.14 0.14 0.13 0.16 0.18 0.18 0.18 0.17 0.15 0.13 0.12 0.11 0.11 0.13 0.13 0.13 0.17 0.20 0.24 0.30 0.36 0.52 0.66 0.81 0.92 1.05 1.29 1.44 1.53 1.49 1.48 1.55 1.41 1.18 1.17
0.08 0.12 0.10 0.09 0.09 0.09 0.10 0.10 0.11 0.12 0.11 0.10 0.10 0.11 0.11 0.10 0.11 0.11 0.10 0.09 0.08 0.07 0.06 0.06 0.07 0.09 0.12 0.15 0.21 0.29 0.42 0.64 0.86 1.07 1.26 1.44 1.73 1.86 1.86 1.92 1.85 1.79 1.64 1.58
0.07 0.07 0.05 0.05 0.06 0.08 0.09 0.09 0.10 0.10 0.09 0.07 0.07 0.08 0.08 0.08 0.09 0.08 0.08 0.09 0.08 0.07 0.06 0.06 0.05 0.06 0.07 0.09 0.13 0.20 0.31 0.52 0.81 1.11 1.34 1.52 1.74 1.99 2.08 1.97 1.92 1.96 2.01 2.00
0.01 0.01 0.02 0.03 0.04 0.07 0.10 0.08 0.08 0.08 0.09 0.09 0.09 0.13 0.13 0.13 0.13 0.12 0.11 0.12 0.12 0.11 0.10 0.08 0.06 0.05 0.06 0.09 0.12 0.16 0.29 0.43 0.64 0.90 1.19 1.42 1.67 1.96 2.03 1.99 1.98 2.01 2.10 2.15
0.01 0.00 0.00 0.01 0.02 0.03 0.05 0.04 0.05 0.06 0.08 0.08 0.08 0.13 0.16 0.15 0.19 0.19 0.19 0.20 0.17 0.15 0.14 0.12 0.10 0.10 0.11 0.14 0.16 0.22 0.35 0.47 0.66 0.89 1.16 1.43 1.62 1.78 1.94 1.94 1.88 1.81 1.83 1.85
0.00 0.00 0.00 0.00 0.00 0.01 0.01 0.02 0.04 0.04 0.06 0.06 0.05 0.13 0.22 0.22 0.21 0.19 0.21 0.21 0.16 0.13 0.14 0.17 0.21 0.21 0.21 0.23 0.27 0.34 0.45 0.64 0.79 0.88 1.00 1.12 1.31 1.56 1.67 1.76 1.76 1.76 1.71 1.61
0.00 0.00 0.00 0.00 0.00 0.00 0.01 0.05 0.09 0.10 0.13 0.12 0.09 0.20 0.31 0.26 0.22 0.21 0.21 0.19 0.19 0.21 0.25 0.32 0.42 0.39 0.36 0.38 0.46 0.52 0.58 0.65 0.70 0.69 0.75 0.86 1.00 1.16 1.24 1.35 1.53 1.57 1.57 1.50
0.00 0.00 0.00 0.00 0.00 0.01 0.01 0.05 0.12 0.16 0.18 0.21 0.26 0.39 0.43 0.35 0.27 0.24 0.21 0.18 0.21 0.29 0.39 0.54 0.65 0.69 0.63 0.60 0.61 0.57 0.57 0.54 0.54 0.56 0.60 0.67 0.72 0.81 0.87 0.92 1.05 1.18 1.17 1.12
0.00 0.00 0.00 0.00 0.00 0.01 0.02 0.03 0.06 0.14 0.15 0.21 0.34 0.51 0.50 0.35 0.28 0.27 0.26 0.23 0.29 0.42 0.56 0.73 0.85 0.92 0.86 0.77 0.70 0.63 0.61 0.58 0.52 0.51 0.56 0.61 0.62 0.63 0.64 0.66 0.65 0.69 0.76 0.79
0.02 0.02 0.01 0.00 0.01 0.01 0.02 0.04 0.10 0.22 0.33 0.36 0.39 0.52 0.60 0.49 0.38 0.36 0.38 0.44 0.55 0.73 0.79 0.91 0.98 0.96 0.95 0.98 0.89 0.73 0.65 0.65 0.61 0.68 0.66 0.59 0.54 0.51 0.49 0.52 0.57 0.54 0.60 0.67
0.08 0.08 0.03 0.02 0.03 0.06 0.09 0.13 0.20 0.32 0.42 0.56 0.68 0.81 0.69 0.57 0.55 0.53 0.56 0.72 0.81 0.92 0.99 1.01 1.08 1.01 0.88 0.87 0.83 0.82 0.76 0.70 0.70 0.76 0.75 0.62 0.56 0.54 0.52 0.48 0.47 0.54 0.61 0.66
0.16 0.22 0.13 0.04 0.08 0.13 0.23 0.35 0.45 0.61 0.65 0.63 0.86 1.05 0.78 0.64 0.65 0.66 0.65 0.63 0.65 0.82 0.94 0.98 1.04 0.96 0.80 0.75 0.65 0.70 0.78 0.76 0.81 0.82 0.75 0.65 0.62 0.61 0.65 0.62 0.51 0.51 0.57 0.55
0.25 0.39 0.30 0.15 0.23 0.32 0.39 0.48 0.60 0.73 0.83 0.83 0.92 1.05 0.83 0.62 0.58 0.63 0.72 0.70 0.67 0.71 0.73 0.72 0.73 0.80 0.75 0.71 0.63 0.69 0.75 0.79 0.82 0.84 0.82 0.72 0.60 0.61 0.62 0.59 0.51 0.49 0.51 0.50
0.23 0.38 0.43 0.34 0.36 0.43 0.42 0.39 0.45 0.66 0.89 0.92 0.98 0.95 0.74 0.62 0.56 0.59 0.65 0.71 0.66 0.56 0.52 0.50 0.46 0.52 0.55 0.57 0.61 0.66 0.76 0.88 0.92 0.90 0.84 0.80 0.73 0.71 0.64 0.52 0.43 0.44 0.44 0.41
0.16 0.17 0.20 0.18 0.19 0.25 0.32 0.34 0.43 0.56 0.74 0.97 0.87 0.67 0.55 0.52 0.48 0.50 0.55 0.49 0.43 0.39 0.37 0.35 0.32 0.32 0.34 0.37 0.45 0.52 0.65 0.80 0.91 0.96 0.90 0.83 0.78 0.67 0.56 0.50 0.39 0.35 0.31 0.31
0.23 0.18 0.08 0.07 0.10 0.16 0.28 0.41 0.54 0.60 0.67 0.69 0.60 0.56 0.42 0.36 0.32 0.32 0.37 0.37 0.36 0.31 0.27 0.24 0.24 0.21 0.23 0.29 0.36 0.36 0.48 0.62 0.73 0.78 0.79 0.79 0.75 0.60 0.51 0.43 0.34 0.28 0.26 0.26
0.10 0.12 0.09 0.07 0.09 0.17 0.40 0.53 0.60 0.59 0.54 0.45 0.42 0.37 0.26 0.24 0.17 0.16 0.21 0.25 0.30 0.28 0.23 0.21 0.20 0.21 0.23 0.30 0.31 0.32 0.41 0.52 0.56 0.60 0.63 0.65 0.60 0.47 0.42 0.33 0.28 0.28 0.26 0.27
0.10 0.13 0.17 0.12 0.13 0.34 0.61 0.51 0.45 0.48 0.37 0.22 0.20 0.20 0.19 0.15 0.11 0.08 0.08 0.11 0.13 0.16 0.16 0.21 0.18 0.17 0.19 0.24 0.29 0.37 0.40 0.41 0.41 0.45 0.48 0.47 0.46 0.41 0.34 0.26 0.25 0.26 0.26 0.28
0.17 0.22 0.25 0.22 0.23 0.42 0.57 0.38 0.34 0.39 0.33 0.16 0.11 0.11 0.09 0.07 0.05 0.03 0.02 0.05 0.06 0.06 0.07 0.10 0.09 0.09 0.10 0.10 0.11 0.14 0.17 0.19 0.23 0.30 0.36 0.40 0.39 0.36 0.30 0.25 0.31 0.37 0.34 0.32
0.30 0.32 0.32 0.31 0.37 0.50 0.39 0.15 0.15 0.27 0.38 0.13 0.06 0.05 0.04 0.03 0.04 0.02 0.02 0.04 0.03 0.02 0.02 0.03 0.03 0.03 0.03 0.02 0.02 0.03 0.05 0.09 0.13 0.19 0.24 0.28 0.31 0.34 0.37 0.45 0.52 0.53 0.49 0.40
0.19 0.25 0.31 0.39 0.56 0.57 0.33 0.13 0.15 0.28 0.40 0.18 0.05 0.02 0.01 0.01 0.01 0.00 0.02 0.03 0.02 0.01 0.00 0.00 0.01 0.01 0.00 0.00 0.00 0.00 0.01 0.02 0.02 0.04 0.10 0.18 0.29 0.35 0.44 0.56 0.58 0.56 0.51 0.41
0.18 0.28 0.38 0.50 0.66 0.74 0.38 0.19 0.21 0.19 0.13 0.10 0.04 0.01 0.01 0.00 0.00 0.00 0.01 0.01 0.01 0.01 0.00 0.00 0.00 0.00 0.00 0.00 0.00 0.00 0.00 0.00 0.01 0.03 0.07 0.13 0.20 0.29 0.42 0.51 0.50 0.49 0.47 0.44
0.18 0.33 0.45 0.50 0.56 0.47 0.28 0.16 0.11 0.08 0.08 0.03 0.01 0.01 0.00 0.00 0.00 0.00 0.01 0.01 0.01 0.01 0.00 0.00 0.00 0.00 0.00 0.00 0.00 0.00 0.00 0.00 0.00 0.01 0.02 0.06 0.11 0.22 0.36 0.39 0.39 0.42 0.44 0.43
0.08 0.11 0.18 0.20 0.15 0.14 0.11 0.08 0.04 0.03 0.04 0.01 0.00 0.00 0.00 0.00 0.00 0.00 0.00 0.01 0.00 0.00 0.00 0.00 0.00 0.00 0.00 0.00 0.00 0.00 0.00 0.00 0.00 0.00 0.00 0.01 0.02 0.05 0.10 0.15 0.20 0.26 0.31 0.32
0.09 0.10 0.17 0.20 0.10 0.05 0.04 0.04 0.02 0.02 0.02 0.01 0.00 0.00 0.00 0.00 0.00 0.00 0.00 0.00 0.00 0.00 0.00 0.00 0.00 0.00 0.00 0.00 0.00 0.00 0.00 0.00 0.00 0.00 0.00 0.01 0.02 0.03 0.04 0.06 0.09 0.12 0.15 0.19
0.05 0.12 0.16 0.20 0.12 0.06 0.04 0.03 0.02 0.02 0.01 0.01 0.00 0.00 0.00 0.00 0.00 0.00 0.00 0.00 0.00 0.00 0.00 0.00 0.00 0.00 0.00 0.00 0.00 0.00 0.00 0.00 0.00 0.00 0.00 0.00 0.01 0.01 0.01 0.02 0.03 0.04 0.06 0.09

GEFSCGP_prec_meanprecacc_072.txt.gz
Total_Precipitation_Accumulation
0.07 0.11 0.24 0.23 0.20 0.18 0.14 0.11 0.12 0.16 0.14 0.13 0.16 0.18 0.18 0.19 0.18 0.16 0.14 0.13 0.12 0.11 0.14 0.13 0.13 0.17 0.20 0.25 0.30 0.37 0.53 0.68 0.83 0.95 1.08 1.34 1.50 1.59 1.55 1.55 1.62 1.50 1.29 1.33
0.08 0.12 0.10 0.09 0.09 0.09 0.10 0.10 0.11 0.13 0.11 0.10 0.10 0.12 0.11 0.11 0.13 0.12 0.12 0.11 0.10 0.08 0.07 0.06 0.07 0.09 0.12 0.15 0.22 0.29 0.43 0.66 0.88 1.10 1.29 1.48 1.78 1.92 1.91 1.98 1.91 1.86 1.73 1.70
0.07 0.07 0.05 0.05 0.06 0.08 0.09 0.10 0.10 0.10 0.09 0.07 0.07 0.09 0.09 0.09 0.10 0.09 0.09 0.10 0.09 0.07 0.07 0.06 0.05 0.06 0.07 0.09 0.14 0.21 0.33 0.55 0.85 1.16 1.40 1.58 1.80 2.05 2.13 2.02 1.97 2.02 2.08 2.09
0.01 0.01 0.02 0.03 0.04 0.07 0.10 0.08 0.08 0.08 0.10 0.10 0.10 0.15 0.14 0.14 0.14 0.13 0.12 0.13 0.12 0.11 0.10 0.08 0.06 0.06 0.07 0.10 0.13 0.17 0.31 0.46 0.69 0.96 1.27 1.49 1.74 2.03 2.10 2.05 2.02 2.05 2.15 2.22
0.01 0.00 0.00 0.01 0.02 0.03 0.05 0.04 0.05 0.06 0.08 0.09 0.09 0.15 0.17 0.16 0.19 0.19 0.20 0.20 0.18 0.15 0.15 0.12 0.10 0.10 0.12 0.14 0.18 0.24 0.37 0.50 0.71 0.95 1.26 1.53 1.71 1.86 2.02 2.03 1.95 1.86 1.88 1.90
0.00 0.00 0.00 0.00 0.00 0.01 0.01 0.02 0.04 0.04 0.06 0.06 0.05 0.13 0.23 0.22 0.22 0.19 0.22 0.22 0.17 0.14 0.14 0.17 0.21 0.22 0.22 0.24 0.29 0.37 0.48 0.68 0.83 0.94 1.08 1.20 1.39 1.65 1.76 1.85 1.88 1.86 1.80 1.68
0.00 0.00 0.00 0.00 0.00 0.00 0.01 0.05 0.09 0.10 0.13 0.12 0.10 0.20 0.31 0.27 0.22 0.21 0.22 0.20 0.19 0.21 0.25 0.33 0.43 0.40 0.37 0.40 0.49 0.55 0.61 0.70 0.76 0.75 0.82 0.92 1.06 1.23 1.33 1.46 1.64 1.67 1.67 1.59
0.00 0.00 0.00 0.00 0.00 0.01 0.01 0.05 0.12 0.16 0.18 0.21 0.26 0.40 0.44 0.35 0.28 0.24 0.21 0.19 0.21 0.29 0.39 0.54 0.65 0.70 0.64 0.62 0.64 0.60 0.61 0.58 0.59 0.62 0.68 0.73 0.78 0.87 0.96 1.02 1.16 1.28 1.26 1.21
0.00 0.00 0.00 0.00 0.00 0.01 0.02 0.03 0.06 0.14 0.15 0.21 0.34 0.51 0.51 0.35 0.29 0.27 0.26 0.23 0.29 0.42 0.57 0.73 0.86 0.93 0.87 0.78 0.72 0.67 0.67 0.63 0.57 0.58 0.64 0.68 0.71 0.73 0.72 0.74 0.73 0.79 0.86 0.88
0.02 0.02 0.01 0.00 0.01 0.01 0.02 0.04 0.10 0.22 0.33 0.36 0.39 0.52 0.60 0.49 0.38 0.36 0.38 0.44 0.55 0.73 0.80 0.91 0.98 0.97 0.96 0.99 0.93 0.76 0.70 0.70 0.65 0.72 0.72 0.67 0.64 0.62 0.57 0.59 0.64 0.64 0.71 0.79
0.08 0.08 0.03 0.02 0.03 0.06 0.09 0.13 0.20 0.32 0.42 0.56 0.68 0.82 0.69 0.57 0.56 0.54 0.56 0.72 0.82 0.92 1.00 1.02 1.08 1.01 0.89 0.89 0.87 0.84 0.79 0.73 0.74 0.79 0.78 0.67 0.63 0.62 0.59 0.54 0.55 0.61 0.70 0.76
0.16 0.22 0.13 0.04 0.08 0.13 0.23 0.35 0.45 0.61 0.65 0.63 0.86 1.06 0.78 0.64 0.65 0.66 0.65 0.63 0.65 0.83 0.94 0.98 1.04 0.97 0.81 0.77 0.68 0.71 0.79 0.79 0.85 0.85 0.77 0.68 0.66 0.68 0.72 0.69 0.61 0.58 0.65 0.65
0.25 0.39 0.30 0.15 0.23 0.32 0.39 0.48 0.60 0.73 0.83 0.83 0.92 1.05 0.83 0.62 0.58 0.63 0.72 0.70 0.67 0.71 0.73 0.72 0.73 0.80 0.76 0.72 0.64 0.70 0.76 0.81 0.85 0.86 0.84 0.74 0.63 0.64 0.67 0.66 0.58 0.54 0.56 0.57
0.23 0.38 0.43 0.34 0.36 0.43 0.42 0.39 0.45 0.66 0.89 0.92 0.98 0.95 0.74 0.62 0.56 0.59 0.65 0.71 0.66 0.56 0.52 0.50 0.46 0.52 0.55 0.57 0.62 0.66 0.77 0.89 0.93 0.91 0.84 0.81 0.74 0.73 0.67 0.54 0.48 0.49 0.49 0.48
0.16 0.17 0.20 0.18 0.19 0.25 0.32 0.34 0.43 0.56 0.74 0.97 0.87 0.67 0.55 0.52 0.48 0.50 0.55 0.49 0.43 0.39 0.37 0.35 0.32 0.32 0.34 0.37 0.45 0.52 0.65 0.81 0.93 0.97 0.92 0.85 0.79 0.68 0.59 0.52 0.43 0.40 0.37 0.36
0.23 0.18 0.08 0.07 0.10 0.16 0.28 0.41 0.54 0.60 0.67 0.69 0.60 0.56 0.42 0.36 0.32 0.32 0.37 0.37 0.36 0.31 0.27 0.24 0.24 0.21 0.23 0.29 0.36 0.36 0.48 0.63 0.74 0.79 0.80 0.81 0.77 0.61 0.53 0.45 0.37 0.32 0.31 0.30
0.10 0.12 0.09 0.07 0.09 0.17 0.40 0.53 0.60 0.59 0.54 0.45 0.42 0.37 0.26 0.24 0.17 0.16 0.21 0.25 0.30 0.28 0.23 0.21 0.20 0.21 0.23 0.30 0.31 0.32 0.41 0.52 0.57 0.61 0.64 0.66 0.61 0.48 0.43 0.33 0.29 0.29 0.29 0.30
0.10 0.13 0.17 0.12 0.13 0.34 0.61 0.51 0.45 0.48 0.37 0.22 0.20 0.20 0.19 0.15 0.11 0.08 0.08 0.11 0.13 0.16 0.16 0.21 0.18 0.17 0.19 0.24 0.29 0.37 0.40 0.41 0.41 0.45 0.49 0.47 0.47 0.42 0.35 0.27 0.26 0.27 0.28 0.31
0.17 0.22 0.25 0.22 0.23 0.42 0.57 0.38 0.34 0.39 0.33 0.16 0.11 0.11 0.09 0.07 0.05 0.03 0.02 0.05 0.06 0.06 0.07 0.10 0.09 0.09 0.10 0.10 0.11 0.14 0.17 0.19 0.23 0.30 0.36 0.40 0.40 0.36 0.31 0.26 0.32 0.38 0.36 0.34
0.30 0.32 0.32 0.31 0.37 0.50 0.39 0.15 0.15 0.27 0.38 0.13 0.06 0.05 0.04 0.03 0.04 0.02 0.02 0.04 0.03 0.02 0.02 0.03 0.03 0.03 0.03 0.02 0.02 0.03 0.05 0.09 0.13 0.19 0.24 0.28 0.31 0.34 0.38 0.46 0.53 0.54 0.50 0.41
0.19 0.25 0.31 0.39 0.56 0.57 0.33 0.13 0.15 0.28 0.40 0.18 0.05 0.02 0.01 0.01 0.01 0.00 0.02 0.03 0.02 0.01 0.00 0.00 0.01 0.01 0.00 0.00 0.00 0.00 0.01 0.02 0.02 0.04 0.10 0.18 0.29 0.35 0.44 0.56 0.58 0.57 0.51 0.42
0.18 0.28 0.38 0.50 0.66 0.74 0.38 0.19 0.21 0.19 0.13 0.10 0.04 0.01 0.01 0.00 0.00 0.00 0.01 0.01 0.01 0.01 0.00 0.00 0.00 0.00 0.00 0.00 0.00 0.00 0.00 0.00 0.01 0.03 0.07 0.13 0.20 0.29 0.42 0.51 0.50 0.49 0.48 0.45
0.18 0.33 0.45 0.50 0.56 0.47 0.28 0.16 0.11 0.08 0.08 0.03 0.01 0.01 0.00 0.00 0.00 0.00 0.01 0.01 0.01 0.01 0.00 0.00 0.00 0.00 0.00 0.00 0.00 0.00 0.00 0.00 0.00 0.01 0.02 0.06 0.11 0.22 0.36 0.39 0.39 0.42 0.45 0.44
0.08 0.11 0.18 0.20 0.15 0.14 0.11 0.08 0.04 0.03 0.04 0.01 0.00 0.00 0.00 0.00 0.00 0.00 0.00 0.01 0.00 0.00 0.00 0.00 0.00 0.00 0.00 0.00 0.00 0.00 0.00 0.00 0.00 0.00 0.00 0.01 0.02 0.05 0.10 0.15 0.20 0.26 0.31 0.32
0.09 0.10 0.17 0.20 0.10 0.05 0.04 0.04 0.02 0.02 0.02 0.01 0.00 0.00 0.00 0.00 0.00 0.00 0.00 0.00 0.00 0.00 0.00 0.00 0.00 0.00 0.00 0.00 0.00 0.00 0.00 0.00 0.00 0.00 0.00 0.01 0.02 0.03 0.04 0.06 0.09 0.12 0.15 0.19
0.05 0.12 0.16 0.20 0.12 0.06 0.04 0.03 0.02 0.02 0.01 0.01 0.00 0.00 0.00 0.00 0.00 0.00 0.00 0.00 0.00 0.00 0.00 0.00 0.00 0.00 0.00 0.00 0.00 0.00 0.00 0.00 0.00 0.00 0.00 0.00 0.01 0.01 0.01 0.02 0.03 0.04 0.06 0.09

GEFSCGP_prec_meanprecacc_078.txt.gz
Total_Precipitation_Accumulation
0.07 0.12 0.25 0.24 0.21 0.20 0.16 0.12 0.13 0.18 0.16 0.15 0.17 0.19 0.19 0.19 0.18 0.16 0.15 0.14 0.12 0.11 0.14 0.13 0.13 0.17 0.20 0.25 0.30 0.37 0.53 0.68 0.83 0.95 1.10 1.35 1.51 1.60 1.58 1.58 1.66 1.56 1.36 1.41
0.09 0.12 0.11 0.09 0.09 0.10 0.10 0.11 0.12 0.13 0.12 0.11 0.11 0.12 0.12 0.12 0.13 0.13 0.12 0.12 0.10 0.08 0.07 0.06 0.07 0.09 0.12 0.15 0.22 0.29 0.44 0.66 0.89 1.10 1.30 1.49 1.80 1.94 1.93 1.99 1.94 1.89 1.77 1.76
0.08 0.08 0.05 0.05 0.06 0.08 0.09 0.10 0.10 0.10 0.10 0.08 0.08 0.09 0.09 0.09 0.10 0.10 0.09 0.10 0.09 0.07 0.07 0.06 0.05 0.06 0.07 0.09 0.14 0.21 0.34 0.55 0.85 1.16 1.41 1.59 1.82 2.07 2.16 2.06 2.01 2.05 2.12 2.15
0.02 0.01 0.02 0.03 0.04 0.07 0.10 0.09 0.08 0.08 0.10 0.10 0.10 0.15 0.15 0.14 0.14 0.13 0.12 0.13 0.12 0.11 0.10 0.08 0.06 0.06 0.07 0.10 0.13 0.17 0.31 0.47 0.70 0.97 1.28 1.52 1.77 2.06 2.13 2.09 2.06 2.10 2.21 2.27
0.01 0.00 0.01 0.01 0.02 0.03 0.05 0.04 0.05 0.06 0.09 0.09 0.09 0.16 0.17 0.16 0.19 0.20 0.20 0.21 0.18 0.15 0.15 0.12 0.10 0.10 0.12 0.14 0.18 0.24 0.38 0.51 0.72 0.96 1.27 1.56 1.75 1.89 2.05 2.06 1.98 1.91 1.93 1.95
0.00 0.00 0.00 0.00 0.00 0.01 0.01 0.02 0.04 0.04 0.06 0.06 0.05 0.14 0.23 0.23 0.22 0.20 0.22 0.22 0.17 0.14 0.14 0.17 0.21 0.22 0.22 0.24 0.30 0.37 0.49 0.69 0.85 0.95 1.09 1.22 1.43 1.69 1.80 1.89 1.91 1.90 1.85 1.73
0.00 0.00 0.00 0.00 0.00 0.00 0.01 0.05 0.09 0.10 0.13 0.12 0.10 0.20 0.31 0.27 0.22 0.21 0.22 0.20 0.19 0.21 0.25 0.33 0.43 0.40 0.37 0.40 0.49 0.56 0.62 0.71 0.77 0.77 0.84 0.94 1.10 1.30 1.43 1.52 1.69 1.71 1.72 1.64
0.00 0.00 0.00 0.00 0.00 0.01 0.01 0.05 0.12 0.16 0.18 0.21 0.26 0.40 0.44 0.35 0.28 0.24 0.21 0.19 0.21 0.29 0.39 0.54 0.65 0.70 0.64 0.62 0.64 0.61 0.61 0.59 0.60 0.65 0.71 0.77 0.82 0.94 1.04 1.11 1.26 1.36 1.34 1.29
0.00 0.00 0.00 0.00 0.00 0.01 0.02 0.03 0.06 0.14 0.15 0.21 0.34 0.51 0.51 0.35 0.29 0.27 0.26 0.23 0.29 0.42 0.57 0.73 0.86 0.93 0.87 0.78 0.72 0.68 0.67 0.64 0.58 0.60 0.67 0.72 0.75 0.76 0.77 0.81 0.81 0.87 0.94 0.96
0.02 0.02 0.01 0.00 0.01 0.01 0.02 0.04 0.10 0.22 0.33 0.36 0.39 0.52 0.60 0.49 0.38 0.36 0.38 0.44 0.55 0.73 0.80 0.91 0.98 0.97 0.96 1.00 0.93 0.77 0.71 0.71 0.65 0.73 0.74 0.70 0.68 0.65 0.62 0.63 0.68 0.67 0.76 0.86
0.08 0.08 0.03 0.02 0.03 0.06 0.09 0.13 0.20 0.32 0.42 0.56 0.68 0.82 0.69 0.57 0.56 0.54 0.56 0.72 0.82 0.92 1.00 1.02 1.08 1.01 0.89 0.89 0.87 0.84 0.79 0.73 0.74 0.79 0.79 0.69 0.66 0.65 0.63 0.58 0.59 0.64 0.73 0.83
0.16 0.22 0.13 0.04 0.08 0.13 0.23 0.35 0.45 0.61 0.65 0.63 0.86 1.06 0.78 0.64 0.65 0.66 0.65 0.63 0.65 0.83 0.94 0.98 1.04 0.97 0.81 0.77 0.68 0.71 0.79 0.79 0.85 0.85 0.78 0.69 0.69 0.71 0.75 0.72 0.64 0.62 0.68 0.70
0.25 0.39 0.30 0.15 0.23 0.32 0.39 0.48 0.60 0.73 0.83 0.83 0.92 1.05 0.83 0.62 0.58 0.63 0.72 0.70 0.67 0.71 0.73 0.72 0.73 0.80 0.76 0.72 0.64 0.70 0.76 0.81 0.85 0.86 0.84 0.75 0.64 0.67 0.70 0.69 0.61 0.58 0.62 0.65
0.23 0.38 0.43 0.34 0.36 0.43 0.42 0.39 0.45 0.66 0.89 0.92 0.98 0.95 0.74 0.62 0.56 0.59 0.65 0.71 0.66 0.56 0.52 0.50 0.46 0.52 0.55 0.57 0.62 0.66 0.77 0.89 0.93 0.91 0.84 0.81 0.74 0.75 0.69 0.57 0.52 0.53 0.55 0.52
0.16 0.17 0.20 0.18 0.19 0.25 0.32 0.34 0.43 0.56 0.74 0.97 0.87 0.67 0.55 0.52 0.48 0.50 0.55 0.49 0.43 0.39 0.37 0.35 0.32 0.32 0.34 0.37 0.45 0.52 0.65 0.81 0.93 0.97 0.92 0.85 0.79 0.68 0.59 0.54 0.45 0.43 0.40 0.39
0.23 0.18 0.08 0.07 0.10 0.16 0.28 0.41 0.54 0.60 0.67 0.69 0.60 0.56 0.42 0.36 0.32 0.32 0.37 0.37 0.36 0.31 0.27 0.24 0.24 0.21 0.23 0.29 0.36 0.36 0.48 0.63 0.74 0.79 0.80 0.81 0.77 0.61 0.53 0.45 0.38 0.34 0.33 0.33
0.10 0.12 0.09 0.07 0.09 0.17 0.40 0.53 0.60 0.59 0.54 0.45 0.42 0.37 0.26 0.24 0.17 0.16 0.21 0.25 0.30 0.28 0.23 0.21 0.20 0.21 0.23 0.30 0.31 0.32 0.41 0.52 0.57 0.61 0.64 0.66 0.61 0.48 0.43 0.34 0.29 0.30 0.30 0.32
0.10 0.13 0.17 0.12 0.13 0.34 0.61 0.51 0.45 0.48 0.37 0.22 0.20 0.20 0.19 0.15 0.11 0.08 0.08 0.11 0.13 0.16 0.16 0.21 0.18 0.17 0.19 0.24 0.29 0.37 0.40 0.41 0.41 0.45 0.49 0.47 0.47 0.42 0.35 0.27 0.27 0.28 0.29 0.33
0.17 0.22 0.25 0.22 0.23 0.42 0.57 0.38 0.34 0.39 0.33 0.16 0.11 0.11 0.09 0.07 0.05 0.03 0.02 0.05 0.06 0.06 0.07 0.10 0.09 0.09 0.10 0.10 0.11 0.14 0.17 0.19 0.23 0.30 0.36 0.40 0.40 0.36 0.31 0.26 0.32 0.38 0.36 0.35
0.30 0.32 0.32 0.31 0.37 0.50 0.39 0.15 0.15 0.27 0.38 0.13 0.06 0.05 0.04 0.03 0.04 0.02 0.02 0.04 0.03 0.02 0.02 0.03 0.03 0.03 0.03 0.02 0.02 0.03 0.05 0.09 0.13 0.19 0.24 0.28 0.31 0.34 0.38 0.46 0.54 0.55 0.50 0.42
0.19 0.25 0.31 0.39 0.56 0.57 0.33 0.13 0.15 0.28 0.40 0.18 0.05 0.02 0.01 0.01 0.01 0.00 0.02 0.03 0.02 0.01 0.00 0.00 0.01 0.01 0.00 0.00 0.00 0.00 0.01 0.02 0.02 0.04 0.10 0.18 0.29 0.35 0.44 0.56 0.59 0.57 0.52 0.42
0.18 0.28 0.38 0.50 0.66 0.74 0.38 0.19 0.21 0.19 0.13 0.10 0.04 0.01 0.01 0.00 0.00 0.00 0.01 0.01 0.01 0.01 0.00 0.00 0.00 0.00 0.00 0.00 0.00 0.00 0.00 0.00 0.01 0.03 0.07 0.13 0.20 0.29 0.42 0.51 0.50 0.50 0.48 0.45
0.18 0.33 0.45 0.50 0.56 0.47 0.28 0.16 0.11 0.08 0.08 0.03 0.01 0.01 0.00 0.00 0.00 0.00 0.01 0.01 0.01 0.01 0.00 0.00 0.00 0.00 0.00 0.00 0.00 0.00 0.00 0.00 0.00 0.01 0.02 0.06 0.11 0.22 0.36 0.39 0.39 0.42 0.45 0.44
0.08 0.11 0.18 0.20 0.15 0.14 0.11 0.08 0.04 0.03 0.04 0.01 0.00 0.00 0.00 0.00 0.00 0.00 0.00 0.01 0.00 0.00 0.00 0.00 0.00 0.00 0.00 0.00 0.00 0.00 0.00 0.00 0.00 0.00 0.00 0.01 0.02 0.05 0.10 0.15 0.20 0.26 0.31 0.33
0.09 0.10 0.17 0.20 0.10 0.05 0.04 0.04 0.02 0.02 0.02 0.01 0.00 0.00 0.00 0.00 0.00 0.00 0.00 0.00 0.00 0.00 0.00 0.00 0.00 0.00 0.00 0.00 0.00 0.00 0.00 0.00 0.00 0.00 0.00 0.01 0.02 0.03 0.04 0.06 0.09 0.12 0.15 0.19
0.05 0.12 0.16 0.20 0.12 0.06 0.04 0.03 0.02 0.02 0.01 0.01 0.00 0.00 0.00 0.00 0.00 0.00 0.00 0.00 0.00 0.00 0.00 0.00 0.00 0.00 0.00 0.00 0.00 0.00 0.00 0.00 0.00 0.00 0.00 0.00 0.01 0.01 0.01 0.02 0.03 0.04 0.06 0.09

GEFSCGP_prec_meanprecacc_084.txt.gz
Total_Precipitation_Accumulation
0.08 0.12 0.25 0.24 0.22 0.21 0.16 0.13 0.14 0.18 0.16 0.16 0.18 0.19 0.19 0.19 0.19 0.16 0.15 0.14 0.12 0.12 0.14 0.14 0.13 0.17 0.20 0.25 0.30 0.37 0.53 0.68 0.83 0.96 1.10 1.35 1.52 1.61 1.58 1.59 1.67 1.57 1.37 1.43
0.10 0.13 0.11 0.10 0.10 0.10 0.11 0.11 0.12 0.13 0.12 0.11 0.11 0.12 0.12 0.12 0.13 0.13 0.12 0.12 0.10 0.08 0.07 0.06 0.07 0.09 0.12 0.15 0.22 0.29 0.44 0.66 0.89 1.11 1.30 1.50 1.80 1.94 1.94 2.00 1.95 1.90 1.77 1.77
0.08 0.08 0.06 0.06 0.06 0.09 0.09 0.10 0.10 0.10 0.10 0.08 0.08 0.09 0.09 0.10 0.10 0.10 0.09 0.10 0.09 0.07 0.07 0.06 0.05 0.06 0.07 0.09 0.14 0.21 0.34 0.55 0.86 1.16 1.41 1.60 1.83 2.08 2.17 2.07 2.02 2.06 2.14 2.16
0.03 0.02 0.02 0.03 0.04 0.07 0.10 0.09 0.08 0.08 0.10 0.10 0.10 0.15 0.15 0.14 0.14 0.13 0.12 0.13 0.12 0.11 0.10 0.08 0.06 0.06 0.07 0.10 0.13 0.17 0.31 0.47 0.70 0.98 1.29 1.52 1.78 2.07 2.14 2.12 2.09 2.12 2.23 2.30
0.01 0.01 0.01 0.01 0.02 0.03 0.05 0.04 0.05 0.06 0.09 0.09 0.09 0.16 0.17 0.16 0.19 0.20 0.20 0.21 0.18 0.15 0.15 0.12 0.10 0.10 0.12 0.15 0.18 0.24 0.38 0.52 0.72 0.97 1.28 1.57 1.76 1.91 2.07 2.08 2.00 1.93 1.96 1.98
0.00 0.00 0.00 0.00 0.00 0.01 0.01 0.02 0.04 0.04 0.06 0.06 0.05 0.14 0.23 0.23 0.22 0.20 0.22 0.22 0.17 0.14 0.14 0.17 0.21 0.22 0.22 0.24 0.30 0.37 0.49 0.70 0.86 0.96 1.10 1.23 1.44 1.71 1.82 1.91 1.94 1.92 1.87 1.75
0.00 0.00 0.00 0.00 0.00 0.00 0.01 0.05 0.09 0.10 0.13 0.12 0.10 0.20 0.31 0.27 0.22 0.21 0.22 0.20 0.19 0.21 0.25 0.33 0.43 0.40 0.37 0.40 0.49 0.56 0.62 0.72 0.77 0.77 0.85 0.96 1.11 1.32 1.45 1.55 1.71 1.74 1.74 1.66
0.00 0.00 0.00 0.00 0.00 0.01 0.01 0.05 0.12 0.16 0.18 0.21 0.26 0.40 0.44 0.35 0.28 0.24 0.21 0.19 0.21 0.29 0.39 0.54 0.65 0.70 0.64 0.62 0.64 0.61 0.62 0.60 0.61 0.65 0.72 0.78 0.84 0.96 1.06 1.15 1.30 1.40 1.39 1.33
0.00 0.00 0.00 0.00 0.00 0.01 0.02 0.03 0.06 0.14 0.15 0.21 0.34 0.51 0.51 0.35 0.29 0.27 0.26 0.23 0.29 0.42 0.57 0.73 0.86 0.93 0.87 0.78 0.72 0.68 0.68 0.65 0.58 0.60 0.67 0.73 0.76 0.77 0.79 0.83 0.83 0.91 1.00 1.01
0.02 0.02 0.01 0.00 0.01 0.01 0.02 0.04 0.10 0.22 0.33 0.36 0.39 0.52 0.60 0.49 0.38 0.36 0.38 0.44 0.55 0.73 0.80 0.91 0.98 0.97 0.96 1.00 0.93 0.77 0.71 0.71 0.66 0.73 0.74 0.71 0.68 0.66 0.64 0.66 0.70 0.70 0.79 0.90
0.08 0.08 0.03 0.02 0.03 0.06 0.09 0.13 0.20 0.32 0.42 0.56 0.68 0.82 0.69 0.57 0.56 0.54 0.56 0.72 0.82 0.92 1.00 1.02 1.08 1.01 0.89 0.89 0.87 0.84 0.79 0.73 0.74 0.79 0.79 0.69 0.66 0.66 0.64 0.60 0.61 0.66 0.75 0.86
0.16 0.22 0.13 0.04 0.08 0.13 0.23 0.35 0.45 0.61 0.65 0.63 0.86 1.06 0.78 0.64 0.65 0.66 0.65 0.63 0.65 0.83 0.94 0.98 1.04 0.97 0.81 0.77 0.68 0.71 0.79 0.79 0.85 0.85 0.78 0.70 0.70 0.72 0.76 0.73 0.65 0.64 0.70 0.71
0.25 0.39 0.30 0.15 0.23 0.32 0.39 0.48 0.60 0.73 0.83 0.83 0.92 1.05 0.83 0.62 0.58 0.63 0.72 0.70 0.67 0.71 0.73 0.72 0.73 0.80 0.76 0.72 0.64 0.70 0.76 0.81 0.85 0.86 0.84 0.75 0.65 0.68 0.71 0.71 0.63 0.61 0.63 0.67
0.23 0.38 0.43 0.34 0.36 0.43 0.42 0.39 0.45 0.66 0.89 0.92 0.98 0.95 0.74 0.62 0.56 0.59 0.65 0.71 0.66 0.56 0.52 0.50 0.46 0.52 0.55 0.57 0.62 0.66 0.77 0.89 0.93 0.91 0.84 0.81 0.74 0.75 0.70 0.59 0.54 0.56 0.57 0.54
0.16 0.17 0.20 0.18 0.19 0.25 0.32 0.34 0.43 0.56 0.74 0.97 0.87 0.67 0.55 0.52 0.48 0.50 0.55 0.49 0.43 0.39 0.37 0.35 0.32 0.32 0.34 0.37 0.45 0.52 0.65 0.81 0.93 0.97 0.92 0.85 0.79 0.68 0.60 0.55 0.46 0.46 0.43 0.41
0.23 0.18 0.08 0.07 0.10 0.16 0.28 0.41 0.54 0.60 0.67 0.69 0.60 0.56 0.42 0.36 0.32 0.32 0.37 0.37 0.36 0.31 0.27 0.24 0.24 0.21 0.23 0.29 0.36 0.36 0.48 0.63 0.74 0.79 0.80 0.81 0.77 0.61 0.53 0.46 0.39 0.36 0.36 0.36
0.10 0.12 0.09 0.07 0.09 0.17 0.40 0.53 0.60 0.59 0.54 0.45 0.42 0.37 0.26 0.24 0.17 0.16 0.21 0.25 0.30 0.28 0.23 0.21 0.20 0.21 0.23 0.30 0.31 0.32 0.41 0.52 0.57 0.61 0.64 0.66 0.61 0.48 0.43 0.34 0.30 0.32 0.32 0.34
0.10 0.13 0.17 0.12 0.13 0.34 0.61 0.51 0.45 0.48 0.37 0.22 0.20 0.20 0.19 0.15 0.11 0.08 0.08 0.11 0.13 0.16 0.16 0.21 0.18 0.17 0.19 0.24 0.29 0.37 0.40 0.41 0.41 0.45 0.49 0.47 0.47 0.42 0.35 0.27 0.27 0.28 0.30 0.34
0.17 0.22 0.25 0.22 0.23 0.42 0.57 0.38 0.34 0.39 0.33 0.16 0.11 0.11 0.09 0.07 0.05 0.03 0.02 0.05 0.06 0.06 0.07 0.10 0.09 0.09 0.10 0.10 0.11 0.14 0.17 0.19 0.23 0.30 0.36 0.40 0.40 0.37 0.31 0.26 0.33 0.39 0.37 0.36
0.30 0.32 0.32 0.31 0.37 0.50 0.39 0.15 0.15 0.27 0.38 0.13 0.06 0.05 0.04 0.03 0.04 0.02 0.02 0.04 0.03 0.02 0.02 0.03 0.03 0.03 0.03 0.02 0.02 0.03 0.05 0.09 0.13 0.19 0.24 0.28 0.31 0.34 0.38 0.46 0.54 0.55 0.51 0.42
0.19 0.25 0.31 0.39 0.56 0.57 0.33 0.13 0.15 0.28 0.40 0.18 0.05 0.02 0.01 0.01 0.01 0.00 0.02 0.03 0.02 0.01 0.00 0.00 0.01 0.01 0.00 0.00 0.00 0.00 0.01 0.02 0.02 0.04 0.10 0.18 0.29 0.35 0.44 0.56 0.59 0.57 0.52 0.42
0.18 0.28 0.38 0.50 0.66 0.74 0.38 0.19 0.21 0.19 0.13 0.10 0.04 0.01 0.01 0.00 0.00 0.00 0.01 0.01 0.01 0.01 0.00 0.00 0.00 0.00 0.00 0.00 0.00 0.00 0.00 0.00 0.01 0.03 0.07 0.13 0.20 0.29 0.42 0.51 0.50 0.50 0.48 0.45
0.18 0.33 0.45 0.50 0.56 0.47 0.28 0.16 0.11 0.08 0.08 0.03 0.01 0.01 0.00 0.00 0.00 0.00 0.01 0.01 0.01 0.01 0.00 0.00 0.00 0.00 0.00 0.00 0.00 0.00 0.00 0.00 0.00 0.01 0.02 0.06 0.11 0.22 0.36 0.39 0.39 0.42 0.45 0.44
0.08 0.11 0.18 0.20 0.15 0.14 0.11 0.08 0.04 0.03 0.04 0.01 0.00 0.00 0.00 0.00 0.00 0.00 0.00 0.01 0.00 0.00 0.00 0.00 0.00 0.00 0.00 0.00 0.00 0.00 0.00 0.00 0.00 0.00 0.00 0.01 0.02 0.05 0.10 0.15 0.20 0.26 0.31 0.33
0.09 0.10 0.17 0.20 0.10 0.05 0.04 0.04 0.02 0.02 0.02 0.01 0.00 0.00 0.00 0.00 0.00 0.00 0.00 0.00 0.00 0.00 0.00 0.00 0.00 0.00 0.00 0.00 0.00 0.00 0.00 0.00 0.00 0.00 0.00 0.01 0.02 0.03 0.04 0.06 0.09 0.12 0.15 0.19
0.05 0.12 0.16 0.20 0.12 0.06 0.04 0.03 0.02 0.02 0.01 0.01 0.00 0.00 0.00 0.00 0.00 0.00 0.00 0.00 0.00 0.00 0.00 0.00 0.00 0.00 0.00 0.00 0.00 0.00 0.00 0.00 0.00 0.00 0.00 0.00 0.01 0.01 0.01 0.02 0.03 0.04 0.06 0.09

GEFSCGP_prec_meanprecacc_090.txt.gz
Total_Precipitation_Accumulation
0.09 0.13 0.26 0.25 0.22 0.21 0.16 0.13 0.14 0.19 0.17 0.16 0.19 0.20 0.19 0.19 0.19 0.16 0.15 0.14 0.13 0.12 0.14 0.14 0.13 0.17 0.20 0.25 0.30 0.37 0.53 0.68 0.83 0.96 1.10 1.36 1.52 1.62 1.59 1.60 1.67 1.58 1.38 1.44
0.11 0.14 0.12 0.10 0.10 0.10 0.11 0.11 0.12 0.14 0.12 0.12 0.12 0.12 0.12 0.12 0.14 0.13 0.13 0.12 0.10 0.08 0.07 0.06 0.07 0.09 0.12 0.15 0.22 0.29 0.44 0.66 0.89 1.11 1.30 1.50 1.81 1.95 1.95 2.01 1.96 1.90 1.79 1.78
0.09 0.09 0.06 0.06 0.07 0.09 0.09 0.10 0.10 0.11 0.10 0.08 0.08 0.09 0.09 0.10 0.10 0.10 0.10 0.10 0.09 0.07 0.07 0.06 0.05 0.06 0.07 0.09 0.14 0.21 0.34 0.56 0.86 1.16 1.41 1.60 1.83 2.09 2.19 2.09 2.04 2.07 2.15 2.17
0.04 0.03 0.03 0.04 0.05 0.07 0.10 0.09 0.08 0.08 0.10 0.10 0.10 0.15 0.15 0.14 0.14 0.13 0.12 0.13 0.12 0.11 0.10 0.08 0.06 0.06 0.07 0.10 0.13 0.17 0.32 0.47 0.71 0.98 1.29 1.53 1.79 2.09 2.15 2.13 2.11 2.14 2.24 2.32
0.02 0.02 0.02 0.02 0.02 0.03 0.05 0.04 0.05 0.06 0.09 0.09 0.09 0.16 0.17 0.16 0.19 0.20 0.20 0.21 0.18 0.15 0.15 0.12 0.10 0.10 0.12 0.15 0.18 0.24 0.38 0.53 0.73 0.97 1.29 1.58 1.77 1.92 2.09 2.11 2.04 1.96 1.99 2.00
0.02 0.01 0.01 0.00 0.00 0.01 0.02 0.02 0.04 0.04 0.06 0.06 0.05 0.14 0.23 0.23 0.22 0.20 0.22 0.22 0.17 0.14 0.14 0.17 0.21 0.22 0.22 0.24 0.30 0.37 0.50 0.71 0.86 0.96 1.10 1.24 1.46 1.74 1.86 1.95 1.98 1.97 1.90 1.77
0.00 0.00 0.00 0.00 0.00 0.00 0.01 0.05 0.09 0.10 0.13 0.12 0.10 0.20 0.31 0.27 0.22 0.21 0.22 0.20 0.19 0.21 0.25 0.33 0.43 0.40 0.37 0.40 0.49 0.56 0.63 0.73 0.78 0.78 0.86 0.97 1.13 1.33 1.47 1.56 1.74 1.78 1.77 1.69
0.00 0.00 0.00 0.00 0.00 0.01 0.01 0.05 0.12 0.16 0.18 0.21 0.26 0.40 0.44 0.35 0.28 0.24 0.21 0.19 0.21 0.29 0.39 0.54 0.65 0.70 0.64 0.62 0.64 0.62 0.62 0.60 0.61 0.66 0.72 0.78 0.84 0.97 1.07 1.16 1.32 1.43 1.41 1.35
0.00 0.00 0.00 0.00 0.00 0.01 0.02 0.03 0.06 0.14 0.15 0.21 0.34 0.51 0.51 0.35 0.29 0.27 0.26 0.23 0.29 0.42 0.57 0.73 0.86 0.93 0.87 0.78 0.72 0.68 0.68 0.65 0.58 0.60 0.68 0.73 0.77 0.78 0.81 0.85 0.85 0.93 1.01 1.01
0.02 0.02 0.01 0.00 0.01 0.01 0.02 0.04 0.10 0.22 0.33 0.36 0.39 0.52 0.60 0.49 0.38 0.36 0.38 0.44 0.55 0.73 0.80 0.91 0.98 0.97 0.96 1.00 0.93 0.77 0.71 0.71 0.66 0.73 0.74 0.71 0.69 0.67 0.65 0.67 0.72 0.73 0.82 0.92
0.08 0.09 0.03 0.02 0.03 0.06 0.09 0.13 0.20 0.32 0.42 0.56 0.68 0.82 0.69 0.57 0.56 0.54 0.56 0.72 0.82 0.92 1.00 1.02 1.08 1.01 0.89 0.89 0.87 0.84 0.79 0.73 0.75 0.79 0.80 0.70 0.66 0.66 0.65 0.61 0.62 0.68 0.77 0.89
0.16 0.22 0.13 0.04 0.08 0.13 0.23 0.35 0.45 0.61 0.65 0.63 0.86 1.06 0.78 0.64 0.65 0.66 0.65 0.63 0.65 0.83 0.94 0.98 1.04 0.97 0.81 0.77 0.68 0.71 0.79 0.79 0.85 0.86 0.79 0.71 0.70 0.73 0.77 0.75 0.66 0.65 0.70 0.73
0.25 0.39 0.30 0.15 0.23 0.32 0.39 0.48 0.60 0.73 0.83 0.83 0.92 1.05 0.83 0.62 0.58 0.63 0.72 0.70 0.67 0.71 0.73 0.72 0.73 0.80 0.76 0.72 0.64 0.70 0.76 0.81 0.85 0.86 0.84 0.75 0.65 0.68 0.74 0.74 0.65 0.62 0.64 0.68
0.23 0.38 0.43 0.34 0.36 0.43 0.42 0.39 0.45 0.66 0.89 0.92 0.98 0.95 0.74 0.62 0.56 0.59 0.65 0.71 0.66 0.56 0.52 0.50 0.46 0.52 0.55 0.57 0.62 0.66 0.77 0.89 0.93 0.91 0.84 0.81 0.75 0.76 0.72 0.62 0.58 0.59 0.58 0.55
0.16 0.17 0.20 0.18 0.19 0.25 0.32 0.34 0.43 0.56 0.74 0.97 0.87 0.67 0.55 0.52 0.48 0.50 0.55 0.49 0.43 0.39 0.37 0.35 0.32 0.32 0.34 0.37 0.45 0.52 0.65 0.81 0.93 0.97 0.92 0.85 0.79 0.69 0.61 0.56 0.48 0.49 0.44 0.42
0.23 0.18 0.08 0.07 0.10 0.16 0.28 0.41 0.54 0.60 0.67 0.69 0.60 0.56 0.42 0.36 0.32 0.32 0.37 0.37 0.36 0.31 0.27 0.24 0.24 0.21 0.23 0.29 0.36 0.36 0.48 0.63 0.74 0.79 0.80 0.81 0.77 0.61 0.53 0.46 0.39 0.37 0.37 0.38
0.10 0.12 0.09 0.07 0.09 0.17 0.40 0.53 0.60 0.59 0.54 0.45 0.42 0.37 0.26 0.24 0.17 0.16 0.21 0.25 0.30 0.28 0.23 0.21 0.20 0.21 0.23 0.30 0.31 0.32 0.41 0.52 0.57 0.61 0.64 0.66 0.61 0.48 0.43 0.34 0.30 0.32 0.33 0.36
0.10 0.13 0.17 0.12 0.13 0.34 0.61 0.51 0.45 0.48 0.37 0.22 0.20 0.20 0.19 0.15 0.11 0.08 0.08 0.11 0.13 0.16 0.16 0.21 0.18 0.17 0.19 0.24 0.29 0.37 0.40 0.41 0.41 0.45 0.49 0.47 0.47 0.42 0.35 0.27 0.27 0.28 0.31 0.35
0.17 0.22 0.25 0.22 0.23 0.42 0.57 0.38 0.34 0.39 0.33 0.16 0.11 0.11 0.09 0.07 0.05 0.03 0.02 0.05 0.06 0.06 0.07 0.10 0.09 0.09 0.10 0.10 0.11 0.14 0.17 0.19 0.23 0.30 0.36 0.40 0.40 0.37 0.31 0.27 0.33 0.39 0.37 0.37
0.30 0.32 0.32 0.31 0.37 0.50 0.39 0.15 0.15 0.27 0.38 0.13 0.06 0.05 0.04 0.03 0.04 0.02 0.02 0.04 0.03 0.02 0.02 0.03 0.03 0.03 0.03 0.02 0.02 0.03 0.05 0.09 0.13 0.19 0.24 0.28 0.31 0.34 0.38 0.46 0.54 0.55 0.51 0.43
0.19 0.25 0.31 0.39 0.56 0.57 0.33 0.13 0.15 0.28 0.40 0.18 0.05 0.02 0.01 0.01 0.01 0.00 0.02 0.03 0.02 0.01 0.00 0.00 0.01 0.01 0.00 0.00 0.00 0.00 0.01 0.02 0.02 0.04 0.10 0.18 0.29 0.35 0.44 0.56 0.59 0.57 0.52 0.43
0.18 0.28 0.38 0.50 0.66 0.74 0.38 0.19 0.21 0.19 0.13 0.10 0.04 0.01 0.01 0.00 0.00 0.00 0.01 0.01 0.01 0.01 0.00 0.00 0.00 0.00 0.00 0.00 0.00 0.00 0.00 0.00 0.01 0.03 0.07 0.13 0.20 0.29 0.42 0.51 0.50 0.50 0.48 0.45
0.18 0.33 0.45 0.50 0.56 0.47 0.28 0.16 0.11 0.08 0.08 0.03 0.01 0.01 0.00 0.00 0.00 0.00 0.01 0.01 0.01 0.01 0.00 0.00 0.00 0.00 0.00 0.00 0.00 0.00 0.00 0.00 0.00 0.01 0.02 0.06 0.11 0.22 0.36 0.39 0.39 0.42 0.45 0.44
0.08 0.11 0.18 0.20 0.15 0.14 0.11 0.08 0.04 0.03 0.04 0.01 0.00 0.00 0.00 0.00 0.00 0.00 0.00 0.01 0.00 0.00 0.00 0.00 0.00 0.00 0.00 0.00 0.00 0.00 0.00 0.00 0.00 0.00 0.00 0.01 0.02 0.05 0.10 0.15 0.20 0.26 0.31 0.33
0.09 0.10 0.17 0.20 0.10 0.05 0.04 0.04 0.02 0.02 0.02 0.01 0.00 0.00 0.00 0.00 0.00 0.00 0.00 0.00 0.00 0.00 0.00 0.00 0.00 0.00 0.00 0.00 0.00 0.00 0.00 0.00 0.00 0.00 0.00 0.01 0.02 0.03 0.04 0.06 0.09 0.12 0.15 0.19
0.05 0.12 0.16 0.20 0.12 0.06 0.04 0.03 0.02 0.02 0.01 0.01 0.00 0.00 0.00 0.00 0.00 0.00 0.00 0.00 0.00 0.00 0.00 0.00 0.00 0.00 0.00 0.00 0.00 0.00 0.00 0.00 0.00 0.00 0.00 0.00 0.01 0.01 0.01 0.02 0.03 0.04 0.06 0.09

GEFSCGP_prec_meanprecacc_096.txt.gz
Total_Precipitation_Accumulation
0.09 0.14 0.27 0.26 0.26 0.26 0.20 0.15 0.16 0.20 0.18 0.17 0.19 0.20 0.19 0.19 0.19 0.16 0.15 0.14 0.13 0.12 0.14 0.14 0.13 0.17 0.20 0.25 0.31 0.37 0.54 0.69 0.86 0.98 1.12 1.37 1.54 1.64 1.62 1.63 1.69 1.61 1.42 1.49
0.11 0.14 0.14 0.14 0.15 0.15 0.14 0.12 0.13 0.15 0.14 0.13 0.12 0.13 0.12 0.12 0.14 0.13 0.13 0.12 0.11 0.09 0.07 0.06 0.07 0.09 0.12 0.16 0.22 0.30 0.44 0.67 0.92 1.14 1.33 1.52 1.83 1.99 1.99 2.05 1.99 1.94 1.82 1.81
0.10 0.11 0.09 0.10 0.09 0.09 0.10 0.10 0.11 0.11 0.11 0.10 0.08 0.09 0.09 0.10 0.11 0.10 0.10 0.10 0.10 0.08 0.07 0.06 0.05 0.06 0.07 0.09 0.14 0.21 0.34 0.56 0.88 1.19 1.44 1.63 1.86 2.13 2.23 2.13 2.08 2.11 2.18 2.21
0.07 0.08 0.05 0.05 0.06 0.07 0.11 0.10 0.09 0.09 0.10 0.10 0.10 0.16 0.15 0.14 0.14 0.13 0.12 0.13 0.12 0.11 0.10 0.08 0.06 0.06 0.07 0.10 0.13 0.17 0.32 0.48 0.71 0.99 1.31 1.56 1.82 2.13 2.21 2.19 2.16 2.19 2.29 2.36
0.08 0.07 0.03 0.04 0.04 0.04 0.06 0.05 0.05 0.06 0.09 0.09 0.09 0.16 0.17 0.16 0.19 0.20 0.20 0.21 0.18 0.15 0.15 0.12 0.10 0.10 0.12 0.15 0.18 0.24 0.38 0.53 0.73 0.97 1.30 1.61 1.80 1.97 2.16 2.18 2.09 2.01 2.05 2.05
0.08 0.05 0.03 0.02 0.02 0.01 0.02 0.03 0.04 0.04 0.06 0.06 0.05 0.14 0.23 0.23 0.22 0.20 0.22 0.22 0.17 0.14 0.14 0.17 0.21 0.22 0.22 0.24 0.30 0.38 0.50 0.71 0.87 0.97 1.11 1.28 1.48 1.76 1.90 1.99 2.03 2.02 1.97 1.83
0.02 0.01 0.01 0.00 0.00 0.01 0.01 0.05 0.09 0.11 0.13 0.12 0.10 0.20 0.31 0.27 0.22 0.21 0.22 0.20 0.19 0.21 0.25 0.33 0.43 0.40 0.37 0.40 0.49 0.56 0.63 0.73 0.79 0.78 0.86 0.99 1.15 1.36 1.49 1.59 1.78 1.83 1.84 1.76
0.00 0.00 0.00 0.00 0.00 0.01 0.01 0.05 0.12 0.16 0.18 0.21 0.26 0.40 0.44 0.35 0.28 0.24 0.21 0.19 0.21 0.29 0.39 0.54 0.65 0.70 0.64 0.62 0.64 0.62 0.63 0.60 0.61 0.66 0.73 0.80 0.86 1.00 1.10 1.19 1.35 1.47 1.45 1.40
0.01 0.01 0.00 0.00 0.00 0.01 0.02 0.03 0.06 0.14 0.15 0.21 0.34 0.51 0.51 0.35 0.29 0.27 0.26 0.23 0.29 0.42 0.57 0.73 0.86 0.93 0.87 0.78 0.72 0.68 0.68 0.65 0.58 0.60 0.68 0.74 0.79 0.80 0.83 0.87 0.87 0.95 1.03 1.03
0.04 0.03 0.01 0.00 0.01 0.01 0.02 0.04 0.10 0.22 0.33 0.36 0.39 0.52 0.60 0.49 0.38 0.36 0.38 0.44 0.55 0.73 0.80 0.91 0.98 0.97 0.96 1.00 0.93 0.77 0.71 0.71 0.66 0.73 0.74 0.72 0.70 0.68 0.67 0.70 0.75 0.76 0.84 0.94
0.09 0.09 0.03 0.02 0.03 0.06 0.09 0.13 0.20 0.32 0.42 0.56 0.68 0.82 0.69 0.57 0.56 0.54 0.56 0.72 0.82 0.92 1.00 1.02 1.08 1.01 0.89 0.89 0.87 0.84 0.79 0.73 0.75 0.80 0.80 0.70 0.67 0.67 0.67 0.64 0.66 0.73 0.82 0.92
0.17 0.22 0.13 0.04 0.08 0.13 0.23 0.35 0.45 0.61 0.65 0.63 0.86 1.06 0.78 0.64 0.65 0.66 0.65 0.63 0.65 0.83 0.94 0.98 1.04 0.97 0.81 0.77 0.68 0.71 0.79 0.79 0.85 0.86 0.79 0.71 0.71 0.74 0.79 0.77 0.69 0.69 0.74 0.76
0.25 0.39 0.30 0.15 0.23 0.32 0.39 0.48 0.60 0.73 0.83 0.83 0.92 1.05 0.83 0.62 0.58 0.63 0.72 0.70 0.67 0.71 0.73 0.72 0.73 0.80 0.76 0.72 0.64 0.70 0.76 0.81 0.85 0.86 0.84 0.76 0.66 0.69 0.74 0.75 0.67 0.64 0.68 0.72
0.23 0.38 0.43 0.34 0.36 0.43 0.42 0.39 0.45 0.66 0.89 0.92 0.98 0.95 0.74 0.62 0.56 0.59 0.65 0.71 0.66 0.56 0.52 0.50 0.46 0.52 0.55 0.57 0.62 0.66 0.77 0.89 0.93 0.91 0.85 0.81 0.75 0.78 0.73 0.63 0.60 0.62 0.61 0.58
0.16 0.17 0.20 0.18 0.19 0.25 0.32 0.34 0.43 0.56 0.74 0.97 0.87 0.67 0.55 0.52 0.48 0.50 0.55 0.49 0.43 0.39 0.37 0.35 0.32 0.32 0.34 0.37 0.45 0.52 0.65 0.81 0.93 0.97 0.92 0.85 0.79 0.70 0.63 0.57 0.50 0.51 0.47 0.45
0.23 0.18 0.08 0.07 0.10 0.16 0.28 0.41 0.54 0.60 0.67 0.69 0.60 0.56 0.42 0.36 0.32 0.32 0.37 0.37 0.36 0.31 0.27 0.24 0.24 0.21 0.23 0.29 0.36 0.36 0.48 0.63 0.74 0.79 0.80 0.81 0.77 0.61 0.54 0.47 0.41 0.39 0.40 0.41
0.10 0.12 0.09 0.07 0.09 0.17 0.40 0.53 0.60 0.59 0.54 0.45 0.42 0.37 0.26 0.24 0.17 0.16 0.21 0.25 0.30 0.28 0.23 0.21 0.20 0.21 0.23 0.30 0.31 0.32 0.41 0.52 0.57 0.61 0.64 0.66 0.61 0.49 0.43 0.35 0.31 0.34 0.35 0.37
0.10 0.13 0.17 0.12 0.13 0.34 0.61 0.51 0.45 0.48 0.37 0.22 0.20 0.20 0.19 0.15 0.11 0.08 0.08 0.11 0.13 0.16 0.16 0.21 0.18 0.17 0.19 0.24 0.29 0.37 0.40 0.41 0.41 0.45 0.49 0.47 0.47 0.42 0.35 0.28 0.28 0.30 0.33 0.36
0.17 0.22 0.25 0.22 0.23 0.42 0.57 0.38 0.34 0.39 0.33 0.16 0.11 0.11 0.09 0.07 0.05 0.03 0.02 0.05 0.06 0.06 0.07 0.10 0.09 0.09 0.10 0.10 0.11 0.14 0.17 0.19 0.23 0.30 0.36 0.40 0.40 0.37 0.31 0.27 0.33 0.40 0.40 0.38
0.30 0.32 0.32 0.31 0.37 0.50 0.39 0.15 0.15 0.27 0.38 0.13 0.06 0.05 0.04 0.03 0.04 0.02 0.02 0.04 0.03 0.02 0.02 0.03 0.03 0.03 0.03 0.02 0.02 0.03 0.05 0.09 0.13 0.19 0.24 0.28 0.31 0.34 0.38 0.46 0.54 0.55 0.52 0.46
0.19 0.25 0.31 0.39 0.56 0.57 0.33 0.13 0.15 0.28 0.40 0.18 0.05 0.02 0.01 0.01 0.01 0.00 0.02 0.03 0.02 0.01 0.00 0.00 0.01 0.01 0.00 0.00 0.00 0.00 0.01 0.02 0.02 0.04 0.10 0.18 0.29 0.35 0.44 0.56 0.59 0.58 0.52 0.44
0.18 0.28 0.38 0.50 0.66 0.74 0.38 0.19 0.21 0.19 0.13 0.10 0.04 0.01 0.01 0.00 0.00 0.00 0.01 0.01 0.01 0.01 0.00 0.00 0.00 0.00 0.00 0.00 0.00 0.00 0.00 0.00 0.01 0.03 0.07 0.13 0.20 0.29 0.42 0.51 0.50 0.50 0.49 0.46
0.18 0.33 0.45 0.50 0.56 0.47 0.28 0.16 0.11 0.08 0.08 0.03 0.01 0.01 0.00 0.00 0.00 0.00 0.01 0.01 0.01 0.01 0.00 0.00 0.00 0.00 0.00 0.00 0.00 0.00 0.00 0.00 0.00 0.01 0.02 0.06 0.11 0.22 0.36 0.39 0.39 0.42 0.45 0.44
0.08 0.11 0.18 0.20 0.15 0.14 0.11 0.08 0.04 0.03 0.04 0.01 0.00 0.00 0.00 0.00 0.00 0.00 0.00 0.01 0.00 0.00 0.00 0.00 0.00 0.00 0.00 0.00 0.00 0.00 0.00 0.00 0.00 0.00 0.00 0.01 0.02 0.05 0.10 0.15 0.20 0.26 0.31 0.33
0.09 0.10 0.17 0.20 0.10 0.05 0.04 0.04 0.02 0.02 0.02 0.01 0.00 0.00 0.00 0.00 0.00 0.00 0.00 0.00 0.00 0.00 0.00 0.00 0.00 0.00 0.00 0.00 0.00 0.00 0.00 0.00 0.00 0.00 0.00 0.01 0.02 0.03 0.04 0.06 0.09 0.12 0.15 0.19
0.05 0.12 0.16 0.20 0.12 0.06 0.04 0.03 0.02 0.02 0.01 0.01 0.00 0.00 0.00 0.00 0.00 0.00 0.00 0.00 0.00 0.00 0.00 0.00 0.00 0.00 0.00 0.00 0.00 0.00 0.00 0.00 0.00 0.00 0.00 0.00 0.01 0.01 0.01 0.02 0.03 0.04 0.06 0.09

GEFSCGP_prec_meanprecacc_102.txt.gz
Total_Precipitation_Accumulation
0.12 0.19 0.33 0.33 0.36 0.39 0.30 0.22 0.22 0.25 0.21 0.21 0.24 0.23 0.21 0.20 0.20 0.18 0.16 0.15 0.14 0.12 0.14 0.14 0.13 0.17 0.20 0.25 0.31 0.37 0.54 0.70 0.86 0.98 1.12 1.38 1.54 1.64 1.62 1.63 1.70 1.62 1.43 1.49
0.17 0.19 0.18 0.22 0.25 0.24 0.22 0.19 0.20 0.19 0.16 0.14 0.14 0.14 0.13 0.13 0.15 0.15 0.15 0.13 0.11 0.09 0.07 0.06 0.07 0.09 0.12 0.16 0.22 0.30 0.44 0.67 0.92 1.14 1.33 1.52 1.83 1.99 1.99 2.05 2.00 1.95 1.83 1.82
0.17 0.18 0.15 0.17 0.17 0.17 0.17 0.16 0.16 0.14 0.12 0.10 0.09 0.10 0.10 0.11 0.12 0.12 0.11 0.11 0.10 0.08 0.07 0.06 0.05 0.06 0.07 0.09 0.14 0.21 0.34 0.57 0.88 1.19 1.44 1.63 1.87 2.14 2.23 2.13 2.09 2.12 2.19 2.22
0.19 0.18 0.12 0.12 0.13 0.16 0.19 0.13 0.12 0.11 0.11 0.11 0.10 0.16 0.15 0.15 0.16 0.14 0.13 0.13 0.12 0.11 0.10 0.08 0.06 0.06 0.07 0.10 0.13 0.17 0.32 0.48 0.72 0.99 1.31 1.57 1.83 2.14 2.22 2.19 2.16 2.20 2.31 2.39
0.19 0.15 0.11 0.10 0.11 0.11 0.12 0.07 0.06 0.07 0.09 0.09 0.09 0.16 0.17 0.16 0.20 0.20 0.20 0.21 0.18 0.15 0.15 0.12 0.10 0.10 0.12 0.15 0.18 0.24 0.38 0.53 0.74 0.98 1.30 1.62 1.81 1.98 2.17 2.19 2.10 2.03 2.08 2.09
0.17 0.11 0.08 0.06 0.06 0.04 0.04 0.04 0.04 0.04 0.06 0.06 0.05 0.14 0.23 0.23 0.22 0.20 0.22 0.22 0.17 0.14 0.14 0.17 0.21 0.22 0.22 0.24 0.30 0.38 0.50 0.71 0.87 0.97 1.11 1.28 1.49 1.77 1.91 2.00 2.04 2.04 2.00 1.86
0.09 0.05 0.03 0.02 0.03 0.02 0.02 0.06 0.10 0.11 0.13 0.12 0.10 0.20 0.31 0.27 0.22 0.21 0.22 0.20 0.19 0.21 0.25 0.33 0.43 0.40 0.37 0.40 0.49 0.56 0.63 0.73 0.79 0.78 0.86 0.99 1.15 1.36 1.50 1.60 1.79 1.85 1.87 1.79
0.06 0.03 0.02 0.01 0.01 0.01 0.01 0.05 0.12 0.16 0.18 0.21 0.26 0.40 0.44 0.35 0.28 0.24 0.21 0.19 0.21 0.29 0.39 0.54 0.65 0.70 0.64 0.62 0.64 0.62 0.63 0.60 0.61 0.66 0.73 0.80 0.86 1.00 1.12 1.20 1.36 1.48 1.47 1.43
0.05 0.03 0.01 0.00 0.01 0.01 0.02 0.03 0.06 0.14 0.15 0.21 0.34 0.51 0.51 0.35 0.29 0.27 0.26 0.23 0.29 0.42 0.57 0.73 0.86 0.93 0.87 0.78 0.72 0.68 0.68 0.65 0.58 0.60 0.68 0.74 0.79 0.80 0.84 0.88 0.88 0.96 1.04 1.05
0.08 0.05 0.02 0.00 0.01 0.01 0.02 0.04 0.10 0.22 0.33 0.36 0.39 0.52 0.60 0.49 0.38 0.36 0.38 0.44 0.55 0.73 0.80 0.91 0.98 0.97 0.96 1.00 0.93 0.77 0.71 0.71 0.66 0.73 0.74 0.72 0.70 0.68 0.67 0.70 0.76 0.77 0.85 0.95
0.12 0.11 0.04 0.02 0.03 0.06 0.09 0.13 0.20 0.32 0.42 0.56 0.68 0.82 0.69 0.57 0.56 0.54 0.56 0.72 0.82 0.92 1.00 1.02 1.08 1.01 0.89 0.89 0.87 0.84 0.79 0.73 0.75 0.80 0.80 0.70 0.67 0.67 0.67 0.65 0.67 0.74 0.83 0.93
0.18 0.23 0.14 0.04 0.08 0.13 0.23 0.35 0.45 0.61 0.65 0.63 0.86 1.06 0.78 0.64 0.65 0.66 0.65 0.63 0.65 0.83 0.94 0.98 1.04 0.97 0.81 0.77 0.68 0.71 0.79 0.79 0.85 0.86 0.79 0.71 0.71 0.74 0.79 0.77 0.69 0.70 0.76 0.78
0.26 0.39 0.31 0.15 0.23 0.32 0.39 0.48 0.60 0.73 0.83 0.83 0.92 1.05 0.83 0.62 0.58 0.63 0.72 0.70 0.67 0.71 0.73 0.72 0.73 0.80 0.76 0.72 0.64 0.70 0.76 0.81 0.85 0.86 0.84 0.76 0.66 0.69 0.74 0.75 0.68 0.65 0.69 0.73
0.23 0.38 0.44 0.34 0.36 0.43 0.42 0.39 0.45 0.66 0.89 0.92 0.98 0.95 0.74 0.62 0.56 0.59 0.65 0.71 0.66 0.56 0.52 0.50 0.46 0.52 0.55 0.57 0.62 0.66 0.77 0.89 0.93 0.91 0.85 0.81 0.75 0.78 0.73 0.63 0.61 0.63 0.62 0.59
0.16 0.17 0.20 0.18 0.19 0.25 0.32 0.34 0.43 0.56 0.74 0.97 0.87 0.67 0.55 0.52 0.48 0.50 0.55 0.49 0.43 0.39 0.37 0.35 0.32 0.32 0.34 0.37 0.45 0.52 0.65 0.81 0.93 0.97 0.92 0.85 0.79 0.70 0.63 0.57 0.50 0.52 0.48 0.46
0.23 0.18 0.08 0.07 0.10 0.16 0.28 0.41 0.54 0.60 0.67 0.69 0.60 0.56 0.42 0.36 0.32 0.32 0.37 0.37 0.36 0.31 0.27 0.24 0.24 0.21 0.23 0.29 0.36 0.36 0.48 0.63 0.74 0.79 0.80 0.81 0.77 0.61 0.54 0.48 0.41 0.39 0.41 0.41
0.10 0.12 0.09 0.07 0.09 0.17 0.40 0.53 0.60 0.59 0.54 0.45 0.42 0.37 0.26 0.24 0.17 0.16 0.21 0.25 0.30 0.28 0.23 0.21 0.20 0.21 0.23 0.30 0.31 0.32 0.41 0.52 0.57 0.61 0.64 0.66 0.61 0.49 0.43 0.35 0.31 0.34 0.35 0.38
0.10 0.13 0.17 0.12 0.13 0.34 0.61 0.51 0.45 0.48 0.37 0.22 0.20 0.20 0.19 0.15 0.11 0.08 0.08 0.11 0.13 0.16 0.16 0.21 0.18 0.17 0.19 0.24 0.29 0.37 0.40 0.41 0.41 0.45 0.49 0.47 0.47 0.42 0.35 0.28 0.28 0.30 0.33 0.37
0.17 0.22 0.25 0.22 0.23 0.42 0.57 0.38 0.34 0.39 0.33 0.16 0.11 0.11 0.09 0.07 0.05 0.03 0.02 0.05 0.06 0.06 0.07 0.10 0.09 0.09 0.10 0.10 0.11 0.14 0.17 0.19 0.23 0.30 0.36 0.40 0.40 0.37 0.31 0.27 0.33 0.40 0.40 0.39
0.30 0.32 0.32 0.31 0.37 0.50 0.39 0.15 0.15 0.27 0.38 0.13 0.06 0.05 0.04 0.03 0.04 0.02 0.02 0.04 0.03 0.02 0.02 0.03 0.03 0.03 0.03 0.02 0.02 0.03 0.05 0.09 0.13 0.19 0.24 0.28 0.31 0.34 0.38 0.46 0.54 0.55 0.52 0.46
0.19 0.25 0.31 0.39 0.56 0.57 0.33 0.13 0.15 0.28 0.40 0.18 0.05 0.02 0.01 0.01 0.01 0.00 0.02 0.03 0.02 0.01 0.00 0.00 0.01 0.01 0.00 0.00 0.00 0.00 0.01 0.02 0.02 0.04 0.10 0.18 0.29 0.35 0.44 0.56 0.59 0.58 0.52 0.44
0.18 0.28 0.38 0.50 0.66 0.74 0.38 0.19 0.21 0.19 0.13 0.10 0.04 0.01 0.01 0.00 0.00 0.00 0.01 0.01 0.01 0.01 0.00 0.00 0.00 0.00 0.00 0.00 0.00 0.00 0.00 0.00 0.01 0.03 0.07 0.13 0.20 0.29 0.42 0.51 0.50 0.50 0.49 0.46
0.18 0.33 0.45 0.50 0.56 0.47 0.28 0.16 0.11 0.08 0.08 0.03 0.01 0.01 0.00 0.00 0.00 0.00 0.01 0.01 0.01 0.01 0.00 0.00 0.00 0.00 0.00 0.00 0.00 0.00 0.00 0.00 0.00 0.01 0.02 0.06 0.11 0.22 0.36 0.39 0.39 0.42 0.45 0.44
0.08 0.11 0.18 0.20 0.15 0.14 0.11 0.08 0.04 0.03 0.04 0.01 0.00 0.00 0.00 0.00 0.00 0.00 0.00 0.01 0.00 0.00 0.00 0.00 0.00 0.00 0.00 0.00 0.00 0.00 0.00 0.00 0.00 0.00 0.00 0.01 0.02 0.05 0.10 0.15 0.20 0.26 0.31 0.33
0.09 0.10 0.17 0.20 0.10 0.05 0.04 0.04 0.02 0.02 0.02 0.01 0.00 0.00 0.00 0.00 0.00 0.00 0.00 0.00 0.00 0.00 0.00 0.00 0.00 0.00 0.00 0.00 0.00 0.00 0.00 0.00 0.00 0.00 0.00 0.01 0.02 0.03 0.04 0.06 0.09 0.12 0.15 0.19
0.05 0.12 0.16 0.20 0.12 0.06 0.04 0.03 0.02 0.02 0.01 0.01 0.00 0.00 0.00 0.00 0.00 0.00 0.00 0.00 0.00 0.00 0.00 0.00 0.00 0.00 0.00 0.00 0.00 0.00 0.00 0.00 0.00 0.00 0.00 0.00 0.01 0.01 0.01 0.02 0.03 0.04 0.06 0.09

GEFSCGP_prec_meanprecacc_108.txt.gz
Total_Precipitation_Accumulation
0.16 0.25 0.39 0.40 0.43 0.45 0.34 0.24 0.24 0.26 0.22 0.23 0.26 0.24 0.22 0.21 0.21 0.19 0.17 0.15 0.14 0.12 0.14 0.14 0.13 0.17 0.20 0.25 0.31 0.37 0.54 0.70 0.86 0.98 1.12 1.38 1.54 1.64 1.62 1.63 1.70 1.62 1.43 1.50
0.22 0.24 0.24 0.28 0.31 0.30 0.26 0.22 0.22 0.20 0.18 0.16 0.15 0.14 0.13 0.13 0.16 0.16 0.15 0.14 0.11 0.09 0.07 0.06 0.07 0.09 0.12 0.16 0.22 0.30 0.44 0.67 0.92 1.14 1.33 1.52 1.83 1.99 1.99 2.05 2.00 1.95 1.83 1.83
0.21 0.22 0.20 0.21 0.22 0.22 0.20 0.18 0.17 0.15 0.14 0.12 0.10 0.10 0.10 0.11 0.12 0.12 0.11 0.11 0.10 0.08 0.07 0.06 0.05 0.06 0.07 0.09 0.14 0.21 0.34 0.57 0.88 1.19 1.44 1.63 1.87 2.14 2.23 2.13 2.09 2.12 2.20 2.23
0.24 0.22 0.15 0.16 0.16 0.19 0.22 0.15 0.13 0.13 0.13 0.12 0.11 0.16 0.15 0.15 0.16 0.14 0.13 0.13 0.12 0.11 0.10 0.08 0.06 0.06 0.07 0.10 0.13 0.17 0.32 0.48 0.72 0.99 1.31 1.57 1.83 2.14 2.22 2.19 2.16 2.20 2.32 2.40
0.21 0.17 0.13 0.12 0.13 0.13 0.14 0.10 0.08 0.08 0.11 0.10 0.09 0.16 0.17 0.17 0.20 0.20 0.20 0.21 0.18 0.15 0.15 0.12 0.10 0.10 0.12 0.15 0.18 0.24 0.38 0.53 0.74 0.98 1.30 1.62 1.81 1.98 2.18 2.19 2.10 2.03 2.08 2.10
0.21 0.15 0.10 0.08 0.08 0.07 0.07 0.07 0.07 0.06 0.06 0.06 0.05 0.14 0.23 0.23 0.22 0.20 0.22 0.22 0.17 0.14 0.15 0.17 0.21 0.22 0.22 0.24 0.30 0.38 0.50 0.71 0.87 0.97 1.11 1.28 1.49 1.78 1.92 2.02 2.05 2.05 2.02 1.88
0.14 0.10 0.06 0.05 0.06 0.05 0.05 0.07 0.11 0.11 0.13 0.12 0.10 0.20 0.31 0.27 0.22 0.21 0.22 0.20 0.19 0.21 0.25 0.33 0.43 0.40 0.37 0.40 0.49 0.56 0.63 0.73 0.79 0.78 0.86 0.99 1.16 1.37 1.51 1.61 1.80 1.86 1.88 1.81
0.10 0.06 0.04 0.03 0.03 0.03 0.03 0.05 0.13 0.16 0.18 0.21 0.26 0.40 0.44 0.35 0.28 0.24 0.21 0.19 0.21 0.29 0.39 0.54 0.65 0.70 0.64 0.62 0.64 0.62 0.63 0.60 0.62 0.66 0.73 0.80 0.86 1.00 1.12 1.20 1.36 1.49 1.48 1.43
0.07 0.04 0.02 0.02 0.02 0.03 0.02 0.03 0.07 0.14 0.15 0.21 0.34 0.51 0.51 0.35 0.29 0.27 0.26 0.23 0.29 0.42 0.57 0.73 0.86 0.93 0.87 0.78 0.72 0.68 0.68 0.65 0.58 0.60 0.68 0.75 0.79 0.81 0.84 0.88 0.88 0.97 1.04 1.06
0.09 0.06 0.03 0.02 0.02 0.02 0.03 0.05 0.10 0.22 0.33 0.36 0.39 0.52 0.60 0.49 0.38 0.36 0.38 0.44 0.55 0.73 0.80 0.91 0.98 0.97 0.96 1.00 0.93 0.77 0.71 0.71 0.66 0.73 0.74 0.72 0.70 0.68 0.67 0.71 0.76 0.77 0.86 0.96
0.13 0.11 0.05 0.03 0.03 0.06 0.09 0.13 0.20 0.32 0.42 0.56 0.68 0.82 0.69 0.57 0.56 0.54 0.56 0.72 0.82 0.92 1.00 1.02 1.08 1.01 0.89 0.89 0.87 0.84 0.79 0.73 0.75 0.80 0.80 0.70 0.67 0.67 0.67 0.65 0.67 0.75 0.84 0.94
0.20 0.24 0.14 0.05 0.08 0.13 0.23 0.35 0.45 0.61 0.65 0.63 0.86 1.06 0.78 0.64 0.65 0.66 0.65 0.63 0.65 0.83 0.94 0.98 1.04 0.97 0.81 0.77 0.68 0.71 0.79 0.79 0.85 0.86 0.79 0.71 0.71 0.74 0.79 0.77 0.69 0.71 0.76 0.78
0.27 0.40 0.31 0.15 0.23 0.32 0.39 0.48 0.60 0.73 0.83 0.83 0.92 1.05 0.83 0.62 0.58 0.63 0.72 0.70 0.67 0.71 0.73 0.72 0.73 0.80 0.76 0.72 0.64 0.70 0.76 0.81 0.85 0.86 0.84 0.76 0.66 0.69 0.74 0.75 0.68 0.65 0.70 0.74
0.24 0.39 0.44 0.34 0.36 0.43 0.42 0.39 0.45 0.66 0.89 0.92 0.98 0.95 0.74 0.62 0.56 0.59 0.65 0.71 0.66 0.56 0.52 0.50 0.46 0.52 0.55 0.57 0.62 0.66 0.77 0.89 0.93 0.91 0.85 0.81 0.75 0.78 0.73 0.63 0.61 0.63 0.63 0.60
0.17 0.17 0.20 0.18 0.19 0.25 0.32 0.34 0.43 0.56 0.74 0.97 0.87 0.67 0.55 0.52 0.48 0.50 0.55 0.49 0.43 0.39 0.37 0.35 0.32 0.32 0.34 0.37 0.45 0.52 0.65 0.81 0.93 0.97 0.92 0.85 0.79 0.70 0.63 0.57 0.50 0.52 0.48 0.47
0.23 0.18 0.08 0.07 0.10 0.16 0.28 0.41 0.54 0.60 0.67 0.69 0.60 0.56 0.42 0.36 0.32 0.32 0.37 0.37 0.36 0.31 0.27 0.24 0.24 0.21 0.23 0.29 0.36 0.36 0.48 0.63 0.74 0.79 0.80 0.81 0.77 0.61 0.54 0.48 0.41 0.39 0.41 0.41
0.10 0.12 0.09 0.07 0.09 0.17 0.40 0.53 0.60 0.59 0.54 0.45 0.42 0.37 0.26 0.24 0.17 0.16 0.21 0.25 0.30 0.28 0.23 0.21 0.20 0.21 0.23 0.30 0.31 0.32 0.41 0.52 0.57 0.61 0.64 0.66 0.61 0.49 0.43 0.35 0.31 0.34 0.35 0.38
0.10 0.13 0.17 0.12 0.13 0.34 0.61 0.51 0.45 0.48 0.37 0.22 0.20 0.20 0.19 0.15 0.11 0.08 0.08 0.11 0.13 0.16 0.16 0.21 0.18 0.17 0.19 0.24 0.29 0.37 0.40 0.41 0.41 0.45 0.49 0.47 0.47 0.42 0.35 0.28 0.28 0.30 0.33 0.37
0.17 0.22 0.25 0.22 0.23 0.42 0.57 0.38 0.34 0.39 0.33 0.16 0.11 0.11 0.09 0.07 0.05 0.03 0.02 0.05 0.06 0.06 0.07 0.10 0.09 0.09 0.10 0.10 0.11 0.14 0.17 0.19 0.23 0.30 0.36 0.40 0.40 0.37 0.31 0.27 0.33 0.40 0.40 0.39
0.30 0.32 0.32 0.31 0.37 0.50 0.39 0.15 0.15 0.27 0.38 0.13 0.06 0.05 0.04 0.03 0.04 0.02 0.02 0.04 0.03 0.02 0.02 0.03 0.03 0.03 0.03 0.02 0.02 0.03 0.05 0.09 0.13 0.19 0.24 0.28 0.31 0.34 0.38 0.46 0.54 0.55 0.52 0.46
0.19 0.25 0.31 0.39 0.56 0.57 0.33 0.13 0.15 0.28 0.40 0.18 0.05 0.02 0.01 0.01 0.01 0.00 0.02 0.03 0.02 0.01 0.00 0.00 0.01 0.01 0.00 0.00 0.00 0.00 0.01 0.02 0.02 0.04 0.10 0.18 0.29 0.35 0.44 0.56 0.59 0.58 0.52 0.44
0.18 0.28 0.38 0.50 0.66 0.74 0.38 0.19 0.21 0.19 0.13 0.10 0.04 0.01 0.01 0.00 0.00 0.00 0.01 0.01 0.01 0.01 0.00 0.00 0.00 0.00 0.00 0.00 0.00 0.00 0.00 0.00 0.01 0.03 0.07 0.13 0.20 0.29 0.42 0.51 0.50 0.50 0.49 0.46
0.18 0.33 0.45 0.50 0.56 0.47 0.28 0.16 0.11 0.08 0.08 0.03 0.01 0.01 0.00 0.00 0.00 0.00 0.01 0.01 0.01 0.01 0.00 0.00 0.00 0.00 0.00 0.00 0.00 0.00 0.00 0.00 0.00 0.01 0.02 0.06 0.11 0.22 0.36 0.39 0.39 0.42 0.45 0.44
0.08 0.11 0.18 0.20 0.15 0.14 0.11 0.08 0.04 0.03 0.04 0.01 0.00 0.00 0.00 0.00 0.00 0.00 0.00 0.01 0.00 0.00 0.00 0.00 0.00 0.00 0.00 0.00 0.00 0.00 0.00 0.00 0.00 0.00 0.00 0.01 0.02 0.05 0.10 0.15 0.20 0.26 0.31 0.33
0.09 0.10 0.17 0.20 0.10 0.05 0.04 0.04 0.02 0.02 0.02 0.01 0.00 0.00 0.00 0.00 0.00 0.00 0.00 0.00 0.00 0.00 0.00 0.00 0.00 0.00 0.00 0.00 0.00 0.00 0.00 0.00 0.00 0.00 0.00 0.01 0.02 0.03 0.04 0.06 0.09 0.12 0.15 0.19
0.05 0.12 0.16 0.20 0.12 0.06 0.04 0.03 0.02 0.02 0.01 0.01 0.00 0.00 0.00 0.00 0.00 0.00 0.00 0.00 0.00 0.00 0.00 0.00 0.00 0.00 0.00 0.00 0.00 0.00 0.00 0.00 0.00 0.00 0.00 0.00 0.01 0.01 0.01 0.02 0.03 0.04 0.06 0.09

GEFSCGP_prec_meanprecacc_114.txt.gz
Total_Precipitation_Accumulation
0.17 0.27 0.43 0.43 0.47 0.47 0.35 0.25 0.25 0.27 0.23 0.25 0.27 0.24 0.22 0.22 0.22 0.19 0.17 0.15 0.14 0.13 0.14 0.14 0.13 0.17 0.20 0.25 0.31 0.37 0.54 0.70 0.86 0.98 1.12 1.38 1.54 1.64 1.62 1.63 1.70 1.62 1.43 1.51
0.25 0.26 0.25 0.31 0.35 0.33 0.28 0.24 0.23 0.22 0.19 0.17 0.16 0.15 0.13 0.13 0.16 0.16 0.15 0.14 0.12 0.09 0.07 0.06 0.07 0.09 0.12 0.16 0.22 0.30 0.44 0.67 0.92 1.14 1.33 1.52 1.84 1.99 1.99 2.05 2.00 1.95 1.84 1.84
0.23 0.23 0.21 0.24 0.25 0.25 0.22 0.19 0.19 0.17 0.17 0.15 0.11 0.10 0.10 0.11 0.12 0.12 0.11 0.11 0.10 0.08 0.07 0.06 0.05 0.06 0.07 0.09 0.14 0.21 0.34 0.57 0.88 1.19 1.44 1.64 1.87 2.14 2.23 2.14 2.09 2.12 2.20 2.23
0.26 0.23 0.17 0.18 0.18 0.21 0.25 0.17 0.15 0.15 0.17 0.15 0.12 0.16 0.15 0.15 0.16 0.14 0.13 0.13 0.12 0.11 0.10 0.09 0.06 0.06 0.07 0.10 0.13 0.17 0.32 0.48 0.72 0.99 1.31 1.57 1.83 2.15 2.22 2.20 2.17 2.20 2.32 2.41
0.22 0.19 0.15 0.14 0.14 0.15 0.18 0.12 0.12 0.13 0.14 0.12 0.10 0.16 0.18 0.17 0.20 0.20 0.20 0.21 0.18 0.15 0.15 0.12 0.10 0.10 0.12 0.15 0.18 0.24 0.38 0.53 0.74 0.98 1.30 1.62 1.82 1.99 2.19 2.20 2.11 2.04 2.09 2.11
0.23 0.18 0.13 0.10 0.10 0.11 0.13 0.11 0.09 0.08 0.08 0.08 0.06 0.14 0.23 0.23 0.22 0.20 0.22 0.22 0.17 0.14 0.15 0.17 0.21 0.22 0.22 0.24 0.30 0.38 0.50 0.71 0.87 0.97 1.12 1.29 1.50 1.78 1.92 2.02 2.05 2.06 2.03 1.90
0.17 0.13 0.09 0.08 0.10 0.09 0.08 0.11 0.13 0.12 0.14 0.12 0.10 0.20 0.31 0.27 0.22 0.21 0.22 0.20 0.19 0.21 0.25 0.33 0.43 0.40 0.37 0.40 0.49 0.56 0.63 0.73 0.79 0.78 0.86 1.00 1.16 1.37 1.51 1.61 1.80 1.86 1.89 1.82
0.11 0.08 0.07 0.05 0.04 0.05 0.05 0.07 0.14 0.16 0.18 0.21 0.26 0.40 0.44 0.35 0.28 0.24 0.21 0.19 0.21 0.29 0.39 0.54 0.65 0.70 0.64 0.62 0.64 0.62 0.63 0.60 0.62 0.66 0.73 0.80 0.86 1.00 1.12 1.20 1.36 1.49 1.48 1.44
0.08 0.05 0.04 0.04 0.03 0.04 0.04 0.04 0.07 0.15 0.15 0.21 0.34 0.51 0.51 0.35 0.29 0.27 0.26 0.23 0.29 0.42 0.57 0.73 0.86 0.93 0.87 0.78 0.72 0.68 0.68 0.65 0.58 0.60 0.68 0.75 0.79 0.81 0.84 0.88 0.88 0.97 1.05 1.07
0.10 0.07 0.03 0.02 0.03 0.03 0.04 0.05 0.10 0.22 0.33 0.36 0.39 0.52 0.60 0.49 0.38 0.36 0.38 0.44 0.55 0.73 0.80 0.91 0.98 0.97 0.96 1.00 0.93 0.77 0.71 0.71 0.66 0.73 0.75 0.72 0.70 0.69 0.67 0.71 0.76 0.78 0.86 0.96
0.14 0.12 0.06 0.03 0.04 0.07 0.09 0.13 0.20 0.32 0.42 0.56 0.68 0.82 0.69 0.57 0.56 0.54 0.56 0.72 0.82 0.92 1.00 1.02 1.08 1.01 0.89 0.89 0.87 0.84 0.79 0.73 0.75 0.80 0.80 0.70 0.67 0.67 0.67 0.65 0.67 0.75 0.84 0.94
0.20 0.25 0.15 0.05 0.09 0.14 0.23 0.35 0.45 0.61 0.65 0.63 0.86 1.06 0.78 0.64 0.65 0.66 0.65 0.63 0.65 0.83 0.94 0.98 1.04 0.97 0.81 0.77 0.68 0.71 0.79 0.79 0.85 0.86 0.79 0.71 0.71 0.74 0.79 0.77 0.69 0.71 0.77 0.79
0.28 0.41 0.32 0.16 0.23 0.32 0.39 0.48 0.60 0.73 0.83 0.83 0.92 1.05 0.83 0.62 0.58 0.63 0.72 0.70 0.67 0.71 0.73 0.72 0.73 0.80 0.76 0.72 0.64 0.70 0.76 0.81 0.85 0.86 0.84 0.76 0.66 0.69 0.74 0.75 0.68 0.65 0.70 0.74
0.25 0.40 0.44 0.35 0.36 0.43 0.42 0.39 0.45 0.66 0.89 0.92 0.98 0.95 0.74 0.62 0.56 0.59 0.65 0.71 0.66 0.56 0.52 0.50 0.46 0.52 0.55 0.57 0.62 0.66 0.77 0.89 0.93 0.91 0.85 0.81 0.75 0.78 0.73 0.63 0.61 0.63 0.63 0.60
0.17 0.18 0.20 0.18 0.19 0.25 0.32 0.34 0.43 0.56 0.74 0.97 0.87 0.67 0.55 0.52 0.48 0.50 0.55 0.49 0.43 0.39 0.37 0.35 0.32 0.32 0.34 0.37 0.45 0.52 0.65 0.81 0.93 0.97 0.92 0.85 0.80 0.70 0.63 0.57 0.50 0.52 0.48 0.47
0.23 0.18 0.08 0.07 0.10 0.16 0.28 0.41 0.54 0.60 0.67 0.69 0.60 0.56 0.42 0.36 0.32 0.32 0.37 0.37 0.36 0.31 0.27 0.24 0.24 0.21 0.23 0.29 0.36 0.36 0.48 0.63 0.74 0.79 0.80 0.81 0.77 0.62 0.54 0.48 0.41 0.39 0.41 0.42
0.10 0.13 0.10 0.07 0.09 0.17 0.40 0.53 0.60 0.59 0.54 0.45 0.42 0.37 0.26 0.24 0.17 0.16 0.21 0.25 0.30 0.28 0.23 0.21 0.20 0.21 0.23 0.30 0.31 0.32 0.41 0.52 0.57 0.61 0.64 0.66 0.61 0.49 0.43 0.35 0.31 0.34 0.35 0.38
0.10 0.13 0.17 0.12 0.13 0.34 0.61 0.51 0.45 0.48 0.37 0.22 0.20 0.20 0.19 0.15 0.11 0.08 0.08 0.11 0.13 0.16 0.16 0.21 0.18 0.17 0.19 0.24 0.29 0.37 0.40 0.41 0.41 0.45 0.49 0.47 0.47 0.42 0.35 0.28 0.28 0.30 0.33 0.37
0.17 0.22 0.25 0.22 0.23 0.42 0.57 0.38 0.34 0.39 0.33 0.16 0.11 0.11 0.09 0.07 0.05 0.03 0.02 0.05 0.06 0.06 0.07 0.10 0.09 0.09 0.10 0.10 0.11 0.14 0.17 0.19 0.23 0.30 0.36 0.40 0.40 0.37 0.31 0.27 0.33 0.40 0.40 0.39
0.30 0.32 0.32 0.31 0.37 0.50 0.39 0.15 0.15 0.27 0.38 0.14 0.06 0.05 0.04 0.03 0.04 0.02 0.02 0.04 0.03 0.02 0.02 0.03 0.03 0.03 0.03 0.02 0.02 0.03 0.05 0.09 0.13 0.19 0.24 0.28 0.31 0.34 0.38 0.46 0.54 0.55 0.52 0.46
0.19 0.25 0.31 0.39 0.56 0.57 0.33 0.13 0.15 0.28 0.40 0.18 0.05 0.02 0.01 0.01 0.01 0.00 0.02 0.03 0.02 0.01 0.00 0.00 0.01 0.01 0.00 0.00 0.00 0.00 0.01 0.02 0.02 0.04 0.10 0.18 0.29 0.35 0.44 0.56 0.59 0.58 0.52 0.44
0.18 0.28 0.38 0.50 0.66 0.74 0.38 0.19 0.21 0.19 0.13 0.10 0.04 0.01 0.01 0.00 0.00 0.00 0.01 0.01 0.01 0.01 0.00 0.00 0.00 0.00 0.00 0.00 0.00 0.00 0.00 0.00 0.01 0.03 0.07 0.13 0.20 0.29 0.42 0.51 0.50 0.50 0.49 0.46
0.18 0.33 0.45 0.50 0.56 0.47 0.28 0.16 0.11 0.08 0.08 0.03 0.01 0.01 0.00 0.00 0.00 0.00 0.01 0.01 0.01 0.01 0.00 0.00 0.00 0.00 0.00 0.00 0.00 0.00 0.00 0.00 0.00 0.01 0.02 0.06 0.11 0.22 0.36 0.39 0.39 0.42 0.45 0.44
0.08 0.11 0.18 0.20 0.15 0.14 0.11 0.08 0.04 0.03 0.04 0.01 0.00 0.00 0.00 0.00 0.00 0.00 0.00 0.01 0.00 0.00 0.00 0.00 0.00 0.00 0.00 0.00 0.00 0.00 0.00 0.00 0.00 0.00 0.00 0.01 0.02 0.05 0.10 0.15 0.20 0.26 0.31 0.33
0.09 0.10 0.17 0.20 0.10 0.05 0.04 0.04 0.02 0.02 0.02 0.01 0.00 0.00 0.00 0.00 0.00 0.00 0.00 0.00 0.00 0.00 0.00 0.00 0.00 0.00 0.00 0.00 0.00 0.00 0.00 0.00 0.00 0.00 0.00 0.01 0.02 0.03 0.04 0.06 0.09 0.12 0.15 0.19
0.05 0.12 0.16 0.20 0.12 0.06 0.04 0.03 0.02 0.02 0.01 0.01 0.00 0.00 0.00 0.00 0.00 0.00 0.00 0.00 0.00 0.00 0.00 0.00 0.00 0.00 0.00 0.00 0.00 0.00 0.00 0.00 0.00 0.00 0.00 0.00 0.01 0.01 0.01 0.02 0.03 0.04 0.06 0.09

GEFSCGP_prec_meanprecacc_120.txt.gz
Total_Precipitation_Accumulation
0.19 0.34 0.52 0.47 0.50 0.51 0.39 0.32 0.33 0.34 0.26 0.27 0.30 0.25 0.23 0.22 0.22 0.20 0.18 0.16 0.15 0.14 0.15 0.14 0.14 0.17 0.20 0.25 0.31 0.37 0.54 0.70 0.86 0.98 1.13 1.38 1.54 1.64 1.63 1.63 1.70 1.62 1.43 1.52
0.29 0.31 0.28 0.32 0.36 0.35 0.32 0.28 0.29 0.29 0.22 0.19 0.18 0.17 0.15 0.14 0.16 0.17 0.16 0.15 0.13 0.10 0.08 0.06 0.07 0.09 0.12 0.16 0.22 0.30 0.44 0.67 0.92 1.15 1.33 1.52 1.84 2.00 2.00 2.06 2.01 1.96 1.84 1.86
0.25 0.25 0.24 0.25 0.27 0.27 0.26 0.23 0.23 0.25 0.24 0.17 0.12 0.13 0.12 0.13 0.13 0.12 0.11 0.11 0.10 0.08 0.07 0.06 0.05 0.06 0.07 0.09 0.14 0.21 0.34 0.57 0.88 1.19 1.45 1.64 1.88 2.14 2.24 2.15 2.10 2.13 2.21 2.25
0.26 0.24 0.18 0.18 0.20 0.23 0.29 0.19 0.17 0.17 0.22 0.20 0.14 0.19 0.16 0.16 0.16 0.14 0.13 0.13 0.13 0.11 0.10 0.09 0.06 0.06 0.07 0.10 0.13 0.17 0.32 0.48 0.72 0.99 1.32 1.57 1.84 2.15 2.22 2.20 2.17 2.21 2.33 2.41
0.24 0.21 0.16 0.15 0.16 0.17 0.22 0.14 0.13 0.15 0.17 0.16 0.13 0.18 0.19 0.17 0.20 0.20 0.20 0.21 0.18 0.15 0.15 0.12 0.10 0.10 0.12 0.15 0.18 0.24 0.38 0.53 0.74 0.98 1.30 1.63 1.82 1.99 2.19 2.20 2.11 2.05 2.11 2.12
0.24 0.18 0.14 0.11 0.12 0.12 0.16 0.12 0.09 0.08 0.11 0.12 0.08 0.16 0.26 0.24 0.23 0.20 0.22 0.22 0.17 0.14 0.15 0.17 0.21 0.22 0.22 0.24 0.30 0.38 0.50 0.72 0.87 0.97 1.12 1.29 1.50 1.78 1.92 2.02 2.06 2.07 2.06 1.93
0.18 0.14 0.09 0.08 0.10 0.10 0.09 0.13 0.18 0.17 0.19 0.16 0.11 0.21 0.33 0.27 0.22 0.22 0.22 0.20 0.19 0.21 0.25 0.33 0.43 0.40 0.37 0.40 0.49 0.56 0.63 0.73 0.79 0.78 0.87 1.00 1.16 1.38 1.52 1.61 1.80 1.87 1.91 1.85
0.13 0.09 0.07 0.05 0.05 0.06 0.05 0.09 0.21 0.26 0.26 0.23 0.26 0.40 0.44 0.35 0.28 0.24 0.21 0.19 0.21 0.29 0.39 0.54 0.65 0.70 0.64 0.62 0.64 0.62 0.63 0.60 0.62 0.66 0.73 0.80 0.87 1.01 1.13 1.21 1.37 1.49 1.49 1.46
0.11 0.07 0.05 0.04 0.03 0.04 0.04 0.05 0.09 0.17 0.18 0.22 0.34 0.51 0.51 0.35 0.29 0.27 0.26 0.23 0.29 0.42 0.57 0.73 0.86 0.93 0.87 0.78 0.72 0.68 0.68 0.65 0.58 0.60 0.69 0.75 0.80 0.81 0.85 0.89 0.88 0.97 1.05 1.08
0.12 0.09 0.04 0.03 0.03 0.04 0.04 0.06 0.10 0.22 0.34 0.37 0.39 0.52 0.60 0.49 0.38 0.36 0.38 0.44 0.55 0.73 0.80 0.91 0.98 0.97 0.96 1.00 0.93 0.77 0.71 0.71 0.66 0.73 0.75 0.72 0.71 0.69 0.67 0.71 0.77 0.78 0.86 0.97
0.14 0.14 0.07 0.04 0.04 0.07 0.09 0.13 0.20 0.32 0.42 0.56 0.69 0.82 0.69 0.57 0.56 0.54 0.56 0.72 0.82 0.92 1.00 1.02 1.08 1.01 0.89 0.89 0.87 0.84 0.79 0.73 0.75 0.80 0.80 0.70 0.67 0.67 0.67 0.65 0.67 0.76 0.85 0.95
0.20 0.26 0.16 0.05 0.09 0.14 0.23 0.35 0.45 0.62 0.65 0.63 0.86 1.06 0.78 0.64 0.65 0.66 0.65 0.63 0.65 0.83 0.94 0.98 1.04 0.97 0.81 0.77 0.68 0.71 0.79 0.79 0.85 0.86 0.79 0.71 0.71 0.74 0.79 0.77 0.70 0.71 0.77 0.79
0.28 0.42 0.34 0.18 0.24 0.33 0.39 0.48 0.60 0.73 0.83 0.83 0.92 1.05 0.83 0.62 0.58 0.63 0.72 0.70 0.67 0.71 0.73 0.72 0.73 0.80 0.76 0.72 0.64 0.70 0.76 0.81 0.85 0.86 0.84 0.76 0.66 0.69 0.75 0.75 0.68 0.65 0.70 0.74
0.25 0.41 0.47 0.38 0.38 0.44 0.43 0.39 0.45 0.66 0.89 0.92 0.98 0.95 0.74 0.62 0.56 0.59 0.65 0.71 0.66 0.56 0.52 0.50 0.46 0.52 0.55 0.57 0.62 0.66 0.77 0.89 0.93 0.91 0.85 0.82 0.76 0.78 0.73 0.63 0.61 0.63 0.63 0.60
0.17 0.18 0.21 0.19 0.19 0.25 0.33 0.35 0.43 0.56 0.74 0.97 0.87 0.67 0.55 0.52 0.48 0.50 0.55 0.49 0.43 0.39 0.37 0.35 0.32 0.32 0.34 0.37 0.45 0.52 0.65 0.81 0.93 0.97 0.92 0.85 0.80 0.70 0.63 0.57 0.50 0.52 0.48 0.47
0.24 0.18 0.08 0.07 0.10 0.16 0.28 0.41 0.54 0.60 0.67 0.69 0.60 0.56 0.42 0.36 0.32 0.32 0.37 0.37 0.36 0.31 0.27 0.24 0.24 0.21 0.23 0.29 0.36 0.36 0.48 0.63 0.74 0.79 0.80 0.81 0.77 0.62 0.54 0.48 0.41 0.40 0.41 0.42
0.10 0.13 0.10 0.07 0.09 0.17 0.40 0.53 0.60 0.59 0.54 0.45 0.42 0.37 0.26 0.24 0.17 0.16 0.21 0.25 0.30 0.28 0.23 0.21 0.20 0.21 0.23 0.30 0.31 0.32 0.41 0.52 0.57 0.61 0.64 0.66 0.61 0.49 0.43 0.35 0.31 0.34 0.36 0.38
0.10 0.13 0.17 0.12 0.13 0.34 0.62 0.51 0.45 0.48 0.37 0.22 0.20 0.20 0.19 0.15 0.11 0.08 0.08 0.11 0.13 0.16 0.16 0.21 0.18 0.17 0.19 0.24 0.29 0.37 0.40 0.41 0.41 0.45 0.49 0.47 0.47 0.43 0.35 0.28 0.28 0.30 0.33 0.37
0.17 0.22 0.25 0.22 0.23 0.42 0.57 0.38 0.34 0.39 0.33 0.16 0.11 0.11 0.09 0.07 0.05 0.03 0.02 0.05 0.06 0.06 0.07 0.10 0.09 0.09 0.10 0.10 0.11 0.14 0.17 0.19 0.23 0.30 0.36 0.40 0.40 0.37 0.31 0.27 0.33 0.40 0.40 0.39
0.30 0.32 0.32 0.31 0.37 0.50 0.39 0.15 0.15 0.27 0.39 0.14 0.06 0.05 0.04 0.03 0.04 0.02 0.02 0.04 0.03 0.02 0.02 0.03 0.03 0.03 0.03 0.02 0.02 0.03 0.05 0.09 0.13 0.19 0.24 0.28 0.31 0.34 0.38 0.46 0.54 0.55 0.52 0.46
0.19 0.25 0.31 0.39 0.56 0.57 0.33 0.13 0.15 0.28 0.40 0.19 0.05 0.02 0.01 0.01 0.01 0.00 0.02 0.03 0.02 0.01 0.00 0.00 0.01 0.01 0.00 0.00 0.00 0.00 0.01 0.02 0.02 0.04 0.10 0.18 0.29 0.35 0.44 0.56 0.59 0.58 0.52 0.44
0.18 0.28 0.39 0.51 0.66 0.74 0.38 0.19 0.22 0.19 0.13 0.10 0.04 0.01 0.01 0.00 0.00 0.00 0.01 0.01 0.01 0.01 0.00 0.00 0.00 0.00 0.00 0.00 0.00 0.00 0.00 0.00 0.01 0.03 0.07 0.13 0.20 0.29 0.42 0.51 0.50 0.50 0.49 0.46
0.18 0.33 0.45 0.50 0.56 0.48 0.28 0.17 0.12 0.09 0.08 0.03 0.01 0.01 0.00 0.00 0.00 0.00 0.01 0.01 0.01 0.01 0.00 0.00 0.00 0.00 0.00 0.00 0.00 0.00 0.00 0.00 0.00 0.01 0.02 0.06 0.11 0.22 0.36 0.39 0.39 0.42 0.45 0.44
0.08 0.11 0.18 0.20 0.16 0.14 0.11 0.08 0.05 0.03 0.04 0.01 0.00 0.00 0.00 0.00 0.00 0.00 0.00 0.01 0.00 0.00 0.00 0.00 0.00 0.00 0.00 0.00 0.00 0.00 0.00 0.00 0.00 0.00 0.00 0.01 0.02 0.05 0.10 0.15 0.20 0.26 0.32 0.33
0.09 0.10 0.17 0.20 0.10 0.05 0.05 0.04 0.02 0.02 0.02 0.01 0.00 0.00 0.00 0.00 0.00 0.00 0.00 0.00 0.00 0.00 0.00 0.00 0.00 0.00 0.00 0.00 0.00 0.00 0.00 0.00 0.00 0.00 0.00 0.01 0.02 0.03 0.04 0.06 0.09 0.12 0.15 0.19
0.05 0.12 0.16 0.20 0.12 0.06 0.04 0.03 0.02 0.02 0.01 0.01 0.00 0.00 0.00 0.00 0.00 0.00 0.00 0.00 0.00 0.00 0.00 0.00 0.00 0.00 0.00 0.00 0.00 0.00 0.00 0.00 0.00 0.00 0.00 0.00 0.01 0.01 0.01 0.02 0.03 0.04 0.06 0.09

GEFSCGP_prec_meanprecacc_126.txt.gz
Total_Precipitation_Accumulation
0.23 0.43 0.61 0.56 0.61 0.63 0.47 0.41 0.45 0.43 0.35 0.34 0.35 0.30 0.30 0.29 0.26 0.23 0.20 0.17 0.17 0.15 0.15 0.14 0.14 0.17 0.20 0.25 0.31 0.37 0.54 0.70 0.86 0.98 1.13 1.38 1.54 1.64 1.63 1.63 1.70 1.62 1.43 1.52
0.35 0.38 0.35 0.39 0.42 0.45 0.42 0.38 0.38 0.36 0.27 0.24 0.25 0.22 0.20 0.23 0.22 0.20 0.18 0.16 0.13 0.10 0.08 0.06 0.07 0.09 0.12 0.16 0.22 0.30 0.44 0.67 0.92 1.15 1.33 1.52 1.84 2.00 2.00 2.06 2.01 1.96 1.84 1.86
0.29 0.28 0.28 0.33 0.35 0.36 0.36 0.31 0.32 0.32 0.31 0.22 0.18 0.17 0.17 0.18 0.19 0.16 0.12 0.12 0.11 0.08 0.07 0.06 0.05 0.06 0.07 0.09 0.14 0.21 0.34 0.57 0.88 1.19 1.45 1.64 1.88 2.14 2.24 2.15 2.10 2.13 2.21 2.25
0.29 0.27 0.23 0.26 0.26 0.28 0.38 0.25 0.23 0.21 0.25 0.23 0.16 0.22 0.19 0.18 0.19 0.17 0.15 0.14 0.13 0.11 0.10 0.09 0.06 0.06 0.07 0.10 0.13 0.17 0.32 0.48 0.72 0.99 1.32 1.57 1.84 2.15 2.22 2.20 2.17 2.21 2.33 2.41
0.28 0.24 0.21 0.22 0.20 0.22 0.29 0.18 0.16 0.16 0.18 0.17 0.14 0.20 0.20 0.17 0.22 0.22 0.21 0.21 0.18 0.15 0.15 0.13 0.11 0.10 0.12 0.15 0.18 0.24 0.38 0.53 0.74 0.98 1.30 1.63 1.82 1.99 2.19 2.20 2.11 2.05 2.11 2.13
0.28 0.21 0.19 0.18 0.15 0.15 0.18 0.14 0.11 0.10 0.12 0.14 0.09 0.19 0.28 0.24 0.23 0.21 0.22 0.23 0.17 0.14 0.15 0.17 0.21 0.22 0.22 0.24 0.30 0.38 0.50 0.72 0.87 0.97 1.12 1.29 1.50 1.78 1.92 2.02 2.06 2.07 2.06 1.94
0.21 0.16 0.12 0.09 0.12 0.11 0.10 0.15 0.21 0.19 0.21 0.17 0.12 0.23 0.34 0.28 0.23 0.22 0.22 0.20 0.19 0.21 0.26 0.33 0.43 0.40 0.37 0.40 0.49 0.56 0.63 0.73 0.79 0.78 0.87 1.00 1.16 1.38 1.52 1.61 1.80 1.87 1.91 1.85
0.16 0.12 0.09 0.07 0.06 0.07 0.07 0.11 0.24 0.29 0.29 0.25 0.28 0.41 0.44 0.36 0.28 0.24 0.21 0.19 0.22 0.29 0.39 0.54 0.66 0.70 0.64 0.62 0.64 0.62 0.63 0.60 0.62 0.66 0.73 0.80 0.87 1.01 1.13 1.21 1.37 1.49 1.49 1.46
0.14 0.10 0.06 0.05 0.04 0.05 0.06 0.07 0.11 0.20 0.20 0.24 0.35 0.51 0.51 0.36 0.29 0.27 0.26 0.23 0.29 0.42 0.57 0.73 0.86 0.93 0.87 0.79 0.72 0.68 0.68 0.65 0.58 0.60 0.69 0.75 0.80 0.81 0.85 0.89 0.88 0.97 1.05 1.08
0.15 0.11 0.05 0.03 0.03 0.04 0.05 0.07 0.11 0.24 0.36 0.39 0.40 0.53 0.60 0.49 0.38 0.36 0.38 0.44 0.55 0.73 0.80 0.91 0.99 0.97 0.96 1.00 0.94 0.77 0.71 0.71 0.66 0.73 0.75 0.72 0.71 0.69 0.67 0.71 0.77 0.78 0.86 0.97
0.16 0.15 0.08 0.04 0.04 0.07 0.10 0.13 0.21 0.33 0.43 0.57 0.69 0.82 0.69 0.57 0.56 0.54 0.56 0.72 0.82 0.92 1.00 1.02 1.08 1.01 0.89 0.89 0.87 0.84 0.79 0.73 0.75 0.80 0.80 0.70 0.67 0.67 0.67 0.65 0.67 0.76 0.85 0.95
0.21 0.26 0.16 0.06 0.09 0.14 0.23 0.35 0.45 0.62 0.65 0.63 0.86 1.06 0.78 0.64 0.65 0.66 0.65 0.63 0.65 0.83 0.94 0.98 1.04 0.97 0.81 0.77 0.68 0.71 0.79 0.79 0.85 0.86 0.79 0.71 0.71 0.74 0.79 0.77 0.70 0.71 0.77 0.79
0.29 0.43 0.35 0.18 0.25 0.33 0.39 0.49 0.61 0.73 0.84 0.83 0.92 1.06 0.83 0.62 0.58 0.63 0.72 0.70 0.67 0.71 0.73 0.72 0.73 0.80 0.76 0.72 0.64 0.70 0.76 0.81 0.85 0.86 0.84 0.76 0.66 0.69 0.75 0.75 0.68 0.65 0.70 0.74
0.26 0.42 0.49 0.39 0.38 0.44 0.43 0.40 0.45 0.67 0.90 0.92 0.98 0.95 0.74 0.62 0.57 0.59 0.65 0.71 0.66 0.56 0.52 0.50 0.46 0.52 0.55 0.57 0.62 0.66 0.77 0.89 0.93 0.91 0.85 0.82 0.76 0.78 0.73 0.64 0.61 0.63 0.63 0.61
0.18 0.19 0.21 0.20 0.19 0.25 0.33 0.35 0.43 0.57 0.75 0.97 0.87 0.67 0.55 0.52 0.48 0.50 0.55 0.49 0.43 0.39 0.37 0.35 0.32 0.32 0.34 0.37 0.45 0.52 0.65 0.81 0.93 0.97 0.92 0.85 0.80 0.70 0.63 0.57 0.51 0.52 0.48 0.47
0.24 0.18 0.08 0.07 0.10 0.16 0.28 0.41 0.54 0.60 0.67 0.69 0.61 0.56 0.42 0.36 0.32 0.32 0.37 0.37 0.36 0.31 0.27 0.24 0.24 0.21 0.23 0.29 0.36 0.36 0.48 0.63 0.74 0.79 0.80 0.81 0.77 0.62 0.54 0.48 0.41 0.40 0.41 0.42
0.10 0.13 0.10 0.07 0.09 0.17 0.40 0.53 0.60 0.59 0.54 0.46 0.42 0.38 0.27 0.24 0.17 0.17 0.22 0.25 0.30 0.28 0.23 0.21 0.20 0.21 0.23 0.30 0.31 0.32 0.41 0.52 0.57 0.61 0.64 0.66 0.61 0.49 0.43 0.35 0.31 0.34 0.36 0.38
0.10 0.13 0.17 0.12 0.13 0.34 0.62 0.51 0.45 0.48 0.37 0.23 0.21 0.21 0.19 0.15 0.11 0.08 0.09 0.11 0.13 0.16 0.16 0.21 0.18 0.17 0.19 0.24 0.29 0.37 0.40 0.41 0.41 0.45 0.49 0.47 0.47 0.43 0.35 0.28 0.28 0.30 0.34 0.37
0.17 0.22 0.25 0.22 0.23 0.42 0.57 0.38 0.34 0.39 0.34 0.16 0.12 0.12 0.09 0.07 0.05 0.03 0.03 0.05 0.06 0.06 0.07 0.10 0.09 0.09 0.10 0.10 0.11 0.14 0.17 0.19 0.23 0.30 0.36 0.40 0.40 0.37 0.31 0.27 0.33 0.40 0.40 0.39
0.30 0.32 0.32 0.31 0.37 0.50 0.39 0.15 0.15 0.28 0.39 0.15 0.07 0.06 0.04 0.04 0.04 0.02 0.02 0.04 0.03 0.02 0.02 0.03 0.03 0.03 0.03 0.02 0.02 0.03 0.05 0.09 0.13 0.19 0.24 0.28 0.31 0.34 0.38 0.46 0.54 0.55 0.52 0.46
0.19 0.25 0.31 0.39 0.57 0.58 0.34 0.13 0.15 0.29 0.41 0.21 0.07 0.02 0.02 0.02 0.01 0.01 0.02 0.03 0.02 0.01 0.00 0.00 0.01 0.01 0.00 0.00 0.00 0.00 0.01 0.02 0.02 0.04 0.10 0.18 0.29 0.35 0.44 0.56 0.59 0.58 0.52 0.44
0.18 0.28 0.39 0.51 0.67 0.75 0.38 0.20 0.22 0.21 0.14 0.11 0.05 0.02 0.01 0.01 0.00 0.00 0.01 0.02 0.01 0.01 0.00 0.00 0.00 0.00 0.00 0.00 0.00 0.00 0.00 0.00 0.01 0.03 0.07 0.13 0.20 0.29 0.42 0.51 0.50 0.50 0.49 0.46
0.18 0.33 0.45 0.50 0.56 0.48 0.28 0.18 0.13 0.09 0.09 0.04 0.02 0.01 0.01 0.00 0.00 0.00 0.01 0.01 0.01 0.01 0.00 0.00 0.00 0.00 0.00 0.00 0.00 0.00 0.00 0.00 0.00 0.01 0.02 0.06 0.11 0.22 0.36 0.39 0.39 0.42 0.45 0.44
0.08 0.11 0.18 0.20 0.16 0.14 0.12 0.09 0.05 0.03 0.04 0.01 0.01 0.01 0.01 0.01 0.00 0.00 0.00 0.01 0.00 0.00 0.00 0.00 0.00 0.00 0.00 0.00 0.00 0.00 0.00 0.00 0.00 0.00 0.00 0.01 0.02 0.05 0.10 0.15 0.20 0.26 0.32 0.33
0.09 0.10 0.17 0.21 0.10 0.05 0.05 0.04 0.03 0.02 0.02 0.01 0.00 0.00 0.00 0.01 0.00 0.00 0.00 0.00 0.00 0.00 0.00 0.00 0.00 0.00 0.00 0.00 0.00 0.00 0.00 0.00 0.00 0.00 0.00 0.01 0.02 0.03 0.04 0.06 0.09 0.12 0.15 0.19
0.05 0.12 0.17 0.20 0.13 0.06 0.04 0.03 0.02 0.02 0.01 0.01 0.01 0.00 0.00 0.00 0.00 0.00 0.00 0.00 0.00 0.00 0.00 0.00 0.00 0.00 0.00 0.00 0.00 0.00 0.00 0.00 0.00 0.00 0.00 0.00 0.01 0.01 0.01 0.02 0.03 0.04 0.06 0.09

GEFSCGP_prec_meanprecacc_132.txt.gz
Total_Precipitation_Accumulation
0.25 0.45 0.62 0.57 0.63 0.66 0.50 0.43 0.47 0.45 0.36 0.36 0.37 0.31 0.32 0.31 0.28 0.25 0.22 0.19 0.17 0.15 0.16 0.14 0.14 0.17 0.20 0.25 0.31 0.37 0.54 0.70 0.86 0.98 1.13 1.38 1.54 1.64 1.63 1.63 1.70 1.62 1.43 1.52
0.37 0.39 0.36 0.40 0.43 0.47 0.45 0.41 0.41 0.38 0.28 0.26 0.25 0.22 0.21 0.24 0.24 0.21 0.18 0.17 0.14 0.10 0.08 0.06 0.07 0.10 0.12 0.16 0.22 0.30 0.44 0.67 0.92 1.15 1.33 1.52 1.84 2.00 2.00 2.06 2.01 1.96 1.84 1.86
0.30 0.29 0.29 0.34 0.37 0.38 0.39 0.33 0.33 0.34 0.33 0.23 0.19 0.18 0.17 0.19 0.20 0.17 0.13 0.13 0.11 0.08 0.07 0.06 0.05 0.06 0.07 0.09 0.14 0.21 0.34 0.57 0.88 1.19 1.45 1.64 1.88 2.14 2.24 2.15 2.10 2.13 2.21 2.26
0.31 0.28 0.25 0.28 0.28 0.32 0.41 0.27 0.25 0.22 0.26 0.24 0.17 0.22 0.20 0.19 0.20 0.18 0.15 0.14 0.13 0.11 0.10 0.09 0.07 0.06 0.07 0.10 0.13 0.17 0.32 0.48 0.72 0.99 1.32 1.57 1.84 2.15 2.22 2.20 2.17 2.21 2.33 2.42
0.30 0.27 0.23 0.24 0.23 0.24 0.32 0.20 0.17 0.17 0.19 0.18 0.14 0.20 0.20 0.18 0.23 0.22 0.21 0.21 0.19 0.15 0.15 0.13 0.11 0.11 0.12 0.15 0.18 0.24 0.38 0.53 0.74 0.98 1.30 1.63 1.82 1.99 2.19 2.20 2.11 2.05 2.11 2.13
0.30 0.24 0.20 0.20 0.18 0.16 0.20 0.16 0.13 0.11 0.12 0.14 0.09 0.19 0.28 0.24 0.23 0.21 0.22 0.23 0.17 0.14 0.15 0.17 0.21 0.22 0.22 0.24 0.30 0.38 0.50 0.72 0.87 0.97 1.12 1.29 1.50 1.78 1.92 2.02 2.06 2.07 2.06 1.94
0.22 0.18 0.13 0.11 0.15 0.13 0.12 0.16 0.22 0.20 0.21 0.17 0.12 0.23 0.34 0.28 0.23 0.22 0.22 0.20 0.19 0.21 0.26 0.33 0.43 0.40 0.37 0.40 0.49 0.56 0.63 0.73 0.79 0.78 0.87 1.00 1.16 1.38 1.52 1.61 1.80 1.87 1.91 1.85
0.16 0.13 0.11 0.09 0.08 0.08 0.08 0.11 0.24 0.30 0.29 0.25 0.28 0.41 0.44 0.36 0.28 0.24 0.21 0.19 0.22 0.29 0.39 0.54 0.66 0.70 0.64 0.62 0.64 0.62 0.63 0.60 0.62 0.66 0.73 0.80 0.87 1.01 1.13 1.21 1.37 1.49 1.49 1.47
0.14 0.10 0.07 0.06 0.05 0.06 0.06 0.07 0.11 0.20 0.20 0.24 0.35 0.51 0.51 0.36 0.29 0.27 0.26 0.23 0.29 0.42 0.57 0.73 0.86 0.93 0.87 0.79 0.72 0.68 0.68 0.65 0.58 0.60 0.69 0.75 0.80 0.81 0.85 0.89 0.88 0.97 1.05 1.08
0.15 0.11 0.06 0.04 0.04 0.05 0.06 0.08 0.12 0.24 0.36 0.39 0.40 0.53 0.60 0.50 0.38 0.36 0.38 0.44 0.55 0.73 0.80 0.91 0.99 0.97 0.96 1.00 0.94 0.77 0.71 0.71 0.66 0.73 0.75 0.72 0.71 0.69 0.67 0.71 0.77 0.78 0.86 0.97
0.16 0.15 0.08 0.04 0.04 0.08 0.10 0.14 0.21 0.34 0.43 0.57 0.69 0.82 0.70 0.57 0.56 0.54 0.56 0.72 0.82 0.93 1.00 1.02 1.08 1.01 0.89 0.89 0.87 0.85 0.79 0.74 0.75 0.80 0.80 0.70 0.67 0.67 0.67 0.65 0.67 0.76 0.85 0.95
0.21 0.26 0.16 0.06 0.09 0.14 0.23 0.36 0.46 0.63 0.65 0.63 0.87 1.06 0.78 0.64 0.65 0.66 0.65 0.63 0.65 0.83 0.95 0.98 1.04 0.97 0.81 0.77 0.68 0.71 0.79 0.79 0.85 0.86 0.79 0.71 0.71 0.74 0.79 0.77 0.70 0.71 0.77 0.79
0.29 0.43 0.35 0.19 0.25 0.33 0.39 0.49 0.61 0.73 0.84 0.83 0.92 1.06 0.83 0.62 0.58 0.63 0.72 0.70 0.67 0.71 0.73 0.72 0.73 0.80 0.76 0.72 0.65 0.70 0.76 0.81 0.85 0.86 0.84 0.76 0.66 0.69 0.75 0.75 0.68 0.65 0.70 0.74
0.26 0.42 0.49 0.39 0.38 0.44 0.43 0.40 0.45 0.67 0.90 0.92 0.98 0.95 0.74 0.62 0.57 0.59 0.65 0.71 0.66 0.56 0.52 0.50 0.46 0.52 0.55 0.57 0.62 0.66 0.77 0.89 0.93 0.91 0.85 0.82 0.76 0.78 0.73 0.64 0.61 0.63 0.63 0.61
0.18 0.19 0.21 0.20 0.19 0.25 0.33 0.35 0.43 0.57 0.75 0.97 0.87 0.67 0.55 0.52 0.48 0.50 0.55 0.49 0.43 0.39 0.37 0.35 0.32 0.32 0.34 0.37 0.45 0.52 0.65 0.81 0.93 0.97 0.92 0.85 0.80 0.70 0.63 0.57 0.51 0.52 0.48 0.47
0.24 0.18 0.08 0.07 0.10 0.16 0.28 0.41 0.54 0.60 0.67 0.69 0.61 0.57 0.42 0.36 0.32 0.32 0.37 0.37 0.36 0.31 0.27 0.24 0.24 0.21 0.23 0.29 0.36 0.36 0.48 0.63 0.74 0.79 0.80 0.81 0.77 0.62 0.54 0.48 0.41 0.40 0.41 0.42
0.10 0.13 0.10 0.07 0.09 0.17 0.40 0.53 0.60 0.59 0.54 0.46 0.43 0.38 0.27 0.24 0.17 0.17 0.22 0.25 0.30 0.28 0.23 0.21 0.20 0.21 0.23 0.30 0.31 0.32 0.41 0.52 0.57 0.61 0.64 0.66 0.61 0.49 0.43 0.35 0.31 0.34 0.36 0.38
0.10 0.13 0.17 0.12 0.13 0.34 0.62 0.51 0.45 0.48 0.38 0.24 0.21 0.21 0.19 0.15 0.11 0.08 0.09 0.11 0.13 0.16 0.16 0.21 0.18 0.17 0.19 0.24 0.29 0.37 0.40 0.41 0.41 0.45 0.49 0.47 0.47 0.43 0.35 0.28 0.28 0.30 0.34 0.37
0.17 0.22 0.25 0.22 0.23 0.42 0.57 0.38 0.34 0.39 0.34 0.17 0.12 0.12 0.09 0.07 0.06 0.03 0.03 0.05 0.06 0.06 0.07 0.10 0.09 0.09 0.10 0.10 0.11 0.14 0.17 0.19 0.23 0.30 0.36 0.40 0.40 0.37 0.31 0.27 0.33 0.40 0.40 0.39
0.30 0.32 0.32 0.31 0.37 0.50 0.39 0.15 0.15 0.28 0.40 0.15 0.07 0.06 0.05 0.04 0.05 0.02 0.03 0.04 0.03 0.02 0.02 0.03 0.03 0.03 0.03 0.02 0.02 0.03 0.05 0.09 0.13 0.19 0.24 0.28 0.31 0.34 0.38 0.46 0.54 0.55 0.52 0.46
0.19 0.25 0.31 0.39 0.57 0.58 0.34 0.13 0.16 0.29 0.42 0.21 0.07 0.03 0.02 0.02 0.02 0.01 0.02 0.03 0.02 0.01 0.01 0.01 0.01 0.01 0.00 0.00 0.00 0.00 0.01 0.02 0.02 0.04 0.10 0.18 0.29 0.35 0.44 0.56 0.59 0.58 0.52 0.44
0.18 0.28 0.39 0.51 0.67 0.75 0.38 0.20 0.23 0.21 0.14 0.11 0.05 0.02 0.01 0.01 0.01 0.01 0.01 0.02 0.01 0.01 0.01 0.00 0.00 0.00 0.00 0.00 0.00 0.00 0.00 0.00 0.01 0.03 0.07 0.13 0.20 0.29 0.42 0.51 0.50 0.50 0.49 0.46
0.18 0.33 0.45 0.50 0.56 0.48 0.28 0.18 0.13 0.09 0.09 0.04 0.02 0.01 0.01 0.00 0.00 0.01 0.01 0.02 0.01 0.01 0.01 0.00 0.00 0.00 0.00 0.00 0.00 0.00 0.00 0.00 0.00 0.01 0.02 0.06 0.11 0.22 0.36 0.39 0.39 0.42 0.45 0.44
0.08 0.11 0.18 0.20 0.16 0.14 0.12 0.09 0.05 0.03 0.04 0.01 0.01 0.01 0.01 0.01 0.00 0.00 0.01 0.01 0.01 0.01 0.01 0.00 0.00 0.00 0.00 0.00 0.00 0.00 0.00 0.00 0.00 0.00 0.00 0.01 0.02 0.05 0.10 0.15 0.20 0.26 0.32 0.33
0.09 0.10 0.17 0.21 0.10 0.05 0.05 0.04 0.03 0.02 0.02 0.01 0.00 0.00 0.00 0.01 0.00 0.00 0.00 0.01 0.01 0.01 0.01 0.00 0.00 0.00 0.00 0.00 0.00 0.00 0.00 0.00 0.00 0.00 0.00 0.01 0.02 0.03 0.04 0.06 0.09 0.12 0.15 0.19
0.05 0.12 0.17 0.20 0.13 0.06 0.04 0.03 0.02 0.02 0.01 0.01 0.01 0.00 0.00 0.00 0.00 0.00 0.00 0.00 0.00 0.01 0.01 0.01 0.00 0.00 0.00 0.00 0.00 0.00 0.00 0.00 0.00 0.00 0.00 0.00 0.01 0.01 0.01 0.02 0.03 0.04 0.06 0.09

GEFSCGP_prec_meanprecacc_138.txt.gz
Total_Precipitation_Accumulation
0.26 0.46 0.65 0.59 0.64 0.67 0.51 0.44 0.48 0.46 0.37 0.37 0.39 0.32 0.33 0.32 0.29 0.26 0.22 0.19 0.18 0.16 0.16 0.14 0.14 0.17 0.20 0.25 0.31 0.37 0.54 0.70 0.86 0.98 1.13 1.38 1.54 1.64 1.63 1.63 1.70 1.62 1.43 1.52
0.38 0.41 0.37 0.41 0.44 0.48 0.46 0.42 0.42 0.39 0.29 0.27 0.27 0.23 0.22 0.25 0.24 0.21 0.19 0.17 0.14 0.11 0.08 0.06 0.07 0.10 0.12 0.16 0.22 0.30 0.44 0.67 0.92 1.15 1.33 1.52 1.84 2.00 2.00 2.06 2.01 1.96 1.85 1.86
0.31 0.31 0.30 0.35 0.38 0.39 0.40 0.34 0.34 0.35 0.34 0.24 0.20 0.19 0.18 0.19 0.20 0.18 0.14 0.13 0.11 0.08 0.07 0.06 0.05 0.06 0.07 0.09 0.14 0.21 0.34 0.57 0.88 1.19 1.45 1.64 1.88 2.14 2.24 2.15 2.10 2.13 2.21 2.26
0.32 0.29 0.26 0.29 0.29 0.33 0.44 0.28 0.25 0.23 0.27 0.26 0.18 0.24 0.21 0.19 0.20 0.19 0.16 0.15 0.13 0.11 0.10 0.09 0.07 0.06 0.07 0.10 0.13 0.17 0.32 0.48 0.72 0.99 1.32 1.57 1.84 2.15 2.22 2.20 2.17 2.21 2.33 2.42
0.31 0.27 0.24 0.25 0.23 0.25 0.34 0.21 0.18 0.19 0.20 0.19 0.15 0.21 0.21 0.18 0.23 0.23 0.22 0.22 0.19 0.15 0.15 0.13 0.11 0.11 0.12 0.15 0.18 0.25 0.38 0.54 0.74 0.98 1.30 1.63 1.82 1.99 2.19 2.20 2.11 2.05 2.11 2.13
0.32 0.25 0.21 0.20 0.19 0.17 0.22 0.18 0.14 0.12 0.14 0.15 0.09 0.20 0.28 0.25 0.24 0.21 0.23 0.23 0.17 0.14 0.15 0.17 0.21 0.22 0.22 0.24 0.30 0.38 0.51 0.72 0.87 0.97 1.12 1.29 1.50 1.78 1.92 2.02 2.06 2.07 2.06 1.94
0.24 0.19 0.14 0.12 0.16 0.15 0.14 0.19 0.24 0.23 0.24 0.19 0.12 0.23 0.34 0.28 0.23 0.22 0.22 0.20 0.19 0.21 0.26 0.33 0.43 0.40 0.37 0.40 0.49 0.56 0.63 0.74 0.79 0.78 0.87 1.00 1.16 1.38 1.52 1.61 1.80 1.87 1.91 1.86
0.18 0.14 0.12 0.10 0.09 0.10 0.09 0.13 0.26 0.31 0.31 0.26 0.28 0.41 0.44 0.36 0.28 0.24 0.21 0.19 0.22 0.29 0.39 0.54 0.66 0.70 0.64 0.62 0.64 0.62 0.63 0.60 0.62 0.66 0.73 0.80 0.87 1.01 1.13 1.21 1.37 1.49 1.49 1.47
0.15 0.11 0.07 0.06 0.06 0.07 0.07 0.07 0.11 0.20 0.21 0.24 0.35 0.52 0.51 0.36 0.29 0.27 0.26 0.23 0.29 0.42 0.57 0.73 0.86 0.93 0.88 0.79 0.72 0.68 0.68 0.65 0.58 0.61 0.69 0.75 0.80 0.82 0.85 0.89 0.88 0.97 1.05 1.08
0.15 0.12 0.06 0.04 0.04 0.05 0.06 0.08 0.12 0.24 0.36 0.39 0.41 0.53 0.60 0.50 0.38 0.36 0.38 0.44 0.55 0.73 0.80 0.91 0.99 0.98 0.96 1.00 0.94 0.77 0.71 0.71 0.66 0.73 0.75 0.72 0.71 0.69 0.67 0.71 0.77 0.78 0.87 0.97
0.16 0.16 0.09 0.05 0.05 0.08 0.11 0.14 0.22 0.34 0.44 0.59 0.71 0.83 0.70 0.57 0.56 0.54 0.56 0.72 0.82 0.93 1.00 1.02 1.08 1.02 0.89 0.89 0.87 0.85 0.79 0.74 0.75 0.80 0.80 0.70 0.67 0.67 0.67 0.65 0.67 0.76 0.85 0.95
0.21 0.26 0.17 0.06 0.09 0.14 0.24 0.36 0.46 0.63 0.66 0.63 0.87 1.07 0.79 0.64 0.65 0.66 0.65 0.63 0.65 0.83 0.95 0.98 1.05 0.97 0.81 0.77 0.68 0.72 0.79 0.80 0.85 0.86 0.80 0.71 0.71 0.74 0.79 0.77 0.70 0.71 0.77 0.79
0.29 0.43 0.36 0.19 0.25 0.33 0.39 0.49 0.61 0.73 0.84 0.83 0.92 1.06 0.84 0.62 0.58 0.63 0.72 0.70 0.67 0.71 0.73 0.72 0.74 0.80 0.76 0.72 0.65 0.70 0.76 0.81 0.85 0.86 0.84 0.76 0.66 0.69 0.75 0.75 0.68 0.65 0.70 0.74
0.26 0.42 0.49 0.39 0.39 0.44 0.43 0.40 0.45 0.67 0.90 0.93 0.98 0.95 0.74 0.62 0.57 0.59 0.65 0.71 0.66 0.56 0.52 0.50 0.46 0.52 0.55 0.57 0.62 0.66 0.77 0.89 0.93 0.91 0.85 0.82 0.76 0.78 0.73 0.64 0.61 0.63 0.63 0.61
0.18 0.19 0.21 0.20 0.19 0.25 0.33 0.35 0.43 0.57 0.75 0.97 0.87 0.67 0.55 0.52 0.48 0.50 0.55 0.49 0.43 0.39 0.37 0.35 0.32 0.32 0.34 0.37 0.45 0.52 0.65 0.81 0.93 0.97 0.92 0.85 0.80 0.70 0.63 0.57 0.51 0.52 0.48 0.47
0.24 0.18 0.08 0.07 0.10 0.16 0.28 0.41 0.54 0.60 0.67 0.69 0.61 0.57 0.42 0.36 0.32 0.32 0.37 0.37 0.36 0.31 0.27 0.24 0.24 0.21 0.23 0.29 0.36 0.36 0.48 0.63 0.74 0.79 0.80 0.81 0.77 0.62 0.54 0.48 0.41 0.40 0.41 0.42
0.10 0.13 0.10 0.07 0.09 0.17 0.40 0.53 0.60 0.59 0.55 0.46 0.43 0.38 0.27 0.24 0.17 0.17 0.22 0.25 0.30 0.28 0.23 0.21 0.20 0.21 0.23 0.30 0.31 0.32 0.41 0.52 0.57 0.61 0.64 0.66 0.61 0.49 0.43 0.35 0.31 0.34 0.36 0.38
0.10 0.13 0.17 0.12 0.13 0.34 0.62 0.51 0.45 0.48 0.38 0.24 0.21 0.21 0.19 0.15 0.11 0.08 0.09 0.11 0.13 0.16 0.16 0.21 0.18 0.17 0.19 0.24 0.29 0.37 0.40 0.41 0.41 0.45 0.49 0.47 0.47 0.43 0.35 0.28 0.28 0.30 0.34 0.37
0.17 0.22 0.26 0.22 0.23 0.42 0.57 0.38 0.34 0.39 0.35 0.17 0.12 0.12 0.09 0.07 0.06 0.03 0.03 0.05 0.06 0.06 0.07 0.10 0.09 0.09 0.10 0.10 0.11 0.14 0.17 0.19 0.23 0.30 0.36 0.40 0.40 0.37 0.31 0.27 0.33 0.40 0.40 0.39
0.30 0.32 0.32 0.31 0.37 0.50 0.39 0.15 0.15 0.28 0.40 0.15 0.07 0.06 0.05 0.04 0.05 0.02 0.03 0.04 0.03 0.02 0.02 0.03 0.03 0.03 0.03 0.02 0.02 0.03 0.05 0.09 0.13 0.19 0.24 0.28 0.31 0.34 0.38 0.46 0.54 0.56 0.52 0.46
0.19 0.25 0.31 0.39 0.57 0.58 0.34 0.13 0.16 0.29 0.42 0.21 0.07 0.03 0.02 0.02 0.02 0.01 0.02 0.03 0.02 0.01 0.01 0.01 0.01 0.01 0.01 0.00 0.00 0.00 0.01 0.02 0.02 0.04 0.10 0.18 0.29 0.35 0.44 0.56 0.59 0.58 0.52 0.44
0.18 0.28 0.39 0.51 0.67 0.75 0.38 0.20 0.23 0.21 0.14 0.11 0.05 0.02 0.01 0.01 0.01 0.01 0.01 0.02 0.01 0.01 0.01 0.00 0.00 0.00 0.00 0.00 0.00 0.00 0.00 0.00 0.01 0.03 0.07 0.13 0.20 0.29 0.42 0.51 0.51 0.50 0.49 0.46
0.18 0.33 0.45 0.50 0.56 0.48 0.28 0.18 0.13 0.09 0.09 0.04 0.02 0.01 0.01 0.00 0.00 0.01 0.01 0.02 0.01 0.01 0.01 0.00 0.00 0.00 0.00 0.00 0.00 0.00 0.00 0.00 0.00 0.01 0.02 0.06 0.11 0.22 0.36 0.39 0.39 0.42 0.45 0.44
0.08 0.11 0.18 0.20 0.16 0.14 0.12 0.09 0.05 0.03 0.04 0.01 0.01 0.01 0.01 0.01 0.00 0.00 0.01 0.01 0.01 0.01 0.01 0.00 0.00 0.00 0.00 0.00 0.00 0.00 0.00 0.00 0.00 0.00 0.00 0.01 0.02 0.05 0.10 0.15 0.20 0.26 0.32 0.33
0.09 0.10 0.17 0.21 0.10 0.05 0.05 0.04 0.03 0.02 0.02 0.01 0.00 0.00 0.00 0.01 0.00 0.00 0.00 0.01 0.01 0.01 0.01 0.00 0.00 0.00 0.00 0.00 0.00 0.00 0.00 0.00 0.00 0.00 0.00 0.01 0.02 0.03 0.04 0.06 0.09 0.13 0.16 0.19
0.05 0.12 0.17 0.20 0.13 0.06 0.04 0.03 0.02 0.02 0.01 0.01 0.01 0.00 0.00 0.00 0.00 0.00 0.00 0.00 0.00 0.01 0.01 0.01 0.00 0.00 0.00 0.00 0.00 0.00 0.00 0.00 0.00 0.00 0.00 0.00 0.01 0.01 0.01 0.02 0.03 0.04 0.06 0.09

GEFSCGP_prec_meanprecacc_144.txt.gz
Total_Precipitation_Accumulation
0.27 0.49 0.69 0.61 0.66 0.69 0.53 0.48 0.53 0.49 0.39 0.40 0.43 0.35 0.34 0.33 0.30 0.27 0.25 0.22 0.19 0.17 0.17 0.14 0.14 0.17 0.20 0.25 0.31 0.37 0.54 0.70 0.86 0.98 1.13 1.38 1.54 1.64 1.63 1.63 1.70 1.62 1.44 1.52
0.41 0.46 0.38 0.42 0.45 0.49 0.49 0.47 0.48 0.42 0.30 0.29 0.30 0.26 0.23 0.25 0.24 0.22 0.20 0.20 0.16 0.12 0.09 0.08 0.07 0.10 0.12 0.16 0.22 0.30 0.44 0.67 0.92 1.15 1.33 1.52 1.84 2.00 2.00 2.06 2.01 1.96 1.85 1.87
0.35 0.35 0.31 0.35 0.38 0.41 0.43 0.39 0.39 0.37 0.35 0.25 0.23 0.25 0.22 0.20 0.21 0.18 0.15 0.14 0.12 0.09 0.07 0.06 0.05 0.06 0.07 0.09 0.14 0.21 0.34 0.57 0.88 1.19 1.45 1.64 1.88 2.14 2.24 2.15 2.10 2.13 2.21 2.26
0.34 0.31 0.26 0.30 0.30 0.34 0.47 0.29 0.27 0.24 0.30 0.31 0.22 0.33 0.26 0.22 0.22 0.19 0.17 0.16 0.14 0.11 0.11 0.09 0.07 0.06 0.07 0.10 0.13 0.17 0.32 0.48 0.72 0.99 1.32 1.57 1.84 2.15 2.22 2.20 2.17 2.21 2.33 2.42
0.32 0.28 0.25 0.28 0.25 0.27 0.36 0.22 0.19 0.20 0.22 0.22 0.18 0.29 0.25 0.20 0.25 0.24 0.24 0.23 0.19 0.16 0.15 0.13 0.11 0.11 0.13 0.15 0.18 0.25 0.38 0.54 0.74 0.98 1.30 1.63 1.82 1.99 2.19 2.20 2.11 2.05 2.12 2.14
0.33 0.26 0.24 0.22 0.19 0.18 0.23 0.19 0.16 0.15 0.18 0.22 0.12 0.24 0.30 0.25 0.24 0.22 0.24 0.24 0.18 0.14 0.15 0.17 0.21 0.23 0.23 0.25 0.30 0.38 0.51 0.72 0.87 0.97 1.12 1.29 1.50 1.78 1.92 2.02 2.06 2.07 2.07 1.95
0.25 0.20 0.15 0.12 0.17 0.16 0.16 0.23 0.31 0.30 0.34 0.28 0.13 0.25 0.36 0.28 0.23 0.23 0.23 0.21 0.20 0.22 0.26 0.33 0.43 0.41 0.38 0.41 0.50 0.56 0.63 0.74 0.79 0.78 0.87 1.00 1.16 1.38 1.52 1.61 1.81 1.88 1.92 1.86
0.20 0.16 0.13 0.11 0.11 0.11 0.10 0.18 0.34 0.40 0.38 0.30 0.29 0.42 0.45 0.36 0.28 0.25 0.22 0.20 0.22 0.29 0.40 0.54 0.66 0.71 0.65 0.63 0.65 0.62 0.63 0.60 0.62 0.66 0.73 0.80 0.87 1.01 1.13 1.21 1.37 1.50 1.50 1.47
0.17 0.13 0.08 0.07 0.06 0.08 0.09 0.09 0.14 0.24 0.24 0.27 0.36 0.53 0.51 0.36 0.29 0.27 0.26 0.24 0.29 0.42 0.57 0.73 0.86 0.93 0.88 0.80 0.73 0.69 0.68 0.65 0.58 0.61 0.69 0.75 0.80 0.82 0.85 0.89 0.88 0.97 1.06 1.09
0.17 0.14 0.07 0.05 0.05 0.06 0.08 0.09 0.13 0.27 0.41 0.43 0.42 0.54 0.61 0.50 0.38 0.36 0.38 0.45 0.56 0.73 0.80 0.91 0.99 0.98 0.97 1.01 0.95 0.78 0.71 0.72 0.66 0.74 0.75 0.72 0.71 0.69 0.67 0.71 0.77 0.78 0.87 0.98
0.17 0.17 0.10 0.05 0.05 0.08 0.11 0.14 0.22 0.35 0.46 0.61 0.72 0.84 0.70 0.57 0.56 0.54 0.56 0.72 0.82 0.93 1.00 1.02 1.08 1.02 0.89 0.89 0.87 0.85 0.80 0.74 0.75 0.80 0.80 0.70 0.67 0.67 0.67 0.65 0.67 0.76 0.85 0.95
0.22 0.27 0.17 0.06 0.09 0.14 0.24 0.36 0.46 0.64 0.66 0.65 0.89 1.08 0.79 0.64 0.65 0.66 0.65 0.63 0.65 0.83 0.95 0.98 1.05 0.97 0.81 0.77 0.68 0.72 0.79 0.80 0.86 0.86 0.80 0.71 0.71 0.74 0.79 0.77 0.70 0.71 0.77 0.79
0.30 0.43 0.36 0.20 0.25 0.33 0.39 0.49 0.61 0.73 0.84 0.84 0.93 1.06 0.84 0.62 0.58 0.63 0.72 0.70 0.67 0.71 0.73 0.72 0.74 0.80 0.76 0.72 0.65 0.70 0.76 0.81 0.85 0.86 0.84 0.76 0.66 0.69 0.75 0.75 0.68 0.65 0.70 0.74
0.26 0.42 0.50 0.41 0.39 0.44 0.43 0.40 0.45 0.67 0.90 0.93 0.98 0.95 0.74 0.62 0.57 0.59 0.65 0.71 0.66 0.56 0.52 0.50 0.46 0.52 0.55 0.57 0.62 0.66 0.77 0.89 0.93 0.91 0.85 0.82 0.76 0.78 0.73 0.64 0.61 0.63 0.63 0.61
0.18 0.20 0.22 0.20 0.19 0.25 0.33 0.35 0.43 0.57 0.75 0.97 0.88 0.67 0.55 0.52 0.48 0.50 0.55 0.49 0.43 0.39 0.37 0.35 0.32 0.32 0.34 0.37 0.45 0.52 0.66 0.81 0.93 0.97 0.92 0.85 0.80 0.70 0.63 0.57 0.51 0.52 0.48 0.48
0.24 0.18 0.08 0.07 0.10 0.16 0.28 0.41 0.54 0.60 0.67 0.69 0.61 0.57 0.42 0.36 0.32 0.32 0.37 0.37 0.36 0.31 0.27 0.24 0.24 0.21 0.23 0.30 0.36 0.37 0.48 0.63 0.74 0.79 0.80 0.81 0.77 0.62 0.54 0.48 0.41 0.40 0.41 0.42
0.10 0.13 0.10 0.07 0.09 0.17 0.40 0.53 0.60 0.59 0.55 0.46 0.43 0.38 0.27 0.24 0.17 0.17 0.22 0.25 0.30 0.28 0.23 0.21 0.20 0.21 0.23 0.30 0.32 0.33 0.42 0.53 0.57 0.61 0.64 0.66 0.61 0.49 0.43 0.35 0.31 0.34 0.36 0.38
0.10 0.13 0.17 0.12 0.13 0.34 0.62 0.51 0.45 0.48 0.38 0.24 0.21 0.21 0.19 0.15 0.11 0.09 0.09 0.11 0.14 0.16 0.16 0.21 0.18 0.17 0.19 0.24 0.29 0.37 0.40 0.41 0.42 0.46 0.49 0.47 0.47 0.43 0.35 0.28 0.28 0.30 0.34 0.37
0.17 0.22 0.26 0.22 0.23 0.43 0.57 0.38 0.34 0.39 0.35 0.17 0.12 0.12 0.09 0.07 0.06 0.03 0.03 0.05 0.06 0.06 0.07 0.10 0.09 0.09 0.10 0.10 0.11 0.14 0.17 0.20 0.23 0.31 0.37 0.40 0.40 0.37 0.31 0.27 0.33 0.40 0.40 0.39
0.30 0.32 0.32 0.32 0.37 0.50 0.39 0.16 0.15 0.28 0.40 0.15 0.07 0.06 0.05 0.04 0.05 0.02 0.03 0.04 0.03 0.02 0.02 0.03 0.03 0.03 0.03 0.03 0.03 0.03 0.05 0.09 0.13 0.20 0.24 0.28 0.31 0.34 0.38 0.46 0.54 0.56 0.52 0.46
0.19 0.25 0.31 0.39 0.57 0.58 0.34 0.13 0.16 0.29 0.42 0.21 0.07 0.03 0.02 0.02 0.02 0.01 0.02 0.03 0.03 0.01 0.01 0.01 0.01 0.01 0.01 0.00 0.00 0.01 0.02 0.02 0.02 0.04 0.10 0.18 0.29 0.35 0.44 0.56 0.59 0.58 0.52 0.44
0.18 0.28 0.39 0.51 0.67 0.76 0.39 0.20 0.23 0.21 0.14 0.11 0.05 0.02 0.01 0.01 0.01 0.01 0.01 0.02 0.01 0.01 0.01 0.00 0.00 0.00 0.00 0.00 0.00 0.00 0.00 0.00 0.01 0.03 0.07 0.13 0.20 0.29 0.42 0.51 0.51 0.50 0.49 0.46
0.18 0.33 0.45 0.50 0.56 0.48 0.29 0.18 0.13 0.09 0.09 0.04 0.02 0.01 0.01 0.00 0.00 0.01 0.01 0.02 0.01 0.01 0.01 0.00 0.00 0.00 0.00 0.00 0.00 0.00 0.00 0.00 0.00 0.01 0.02 0.06 0.11 0.22 0.36 0.39 0.39 0.43 0.45 0.44
0.08 0.11 0.18 0.20 0.16 0.15 0.12 0.09 0.05 0.03 0.04 0.01 0.01 0.01 0.01 0.01 0.00 0.00 0.01 0.01 0.01 0.01 0.01 0.00 0.00 0.00 0.00 0.00 0.00 0.00 0.00 0.00 0.00 0.00 0.00 0.01 0.02 0.05 0.10 0.15 0.20 0.26 0.32 0.33
0.09 0.10 0.17 0.21 0.10 0.06 0.05 0.04 0.03 0.02 0.02 0.01 0.00 0.00 0.00 0.01 0.00 0.00 0.00 0.01 0.01 0.01 0.01 0.00 0.00 0.00 0.00 0.00 0.00 0.00 0.00 0.00 0.00 0.00 0.00 0.01 0.02 0.03 0.04 0.06 0.09 0.13 0.16 0.19
0.05 0.12 0.17 0.20 0.13 0.06 0.04 0.03 0.02 0.02 0.01 0.01 0.01 0.00 0.00 0.00 0.00 0.00 0.00 0.00 0.00 0.01 0.01 0.01 0.00 0.00 0.00 0.00 0.00 0.00 0.00 0.00 0.00 0.00 0.00 0.00 0.01 0.01 0.01 0.02 0.03 0.04 0.06 0.09

GEFSCGP_prec_meanprecacc_150.txt.gz
Total_Precipitation_Accumulation
0.28 0.52 0.71 0.63 0.68 0.72 0.56 0.52 0.59 0.54 0.43 0.46 0.48 0.39 0.39 0.38 0.35 0.31 0.28 0.25 0.23 0.20 0.20 0.17 0.16 0.19 0.22 0.26 0.31 0.37 0.54 0.70 0.86 0.99 1.13 1.38 1.54 1.64 1.63 1.63 1.70 1.62 1.44 1.52
0.42 0.48 0.39 0.43 0.47 0.53 0.53 0.53 0.54 0.48 0.35 0.34 0.36 0.32 0.30 0.31 0.30 0.26 0.24 0.23 0.19 0.14 0.13 0.12 0.11 0.12 0.13 0.16 0.22 0.30 0.44 0.68 0.92 1.15 1.33 1.52 1.84 2.00 2.00 2.06 2.01 1.96 1.85 1.87
0.38 0.38 0.33 0.37 0.41 0.46 0.48 0.45 0.46 0.43 0.40 0.32 0.28 0.30 0.27 0.26 0.26 0.22 0.17 0.16 0.13 0.10 0.10 0.11 0.09 0.09 0.08 0.10 0.14 0.21 0.34 0.57 0.88 1.19 1.45 1.64 1.88 2.14 2.24 2.15 2.10 2.13 2.21 2.26
0.36 0.33 0.29 0.32 0.34 0.42 0.55 0.34 0.32 0.32 0.37 0.39 0.27 0.37 0.31 0.27 0.28 0.24 0.20 0.18 0.16 0.13 0.12 0.11 0.09 0.08 0.08 0.11 0.13 0.17 0.32 0.48 0.72 0.99 1.32 1.57 1.84 2.15 2.22 2.20 2.17 2.21 2.33 2.42
0.35 0.31 0.28 0.31 0.29 0.33 0.42 0.25 0.25 0.28 0.29 0.28 0.23 0.34 0.28 0.24 0.29 0.30 0.29 0.26 0.22 0.17 0.16 0.14 0.13 0.12 0.13 0.15 0.18 0.25 0.38 0.54 0.74 0.98 1.30 1.63 1.82 1.99 2.19 2.20 2.11 2.05 2.12 2.14
0.35 0.28 0.26 0.25 0.22 0.22 0.28 0.26 0.25 0.24 0.26 0.28 0.18 0.30 0.33 0.28 0.28 0.30 0.31 0.29 0.22 0.16 0.16 0.19 0.23 0.25 0.24 0.25 0.30 0.38 0.51 0.72 0.87 0.97 1.12 1.29 1.50 1.78 1.92 2.02 2.06 2.07 2.07 1.95
0.29 0.23 0.17 0.14 0.19 0.18 0.21 0.30 0.40 0.39 0.42 0.37 0.18 0.29 0.38 0.29 0.25 0.26 0.28 0.27 0.24 0.24 0.27 0.34 0.44 0.42 0.40 0.42 0.50 0.57 0.63 0.74 0.79 0.79 0.87 1.00 1.16 1.38 1.52 1.61 1.81 1.88 1.92 1.86
0.23 0.18 0.14 0.12 0.12 0.14 0.16 0.23 0.40 0.46 0.42 0.35 0.32 0.44 0.46 0.37 0.29 0.26 0.25 0.22 0.24 0.30 0.40 0.55 0.66 0.71 0.67 0.65 0.65 0.62 0.63 0.61 0.62 0.66 0.73 0.80 0.87 1.01 1.13 1.21 1.37 1.50 1.50 1.48
0.20 0.14 0.09 0.08 0.07 0.11 0.15 0.14 0.17 0.27 0.26 0.29 0.38 0.54 0.52 0.36 0.29 0.28 0.27 0.24 0.30 0.43 0.57 0.74 0.86 0.94 0.89 0.81 0.74 0.69 0.69 0.65 0.59 0.61 0.69 0.75 0.80 0.82 0.85 0.89 0.88 0.97 1.06 1.09
0.19 0.15 0.08 0.05 0.05 0.08 0.11 0.12 0.16 0.32 0.44 0.45 0.44 0.55 0.61 0.50 0.39 0.37 0.39 0.45 0.56 0.73 0.80 0.91 0.99 0.98 0.97 1.01 0.96 0.78 0.72 0.72 0.66 0.74 0.75 0.72 0.71 0.69 0.68 0.71 0.77 0.78 0.87 0.98
0.18 0.18 0.11 0.06 0.06 0.10 0.13 0.17 0.25 0.39 0.47 0.64 0.75 0.85 0.70 0.58 0.56 0.54 0.57 0.75 0.83 0.93 1.00 1.02 1.08 1.02 0.90 0.90 0.88 0.86 0.80 0.74 0.75 0.81 0.81 0.71 0.68 0.68 0.68 0.65 0.67 0.76 0.85 0.95
0.22 0.28 0.18 0.07 0.10 0.15 0.25 0.38 0.48 0.66 0.67 0.67 0.91 1.09 0.80 0.65 0.66 0.68 0.68 0.66 0.66 0.83 0.95 0.98 1.05 0.97 0.82 0.77 0.68 0.72 0.80 0.81 0.87 0.87 0.80 0.72 0.72 0.75 0.80 0.78 0.70 0.71 0.77 0.79
0.30 0.44 0.37 0.20 0.26 0.33 0.40 0.50 0.62 0.75 0.86 0.86 0.95 1.08 0.85 0.63 0.59 0.65 0.74 0.71 0.67 0.71 0.73 0.72 0.74 0.80 0.76 0.72 0.65 0.71 0.76 0.82 0.86 0.88 0.86 0.77 0.66 0.70 0.75 0.76 0.68 0.66 0.70 0.74
0.27 0.43 0.51 0.42 0.39 0.44 0.43 0.40 0.45 0.67 0.91 0.93 0.99 0.97 0.75 0.62 0.57 0.59 0.65 0.71 0.67 0.57 0.53 0.51 0.47 0.53 0.55 0.57 0.62 0.67 0.77 0.89 0.94 0.92 0.86 0.82 0.76 0.78 0.73 0.64 0.62 0.64 0.63 0.61
0.18 0.20 0.23 0.21 0.19 0.25 0.33 0.35 0.43 0.57 0.75 0.97 0.88 0.68 0.56 0.52 0.49 0.50 0.55 0.49 0.43 0.39 0.38 0.36 0.33 0.33 0.35 0.38 0.46 0.52 0.66 0.81 0.93 0.98 0.93 0.86 0.80 0.70 0.63 0.57 0.51 0.52 0.48 0.48
0.24 0.19 0.09 0.08 0.11 0.16 0.28 0.41 0.54 0.60 0.68 0.70 0.61 0.57 0.43 0.36 0.33 0.32 0.37 0.37 0.36 0.32 0.27 0.24 0.24 0.22 0.24 0.30 0.36 0.37 0.49 0.63 0.74 0.80 0.81 0.82 0.78 0.62 0.54 0.48 0.41 0.40 0.41 0.42
0.10 0.13 0.10 0.08 0.09 0.18 0.40 0.53 0.60 0.59 0.55 0.46 0.43 0.38 0.27 0.24 0.17 0.17 0.22 0.25 0.30 0.28 0.23 0.21 0.20 0.21 0.23 0.30 0.32 0.33 0.42 0.53 0.58 0.62 0.65 0.67 0.63 0.49 0.44 0.35 0.31 0.34 0.36 0.38
0.10 0.13 0.17 0.13 0.13 0.35 0.62 0.51 0.45 0.48 0.38 0.24 0.21 0.21 0.19 0.15 0.11 0.09 0.09 0.11 0.14 0.16 0.16 0.21 0.18 0.17 0.19 0.24 0.29 0.37 0.40 0.42 0.43 0.47 0.50 0.49 0.48 0.43 0.36 0.28 0.28 0.30 0.34 0.37
0.17 0.22 0.26 0.22 0.24 0.43 0.57 0.38 0.34 0.39 0.35 0.17 0.12 0.12 0.09 0.07 0.06 0.03 0.03 0.05 0.06 0.06 0.07 0.10 0.09 0.09 0.10 0.10 0.11 0.14 0.17 0.20 0.24 0.32 0.38 0.41 0.41 0.37 0.32 0.27 0.33 0.40 0.40 0.39
0.30 0.32 0.32 0.32 0.38 0.51 0.40 0.16 0.15 0.28 0.40 0.15 0.07 0.06 0.05 0.04 0.05 0.02 0.03 0.04 0.04 0.02 0.02 0.03 0.03 0.03 0.03 0.03 0.03 0.03 0.05 0.10 0.13 0.20 0.25 0.29 0.32 0.35 0.38 0.46 0.54 0.56 0.52 0.46
0.19 0.25 0.31 0.39 0.57 0.59 0.35 0.13 0.16 0.29 0.42 0.21 0.07 0.03 0.02 0.02 0.02 0.01 0.02 0.03 0.03 0.01 0.01 0.01 0.01 0.01 0.01 0.00 0.00 0.01 0.02 0.02 0.02 0.04 0.10 0.18 0.29 0.35 0.45 0.56 0.59 0.58 0.52 0.44
0.18 0.28 0.39 0.51 0.68 0.76 0.39 0.20 0.23 0.21 0.14 0.11 0.05 0.02 0.01 0.01 0.01 0.01 0.01 0.02 0.01 0.01 0.01 0.00 0.00 0.00 0.00 0.00 0.00 0.00 0.00 0.01 0.01 0.03 0.07 0.13 0.20 0.29 0.43 0.51 0.51 0.50 0.49 0.46
0.18 0.33 0.46 0.51 0.57 0.49 0.29 0.19 0.13 0.09 0.09 0.04 0.02 0.01 0.01 0.00 0.00 0.01 0.01 0.02 0.01 0.01 0.01 0.00 0.00 0.00 0.00 0.00 0.00 0.00 0.00 0.00 0.00 0.01 0.03 0.06 0.11 0.22 0.36 0.39 0.39 0.43 0.45 0.44
0.08 0.11 0.18 0.21 0.16 0.15 0.12 0.09 0.05 0.04 0.04 0.01 0.01 0.01 0.01 0.01 0.00 0.00 0.01 0.01 0.01 0.01 0.01 0.00 0.00 0.00 0.00 0.00 0.00 0.00 0.00 0.00 0.00 0.00 0.00 0.01 0.02 0.05 0.10 0.15 0.20 0.26 0.32 0.33
0.09 0.10 0.17 0.21 0.10 0.06 0.05 0.04 0.03 0.02 0.02 0.01 0.00 0.00 0.00 0.01 0.00 0.00 0.00 0.01 0.01 0.01 0.01 0.00 0.00 0.00 0.00 0.00 0.00 0.00 0.00 0.00 0.00 0.00 0.00 0.01 0.02 0.03 0.04 0.06 0.09 0.13 0.16 0.19
0.05 0.12 0.17 0.20 0.13 0.07 0.04 0.03 0.02 0.02 0.01 0.01 0.01 0.00 0.00 0.00 0.00 0.00 0.00 0.00 0.00 0.01 0.01 0.01 0.00 0.00 0.00 0.00 0.00 0.00 0.00 0.00 0.00 0.00 0.00 0.00 0.01 0.02 0.02 0.03 0.03 0.05 0.07 0.09

GEFSCGP_prec_meanprecacc_156.txt.gz
Total_Precipitation_Accumulation
0.30 0.53 0.72 0.64 0.70 0.73 0.58 0.55 0.62 0.59 0.47 0.50 0.52 0.45 0.46 0.45 0.45 0.38 0.32 0.29 0.26 0.22 0.22 0.19 0.18 0.21 0.24 0.27 0.31 0.37 0.54 0.70 0.86 0.99 1.13 1.38 1.54 1.64 1.63 1.63 1.70 1.62 1.44 1.52
0.43 0.49 0.40 0.44 0.48 0.54 0.55 0.56 0.57 0.51 0.38 0.38 0.41 0.40 0.38 0.40 0.38 0.30 0.27 0.26 0.21 0.17 0.15 0.14 0.13 0.14 0.14 0.17 0.22 0.30 0.44 0.68 0.92 1.15 1.33 1.52 1.84 2.00 2.00 2.06 2.01 1.96 1.85 1.87
0.38 0.38 0.33 0.38 0.43 0.49 0.51 0.48 0.49 0.46 0.45 0.37 0.34 0.37 0.37 0.36 0.33 0.24 0.19 0.18 0.16 0.12 0.13 0.13 0.11 0.11 0.10 0.10 0.15 0.22 0.34 0.57 0.88 1.19 1.45 1.64 1.88 2.14 2.24 2.15 2.10 2.13 2.21 2.26
0.37 0.34 0.30 0.33 0.35 0.44 0.58 0.37 0.35 0.35 0.41 0.45 0.33 0.44 0.39 0.34 0.32 0.25 0.21 0.20 0.18 0.15 0.14 0.12 0.10 0.09 0.10 0.12 0.14 0.18 0.32 0.48 0.72 0.99 1.32 1.57 1.84 2.15 2.22 2.20 2.17 2.21 2.33 2.42
0.36 0.33 0.31 0.34 0.32 0.36 0.46 0.29 0.29 0.33 0.32 0.32 0.27 0.37 0.33 0.27 0.31 0.32 0.30 0.27 0.23 0.18 0.17 0.15 0.13 0.13 0.15 0.17 0.19 0.25 0.39 0.54 0.74 0.98 1.30 1.63 1.82 1.99 2.19 2.20 2.12 2.05 2.12 2.14
0.38 0.31 0.29 0.29 0.25 0.25 0.32 0.31 0.30 0.29 0.29 0.31 0.21 0.32 0.35 0.29 0.29 0.32 0.32 0.30 0.23 0.16 0.16 0.19 0.24 0.25 0.25 0.27 0.32 0.39 0.51 0.72 0.87 0.97 1.12 1.29 1.50 1.78 1.92 2.02 2.06 2.07 2.07 1.95
0.32 0.27 0.21 0.17 0.22 0.23 0.26 0.35 0.44 0.43 0.45 0.39 0.19 0.31 0.39 0.30 0.25 0.28 0.30 0.29 0.26 0.25 0.29 0.35 0.45 0.42 0.40 0.43 0.51 0.57 0.64 0.74 0.79 0.79 0.87 1.00 1.16 1.38 1.52 1.61 1.81 1.88 1.92 1.86
0.25 0.22 0.18 0.15 0.16 0.19 0.21 0.26 0.41 0.48 0.43 0.35 0.32 0.44 0.47 0.37 0.29 0.27 0.28 0.25 0.26 0.32 0.41 0.56 0.67 0.72 0.67 0.65 0.66 0.63 0.63 0.61 0.62 0.66 0.73 0.81 0.87 1.02 1.13 1.21 1.37 1.50 1.50 1.48
0.22 0.17 0.12 0.11 0.10 0.14 0.18 0.15 0.18 0.28 0.26 0.29 0.39 0.54 0.52 0.36 0.29 0.28 0.29 0.26 0.31 0.44 0.58 0.74 0.87 0.94 0.90 0.81 0.74 0.69 0.69 0.66 0.59 0.61 0.69 0.76 0.81 0.82 0.85 0.89 0.88 0.97 1.06 1.09
0.20 0.17 0.11 0.08 0.08 0.11 0.13 0.13 0.16 0.32 0.44 0.45 0.44 0.55 0.62 0.50 0.39 0.37 0.40 0.46 0.57 0.74 0.81 0.92 0.99 0.98 0.97 1.02 0.96 0.79 0.72 0.72 0.66 0.74 0.75 0.73 0.71 0.70 0.68 0.72 0.77 0.78 0.87 0.98
0.19 0.19 0.13 0.08 0.08 0.11 0.13 0.17 0.25 0.39 0.47 0.64 0.75 0.85 0.71 0.58 0.57 0.55 0.58 0.75 0.83 0.93 1.00 1.02 1.09 1.02 0.90 0.90 0.88 0.86 0.81 0.75 0.76 0.81 0.81 0.71 0.68 0.68 0.68 0.65 0.68 0.76 0.85 0.95
0.23 0.29 0.20 0.09 0.11 0.16 0.25 0.38 0.48 0.66 0.67 0.67 0.91 1.09 0.80 0.65 0.67 0.68 0.68 0.66 0.66 0.83 0.95 0.98 1.05 0.97 0.82 0.77 0.68 0.72 0.80 0.81 0.87 0.87 0.81 0.72 0.72 0.75 0.80 0.78 0.70 0.71 0.77 0.79
0.31 0.44 0.38 0.21 0.26 0.34 0.40 0.50 0.62 0.75 0.86 0.86 0.95 1.08 0.85 0.63 0.60 0.65 0.74 0.71 0.67 0.71 0.73 0.72 0.74 0.80 0.76 0.72 0.65 0.71 0.76 0.82 0.86 0.88 0.86 0.77 0.67 0.70 0.75 0.76 0.68 0.66 0.70 0.74
0.27 0.43 0.51 0.43 0.40 0.44 0.43 0.40 0.45 0.67 0.91 0.93 0.99 0.97 0.75 0.63 0.59 0.60 0.65 0.71 0.67 0.57 0.53 0.51 0.47 0.53 0.55 0.57 0.62 0.67 0.78 0.90 0.94 0.92 0.86 0.83 0.77 0.79 0.74 0.64 0.62 0.64 0.63 0.61
0.20 0.21 0.23 0.21 0.19 0.25 0.33 0.35 0.43 0.57 0.75 0.97 0.88 0.68 0.56 0.53 0.50 0.50 0.56 0.49 0.43 0.39 0.38 0.36 0.33 0.33 0.35 0.38 0.46 0.53 0.66 0.82 0.94 0.99 0.94 0.86 0.81 0.71 0.64 0.58 0.51 0.52 0.48 0.48
0.26 0.20 0.09 0.08 0.11 0.16 0.28 0.41 0.54 0.60 0.68 0.70 0.61 0.57 0.43 0.37 0.33 0.32 0.37 0.37 0.36 0.32 0.27 0.24 0.24 0.22 0.24 0.30 0.36 0.37 0.49 0.64 0.75 0.80 0.82 0.83 0.79 0.63 0.55 0.48 0.42 0.40 0.41 0.42
0.12 0.15 0.11 0.08 0.09 0.18 0.40 0.53 0.60 0.59 0.55 0.46 0.43 0.38 0.27 0.24 0.17 0.17 0.22 0.25 0.30 0.28 0.24 0.21 0.20 0.21 0.23 0.30 0.32 0.33 0.42 0.53 0.58 0.62 0.65 0.68 0.64 0.50 0.45 0.36 0.32 0.34 0.36 0.38
0.11 0.14 0.19 0.13 0.13 0.35 0.62 0.51 0.45 0.48 0.38 0.24 0.21 0.21 0.20 0.16 0.12 0.09 0.09 0.11 0.14 0.17 0.16 0.21 0.18 0.17 0.19 0.24 0.29 0.37 0.40 0.42 0.43 0.47 0.50 0.49 0.49 0.44 0.37 0.29 0.29 0.30 0.34 0.37
0.17 0.23 0.26 0.23 0.24 0.43 0.57 0.38 0.34 0.39 0.35 0.17 0.12 0.12 0.10 0.08 0.06 0.03 0.03 0.05 0.07 0.06 0.07 0.10 0.09 0.09 0.10 0.10 0.11 0.14 0.17 0.20 0.24 0.32 0.38 0.41 0.41 0.38 0.32 0.28 0.34 0.40 0.40 0.39
0.31 0.33 0.33 0.32 0.38 0.51 0.40 0.16 0.15 0.28 0.40 0.15 0.07 0.06 0.05 0.04 0.05 0.02 0.03 0.04 0.04 0.02 0.02 0.03 0.03 0.03 0.03 0.03 0.03 0.03 0.05 0.10 0.13 0.20 0.25 0.29 0.32 0.36 0.39 0.47 0.55 0.56 0.52 0.46
0.19 0.25 0.31 0.40 0.57 0.59 0.35 0.13 0.16 0.29 0.42 0.21 0.07 0.03 0.02 0.02 0.02 0.01 0.03 0.03 0.03 0.01 0.01 0.01 0.01 0.01 0.01 0.00 0.00 0.01 0.02 0.02 0.03 0.04 0.10 0.19 0.30 0.36 0.45 0.57 0.59 0.58 0.53 0.44
0.18 0.28 0.39 0.52 0.68 0.76 0.39 0.20 0.23 0.21 0.14 0.11 0.05 0.02 0.01 0.01 0.01 0.01 0.02 0.02 0.01 0.01 0.01 0.00 0.00 0.00 0.00 0.00 0.00 0.00 0.00 0.01 0.01 0.03 0.08 0.13 0.21 0.30 0.43 0.52 0.51 0.50 0.49 0.46
0.18 0.34 0.46 0.51 0.57 0.49 0.29 0.19 0.13 0.09 0.09 0.04 0.02 0.01 0.01 0.01 0.01 0.01 0.02 0.02 0.01 0.01 0.01 0.00 0.00 0.00 0.00 0.00 0.00 0.00 0.00 0.00 0.00 0.01 0.03 0.06 0.12 0.23 0.37 0.40 0.40 0.43 0.45 0.44
0.08 0.11 0.18 0.21 0.16 0.15 0.12 0.09 0.05 0.04 0.04 0.01 0.01 0.01 0.01 0.01 0.01 0.00 0.01 0.01 0.01 0.01 0.01 0.00 0.00 0.00 0.00 0.00 0.00 0.00 0.00 0.00 0.00 0.00 0.01 0.01 0.02 0.05 0.11 0.16 0.20 0.26 0.32 0.33
0.09 0.10 0.17 0.21 0.10 0.06 0.05 0.04 0.03 0.02 0.02 0.01 0.00 0.00 0.01 0.01 0.01 0.00 0.00 0.01 0.01 0.01 0.01 0.00 0.00 0.00 0.00 0.00 0.00 0.00 0.00 0.00 0.00 0.00 0.00 0.01 0.02 0.04 0.04 0.07 0.10 0.13 0.16 0.19
0.05 0.12 0.17 0.20 0.13 0.07 0.04 0.03 0.02 0.02 0.01 0.01 0.01 0.00 0.00 0.00 0.01 0.00 0.00 0.00 0.00 0.01 0.01 0.01 0.01 0.00 0.00 0.00 0.00 0.00 0.00 0.00 0.00 0.00 0.00 0.00 0.01 0.02 0.02 0.03 0.04 0.06 0.07 0.10

GEFSCGP_prec_meanprecacc_162.txt.gz
Total_Precipitation_Accumulation
0.32 0.55 0.74 0.66 0.72 0.74 0.60 0.59 0.65 0.62 0.51 0.54 0.55 0.47 0.51 0.51 0.50 0.40 0.35 0.32 0.28 0.25 0.26 0.23 0.21 0.24 0.25 0.28 0.32 0.38 0.54 0.70 0.86 0.99 1.13 1.38 1.54 1.64 1.63 1.63 1.70 1.62 1.44 1.52
0.45 0.50 0.40 0.44 0.48 0.55 0.58 0.59 0.60 0.54 0.42 0.44 0.46 0.44 0.44 0.46 0.42 0.32 0.29 0.29 0.23 0.19 0.17 0.17 0.14 0.16 0.16 0.19 0.23 0.30 0.44 0.68 0.92 1.15 1.33 1.52 1.84 2.00 2.00 2.06 2.01 1.96 1.85 1.87
0.39 0.39 0.33 0.38 0.43 0.50 0.53 0.50 0.51 0.49 0.48 0.43 0.40 0.44 0.45 0.44 0.37 0.27 0.20 0.20 0.18 0.15 0.15 0.16 0.13 0.12 0.11 0.12 0.16 0.22 0.35 0.57 0.88 1.19 1.45 1.64 1.88 2.14 2.24 2.15 2.10 2.13 2.21 2.26
0.37 0.34 0.30 0.34 0.36 0.45 0.60 0.39 0.38 0.39 0.44 0.52 0.40 0.51 0.50 0.46 0.39 0.29 0.23 0.21 0.19 0.17 0.17 0.16 0.12 0.11 0.11 0.13 0.16 0.20 0.34 0.49 0.72 0.99 1.32 1.57 1.84 2.15 2.22 2.20 2.17 2.21 2.33 2.42
0.37 0.34 0.32 0.36 0.33 0.37 0.48 0.30 0.32 0.37 0.35 0.37 0.33 0.43 0.44 0.40 0.41 0.36 0.32 0.28 0.24 0.20 0.20 0.18 0.15 0.14 0.17 0.19 0.20 0.27 0.40 0.54 0.74 0.98 1.30 1.63 1.82 1.99 2.19 2.20 2.12 2.05 2.12 2.14
0.40 0.32 0.31 0.31 0.27 0.27 0.34 0.34 0.34 0.33 0.33 0.36 0.26 0.37 0.42 0.37 0.37 0.36 0.33 0.31 0.23 0.17 0.19 0.22 0.26 0.26 0.26 0.29 0.33 0.40 0.52 0.72 0.87 0.97 1.12 1.29 1.50 1.78 1.92 2.02 2.06 2.07 2.07 1.95
0.35 0.30 0.23 0.19 0.25 0.25 0.29 0.39 0.49 0.49 0.49 0.44 0.23 0.34 0.42 0.32 0.28 0.30 0.31 0.30 0.26 0.25 0.30 0.37 0.47 0.43 0.41 0.44 0.53 0.59 0.65 0.74 0.79 0.79 0.87 1.00 1.16 1.38 1.52 1.61 1.81 1.88 1.92 1.86
0.28 0.25 0.20 0.16 0.17 0.23 0.24 0.28 0.45 0.52 0.46 0.38 0.35 0.47 0.49 0.37 0.30 0.28 0.29 0.25 0.26 0.32 0.42 0.57 0.68 0.72 0.67 0.65 0.67 0.65 0.65 0.61 0.62 0.66 0.73 0.81 0.88 1.02 1.13 1.21 1.37 1.50 1.50 1.48
0.25 0.20 0.14 0.12 0.11 0.17 0.20 0.17 0.19 0.30 0.28 0.32 0.40 0.55 0.53 0.37 0.30 0.29 0.29 0.26 0.31 0.44 0.58 0.74 0.87 0.94 0.90 0.81 0.74 0.70 0.70 0.67 0.59 0.61 0.69 0.76 0.81 0.82 0.85 0.89 0.89 0.97 1.06 1.09
0.21 0.20 0.14 0.10 0.10 0.13 0.15 0.15 0.18 0.33 0.46 0.47 0.46 0.56 0.63 0.51 0.39 0.38 0.40 0.46 0.57 0.74 0.81 0.92 0.99 0.98 0.97 1.02 0.96 0.79 0.72 0.73 0.67 0.74 0.75 0.73 0.71 0.70 0.68 0.72 0.77 0.78 0.87 0.98
0.20 0.22 0.15 0.10 0.10 0.13 0.14 0.18 0.27 0.40 0.48 0.65 0.76 0.86 0.71 0.58 0.57 0.55 0.58 0.75 0.83 0.93 1.00 1.02 1.09 1.02 0.90 0.90 0.88 0.86 0.81 0.75 0.76 0.81 0.81 0.71 0.68 0.68 0.68 0.65 0.68 0.76 0.85 0.95
0.24 0.31 0.23 0.11 0.13 0.17 0.26 0.39 0.49 0.68 0.68 0.67 0.92 1.09 0.80 0.65 0.67 0.68 0.68 0.66 0.66 0.83 0.95 0.98 1.05 0.97 0.82 0.78 0.69 0.72 0.80 0.81 0.87 0.88 0.81 0.72 0.72 0.75 0.80 0.78 0.70 0.71 0.77 0.79
0.32 0.46 0.41 0.24 0.28 0.35 0.41 0.50 0.63 0.75 0.86 0.87 0.95 1.08 0.85 0.63 0.60 0.65 0.74 0.71 0.67 0.71 0.74 0.73 0.74 0.81 0.76 0.73 0.65 0.71 0.77 0.82 0.86 0.88 0.86 0.77 0.67 0.70 0.75 0.76 0.68 0.66 0.70 0.74
0.29 0.45 0.53 0.44 0.41 0.45 0.44 0.40 0.46 0.68 0.91 0.94 0.99 0.97 0.75 0.64 0.60 0.60 0.66 0.71 0.67 0.57 0.53 0.51 0.47 0.53 0.55 0.58 0.63 0.67 0.78 0.90 0.95 0.93 0.86 0.83 0.77 0.79 0.74 0.64 0.62 0.64 0.63 0.61
0.21 0.23 0.24 0.22 0.20 0.25 0.33 0.35 0.44 0.57 0.75 0.97 0.88 0.68 0.56 0.55 0.50 0.50 0.56 0.49 0.43 0.39 0.38 0.36 0.33 0.33 0.35 0.38 0.46 0.53 0.67 0.82 0.95 0.99 0.94 0.86 0.81 0.71 0.64 0.58 0.51 0.52 0.48 0.48
0.27 0.21 0.10 0.09 0.11 0.16 0.28 0.42 0.55 0.61 0.68 0.70 0.61 0.57 0.43 0.38 0.33 0.33 0.37 0.37 0.36 0.32 0.27 0.24 0.24 0.22 0.24 0.30 0.36 0.37 0.49 0.64 0.75 0.81 0.82 0.83 0.79 0.63 0.55 0.49 0.42 0.40 0.41 0.42
0.12 0.16 0.12 0.09 0.10 0.18 0.40 0.53 0.60 0.59 0.55 0.46 0.43 0.38 0.28 0.24 0.17 0.17 0.22 0.25 0.30 0.28 0.24 0.21 0.20 0.21 0.23 0.30 0.32 0.33 0.42 0.53 0.58 0.62 0.66 0.68 0.64 0.51 0.45 0.36 0.32 0.35 0.36 0.38
0.12 0.15 0.20 0.14 0.14 0.35 0.62 0.51 0.45 0.48 0.38 0.24 0.21 0.21 0.20 0.16 0.12 0.10 0.10 0.11 0.14 0.17 0.16 0.21 0.18 0.17 0.19 0.24 0.29 0.37 0.40 0.42 0.43 0.47 0.50 0.49 0.49 0.44 0.37 0.30 0.29 0.31 0.34 0.37
0.18 0.24 0.27 0.24 0.25 0.43 0.57 0.38 0.35 0.40 0.35 0.17 0.12 0.12 0.10 0.08 0.06 0.04 0.03 0.05 0.07 0.06 0.07 0.10 0.09 0.09 0.10 0.10 0.11 0.14 0.17 0.20 0.24 0.32 0.38 0.42 0.42 0.38 0.33 0.28 0.35 0.40 0.40 0.39
0.31 0.33 0.34 0.33 0.39 0.51 0.40 0.16 0.15 0.28 0.41 0.15 0.07 0.06 0.05 0.04 0.05 0.03 0.03 0.05 0.04 0.03 0.03 0.03 0.03 0.03 0.03 0.03 0.03 0.03 0.05 0.10 0.13 0.20 0.25 0.30 0.33 0.36 0.39 0.47 0.55 0.56 0.53 0.46
0.19 0.26 0.32 0.40 0.58 0.60 0.35 0.13 0.16 0.29 0.42 0.21 0.07 0.03 0.02 0.02 0.02 0.01 0.03 0.04 0.03 0.01 0.01 0.01 0.01 0.01 0.01 0.00 0.00 0.01 0.02 0.02 0.03 0.05 0.10 0.19 0.31 0.37 0.46 0.58 0.60 0.59 0.53 0.44
0.19 0.29 0.39 0.52 0.69 0.77 0.39 0.20 0.23 0.21 0.14 0.11 0.05 0.02 0.01 0.01 0.01 0.01 0.02 0.02 0.02 0.01 0.01 0.01 0.01 0.00 0.00 0.00 0.00 0.00 0.00 0.01 0.01 0.03 0.08 0.13 0.21 0.30 0.44 0.53 0.52 0.50 0.49 0.46
0.18 0.34 0.46 0.51 0.57 0.49 0.29 0.19 0.13 0.09 0.09 0.04 0.02 0.01 0.01 0.01 0.01 0.01 0.02 0.02 0.01 0.01 0.01 0.00 0.00 0.00 0.00 0.00 0.00 0.00 0.00 0.00 0.01 0.01 0.03 0.06 0.12 0.23 0.37 0.41 0.40 0.43 0.45 0.44
0.08 0.11 0.18 0.21 0.16 0.15 0.12 0.09 0.05 0.04 0.04 0.01 0.01 0.01 0.01 0.01 0.01 0.00 0.01 0.01 0.01 0.01 0.01 0.00 0.00 0.00 0.00 0.00 0.00 0.00 0.00 0.00 0.00 0.00 0.01 0.01 0.03 0.06 0.11 0.16 0.21 0.27 0.32 0.33
0.09 0.10 0.17 0.21 0.10 0.06 0.05 0.04 0.03 0.02 0.02 0.01 0.00 0.00 0.01 0.01 0.01 0.00 0.00 0.01 0.01 0.01 0.01 0.00 0.00 0.00 0.00 0.00 0.00 0.00 0.00 0.00 0.00 0.00 0.00 0.01 0.03 0.04 0.05 0.07 0.10 0.14 0.16 0.20
0.05 0.12 0.17 0.20 0.13 0.07 0.04 0.03 0.02 0.02 0.01 0.01 0.01 0.00 0.00 0.01 0.01 0.01 0.00 0.00 0.01 0.01 0.01 0.01 0.01 0.00 0.00 0.00 0.00 0.00 0.00 0.00 0.00 0.00 0.00 0.00 0.01 0.02 0.02 0.04 0.05 0.06 0.08 0.10

GEFSCGP_prec_meanprecacc_168.txt.gz
Total_Precipitation_Accumulation
0.33 0.57 0.78 0.69 0.75 0.79 0.64 0.63 0.71 0.68 0.53 0.58 0.59 0.51 0.54 0.54 0.52 0.42 0.36 0.34 0.31 0.28 0.30 0.29 0.27 0.28 0.27 0.30 0.33 0.39 0.56 0.72 0.88 0.99 1.13 1.38 1.54 1.64 1.63 1.63 1.70 1.62 1.44 1.52
0.48 0.54 0.42 0.45 0.49 0.56 0.60 0.63 0.65 0.58 0.44 0.49 0.52 0.49 0.48 0.49 0.45 0.35 0.31 0.30 0.26 0.22 0.21 0.22 0.20 0.20 0.21 0.21 0.25 0.32 0.47 0.70 0.93 1.15 1.33 1.52 1.84 2.00 2.00 2.06 2.01 1.96 1.85 1.87
0.42 0.41 0.33 0.39 0.44 0.51 0.55 0.54 0.56 0.53 0.51 0.47 0.47 0.50 0.49 0.47 0.40 0.30 0.23 0.22 0.20 0.17 0.19 0.20 0.20 0.16 0.15 0.15 0.19 0.25 0.38 0.59 0.89 1.19 1.45 1.64 1.88 2.14 2.24 2.15 2.10 2.13 2.21 2.26
0.38 0.34 0.30 0.34 0.37 0.46 0.63 0.40 0.39 0.42 0.48 0.58 0.48 0.63 0.58 0.50 0.43 0.33 0.25 0.22 0.20 0.18 0.18 0.18 0.17 0.17 0.16 0.17 0.18 0.23 0.37 0.52 0.73 0.99 1.32 1.57 1.84 2.15 2.22 2.20 2.17 2.21 2.33 2.42
0.39 0.35 0.32 0.37 0.34 0.38 0.49 0.31 0.33 0.39 0.38 0.42 0.39 0.54 0.55 0.46 0.47 0.42 0.34 0.29 0.24 0.20 0.21 0.19 0.17 0.18 0.22 0.22 0.23 0.29 0.43 0.56 0.74 0.98 1.30 1.63 1.82 1.99 2.19 2.20 2.12 2.05 2.12 2.14
0.40 0.32 0.32 0.32 0.27 0.27 0.35 0.35 0.35 0.36 0.38 0.42 0.31 0.44 0.53 0.46 0.43 0.42 0.37 0.32 0.24 0.17 0.20 0.24 0.27 0.28 0.29 0.32 0.35 0.42 0.54 0.74 0.88 0.97 1.12 1.29 1.50 1.78 1.92 2.02 2.06 2.07 2.07 1.95
0.37 0.31 0.23 0.19 0.26 0.27 0.30 0.43 0.56 0.56 0.56 0.50 0.26 0.38 0.48 0.38 0.32 0.34 0.34 0.31 0.27 0.26 0.30 0.38 0.48 0.45 0.43 0.46 0.54 0.60 0.66 0.76 0.81 0.80 0.87 1.00 1.17 1.38 1.52 1.61 1.81 1.88 1.92 1.87
0.33 0.29 0.21 0.17 0.19 0.27 0.28 0.35 0.54 0.62 0.54 0.45 0.38 0.51 0.52 0.41 0.33 0.31 0.32 0.27 0.27 0.33 0.42 0.57 0.69 0.73 0.69 0.67 0.68 0.65 0.66 0.63 0.63 0.67 0.73 0.81 0.88 1.02 1.13 1.21 1.37 1.50 1.50 1.48
0.29 0.27 0.15 0.13 0.11 0.18 0.24 0.20 0.22 0.35 0.34 0.38 0.44 0.58 0.56 0.40 0.33 0.32 0.33 0.28 0.32 0.44 0.58 0.75 0.87 0.95 0.90 0.82 0.75 0.71 0.72 0.68 0.60 0.62 0.69 0.76 0.81 0.82 0.85 0.89 0.89 0.97 1.06 1.09
0.23 0.26 0.17 0.11 0.10 0.13 0.16 0.16 0.20 0.38 0.52 0.54 0.50 0.58 0.65 0.53 0.42 0.42 0.45 0.49 0.58 0.74 0.81 0.92 1.00 0.99 0.98 1.02 0.96 0.79 0.73 0.74 0.68 0.74 0.75 0.73 0.71 0.70 0.68 0.72 0.77 0.78 0.87 0.98
0.21 0.27 0.20 0.11 0.12 0.15 0.15 0.19 0.29 0.44 0.52 0.70 0.82 0.90 0.73 0.60 0.58 0.57 0.60 0.78 0.84 0.93 1.00 1.02 1.09 1.02 0.90 0.91 0.88 0.87 0.81 0.76 0.77 0.81 0.81 0.71 0.68 0.68 0.68 0.66 0.68 0.76 0.85 0.95
0.26 0.35 0.28 0.14 0.14 0.17 0.26 0.39 0.51 0.73 0.72 0.70 0.96 1.13 0.81 0.66 0.68 0.71 0.70 0.68 0.68 0.84 0.95 0.99 1.05 0.98 0.83 0.78 0.69 0.72 0.80 0.82 0.87 0.88 0.81 0.72 0.72 0.75 0.80 0.78 0.70 0.71 0.77 0.79
0.34 0.49 0.47 0.30 0.31 0.36 0.41 0.50 0.63 0.77 0.89 0.89 0.99 1.11 0.85 0.64 0.62 0.68 0.76 0.72 0.69 0.72 0.74 0.73 0.74 0.81 0.77 0.73 0.65 0.71 0.77 0.82 0.87 0.88 0.86 0.77 0.67 0.70 0.75 0.76 0.68 0.66 0.70 0.74
0.29 0.46 0.57 0.50 0.45 0.46 0.44 0.40 0.46 0.69 0.94 0.95 1.00 0.98 0.76 0.64 0.60 0.62 0.67 0.72 0.67 0.57 0.53 0.51 0.48 0.53 0.56 0.58 0.63 0.67 0.78 0.90 0.95 0.93 0.86 0.83 0.77 0.79 0.74 0.64 0.62 0.64 0.63 0.61
0.21 0.23 0.25 0.23 0.21 0.26 0.33 0.36 0.44 0.57 0.76 0.98 0.89 0.68 0.57 0.55 0.51 0.51 0.56 0.50 0.44 0.39 0.38 0.36 0.33 0.34 0.35 0.38 0.46 0.53 0.67 0.82 0.95 0.99 0.94 0.87 0.81 0.71 0.64 0.58 0.51 0.52 0.48 0.48
0.27 0.22 0.11 0.09 0.11 0.17 0.28 0.42 0.55 0.61 0.68 0.70 0.61 0.57 0.44 0.38 0.33 0.33 0.38 0.38 0.37 0.32 0.27 0.24 0.24 0.22 0.24 0.30 0.36 0.37 0.49 0.64 0.76 0.81 0.82 0.83 0.79 0.63 0.55 0.49 0.42 0.40 0.41 0.42
0.13 0.16 0.13 0.10 0.10 0.18 0.41 0.53 0.60 0.59 0.55 0.46 0.43 0.39 0.28 0.25 0.18 0.18 0.23 0.26 0.30 0.29 0.24 0.21 0.20 0.21 0.23 0.30 0.32 0.33 0.42 0.53 0.58 0.62 0.66 0.68 0.64 0.51 0.45 0.36 0.32 0.35 0.36 0.39
0.12 0.16 0.22 0.15 0.15 0.36 0.62 0.52 0.45 0.48 0.38 0.24 0.21 0.21 0.20 0.16 0.12 0.10 0.10 0.12 0.14 0.17 0.16 0.21 0.18 0.17 0.19 0.25 0.29 0.38 0.40 0.42 0.43 0.47 0.50 0.49 0.49 0.44 0.37 0.30 0.29 0.31 0.34 0.38
0.18 0.24 0.29 0.25 0.26 0.44 0.57 0.38 0.35 0.40 0.35 0.17 0.12 0.12 0.10 0.08 0.06 0.04 0.04 0.05 0.07 0.06 0.07 0.10 0.10 0.09 0.10 0.11 0.12 0.15 0.17 0.20 0.24 0.32 0.38 0.42 0.42 0.38 0.33 0.28 0.35 0.41 0.41 0.40
0.31 0.33 0.34 0.34 0.40 0.52 0.40 0.16 0.15 0.28 0.42 0.16 0.07 0.06 0.05 0.05 0.05 0.03 0.03 0.05 0.04 0.03 0.03 0.03 0.05 0.04 0.03 0.03 0.03 0.04 0.06 0.10 0.13 0.20 0.26 0.31 0.35 0.37 0.40 0.48 0.56 0.56 0.53 0.47
0.20 0.26 0.32 0.41 0.59 0.60 0.35 0.13 0.16 0.29 0.43 0.22 0.08 0.03 0.02 0.02 0.02 0.01 0.03 0.04 0.03 0.02 0.01 0.01 0.03 0.03 0.01 0.01 0.01 0.01 0.02 0.02 0.03 0.05 0.10 0.20 0.33 0.39 0.47 0.58 0.60 0.59 0.53 0.45
0.19 0.29 0.40 0.52 0.70 0.77 0.39 0.20 0.23 0.21 0.14 0.11 0.05 0.03 0.02 0.01 0.01 0.02 0.02 0.02 0.02 0.01 0.01 0.01 0.01 0.01 0.01 0.02 0.01 0.01 0.01 0.02 0.02 0.04 0.08 0.14 0.21 0.31 0.44 0.53 0.52 0.50 0.49 0.46
0.18 0.34 0.46 0.51 0.57 0.49 0.29 0.19 0.13 0.09 0.09 0.04 0.02 0.01 0.01 0.01 0.01 0.02 0.02 0.02 0.01 0.01 0.01 0.00 0.01 0.01 0.01 0.02 0.03 0.03 0.03 0.03 0.02 0.02 0.03 0.06 0.12 0.23 0.37 0.41 0.40 0.43 0.46 0.45
0.09 0.11 0.19 0.21 0.16 0.15 0.12 0.09 0.05 0.04 0.04 0.01 0.01 0.01 0.01 0.01 0.01 0.01 0.01 0.01 0.01 0.01 0.01 0.00 0.01 0.01 0.01 0.01 0.02 0.04 0.04 0.04 0.02 0.01 0.01 0.02 0.03 0.06 0.11 0.16 0.21 0.27 0.32 0.33
0.09 0.10 0.17 0.21 0.10 0.06 0.05 0.04 0.03 0.02 0.02 0.01 0.00 0.00 0.01 0.01 0.01 0.01 0.00 0.01 0.01 0.01 0.01 0.00 0.00 0.00 0.00 0.00 0.00 0.01 0.03 0.04 0.03 0.02 0.01 0.01 0.03 0.04 0.05 0.07 0.10 0.14 0.16 0.20
0.05 0.12 0.17 0.20 0.13 0.07 0.04 0.03 0.02 0.02 0.01 0.01 0.01 0.00 0.00 0.01 0.01 0.01 0.00 0.00 0.01 0.01 0.01 0.01 0.01 0.00 0.00 0.00 0.00 0.00 0.00 0.01 0.01 0.01 0.01 0.01 0.02 0.03 0.03 0.04 0.05 0.06 0.08 0.10

GEFSCGP_prec_meanprecacc_174.txt.gz
Total_Precipitation_Accumulation
0.35 0.60 0.82 0.73 0.80 0.84 0.70 0.70 0.77 0.72 0.57 0.63 0.65 0.57 0.61 0.59 0.57 0.47 0.41 0.37 0.32 0.29 0.31 0.30 0.29 0.29 0.28 0.30 0.34 0.41 0.59 0.75 0.90 1.00 1.13 1.38 1.55 1.64 1.63 1.63 1.70 1.62 1.44 1.52
0.50 0.57 0.47 0.49 0.53 0.61 0.65 0.69 0.72 0.62 0.48 0.53 0.59 0.55 0.55 0.54 0.49 0.38 0.34 0.33 0.28 0.24 0.22 0.22 0.21 0.22 0.22 0.22 0.26 0.34 0.49 0.73 0.97 1.17 1.34 1.53 1.84 2.00 2.00 2.06 2.01 1.96 1.85 1.87
0.45 0.42 0.35 0.40 0.46 0.54 0.59 0.59 0.62 0.57 0.55 0.53 0.54 0.59 0.57 0.55 0.45 0.34 0.26 0.26 0.22 0.18 0.20 0.21 0.21 0.19 0.17 0.18 0.20 0.27 0.40 0.63 0.92 1.22 1.46 1.65 1.88 2.14 2.24 2.15 2.10 2.13 2.21 2.26
0.41 0.35 0.31 0.36 0.39 0.48 0.66 0.43 0.42 0.44 0.52 0.63 0.55 0.75 0.64 0.56 0.49 0.38 0.29 0.27 0.24 0.20 0.20 0.19 0.19 0.23 0.20 0.20 0.21 0.25 0.39 0.55 0.76 1.01 1.33 1.58 1.84 2.15 2.22 2.20 2.17 2.21 2.33 2.42
0.40 0.36 0.34 0.38 0.35 0.39 0.51 0.34 0.36 0.43 0.42 0.46 0.43 0.64 0.66 0.52 0.52 0.46 0.38 0.33 0.27 0.23 0.22 0.20 0.19 0.22 0.26 0.26 0.26 0.33 0.47 0.61 0.78 0.99 1.31 1.63 1.82 1.99 2.19 2.20 2.12 2.05 2.12 2.14
0.42 0.34 0.33 0.33 0.28 0.29 0.36 0.37 0.38 0.39 0.41 0.47 0.34 0.48 0.62 0.56 0.49 0.46 0.41 0.35 0.26 0.19 0.20 0.24 0.27 0.29 0.31 0.36 0.39 0.47 0.59 0.78 0.91 1.00 1.13 1.29 1.50 1.78 1.92 2.02 2.06 2.07 2.07 1.95
0.40 0.33 0.24 0.20 0.28 0.29 0.32 0.46 0.60 0.59 0.59 0.52 0.28 0.41 0.52 0.45 0.39 0.39 0.38 0.34 0.29 0.27 0.31 0.38 0.48 0.45 0.43 0.48 0.59 0.65 0.72 0.80 0.84 0.82 0.88 1.00 1.17 1.38 1.52 1.61 1.81 1.88 1.92 1.87
0.35 0.31 0.23 0.18 0.21 0.29 0.30 0.37 0.57 0.65 0.58 0.47 0.40 0.53 0.55 0.44 0.38 0.37 0.37 0.31 0.29 0.34 0.42 0.57 0.69 0.73 0.70 0.69 0.71 0.69 0.70 0.66 0.66 0.69 0.75 0.81 0.88 1.02 1.13 1.21 1.37 1.50 1.50 1.48
0.33 0.29 0.16 0.15 0.13 0.20 0.26 0.22 0.24 0.39 0.38 0.44 0.48 0.60 0.59 0.42 0.36 0.38 0.38 0.32 0.33 0.46 0.58 0.75 0.88 0.95 0.91 0.83 0.77 0.74 0.75 0.71 0.63 0.63 0.70 0.76 0.81 0.82 0.85 0.90 0.89 0.97 1.06 1.09
0.26 0.29 0.19 0.12 0.12 0.14 0.18 0.18 0.24 0.43 0.57 0.60 0.54 0.61 0.69 0.57 0.46 0.46 0.50 0.52 0.60 0.75 0.81 0.92 1.00 1.00 0.98 1.03 0.98 0.81 0.76 0.78 0.70 0.76 0.76 0.73 0.72 0.70 0.68 0.72 0.77 0.78 0.87 0.98
0.23 0.29 0.22 0.13 0.14 0.16 0.17 0.21 0.32 0.48 0.56 0.74 0.86 0.94 0.75 0.62 0.61 0.60 0.65 0.82 0.86 0.95 1.01 1.03 1.10 1.03 0.91 0.91 0.90 0.88 0.82 0.78 0.79 0.82 0.82 0.71 0.69 0.68 0.68 0.66 0.68 0.76 0.85 0.95
0.27 0.36 0.30 0.15 0.15 0.19 0.29 0.40 0.53 0.77 0.76 0.73 1.01 1.17 0.83 0.69 0.71 0.73 0.72 0.70 0.70 0.86 0.96 0.99 1.05 0.98 0.83 0.78 0.69 0.72 0.81 0.82 0.88 0.89 0.81 0.72 0.72 0.75 0.80 0.78 0.70 0.71 0.77 0.79
0.35 0.51 0.49 0.32 0.34 0.38 0.43 0.51 0.64 0.79 0.92 0.92 1.02 1.13 0.87 0.66 0.64 0.70 0.78 0.74 0.71 0.74 0.75 0.74 0.74 0.81 0.77 0.74 0.66 0.71 0.77 0.83 0.87 0.89 0.87 0.78 0.67 0.70 0.75 0.76 0.68 0.66 0.70 0.74
0.30 0.47 0.58 0.52 0.48 0.50 0.47 0.42 0.47 0.70 0.97 0.98 1.02 0.99 0.77 0.65 0.63 0.65 0.70 0.74 0.69 0.58 0.54 0.52 0.48 0.53 0.56 0.58 0.63 0.68 0.78 0.90 0.95 0.93 0.86 0.83 0.77 0.79 0.74 0.64 0.62 0.64 0.63 0.61
0.22 0.24 0.25 0.24 0.22 0.27 0.34 0.37 0.45 0.58 0.77 0.99 0.89 0.68 0.57 0.56 0.52 0.54 0.60 0.52 0.45 0.41 0.39 0.37 0.33 0.34 0.36 0.38 0.47 0.53 0.67 0.82 0.95 0.99 0.94 0.87 0.81 0.71 0.64 0.58 0.51 0.52 0.48 0.48
0.28 0.22 0.11 0.10 0.12 0.17 0.29 0.42 0.55 0.61 0.68 0.70 0.62 0.58 0.44 0.39 0.35 0.36 0.41 0.40 0.38 0.33 0.28 0.25 0.24 0.22 0.25 0.30 0.37 0.37 0.49 0.64 0.76 0.81 0.82 0.83 0.79 0.63 0.55 0.49 0.42 0.40 0.41 0.43
0.13 0.17 0.14 0.10 0.10 0.19 0.41 0.54 0.60 0.59 0.55 0.47 0.43 0.39 0.28 0.25 0.19 0.19 0.24 0.28 0.31 0.29 0.24 0.21 0.20 0.21 0.24 0.30 0.32 0.33 0.42 0.54 0.58 0.62 0.66 0.68 0.64 0.51 0.45 0.36 0.32 0.35 0.36 0.39
0.12 0.16 0.23 0.16 0.15 0.37 0.62 0.52 0.46 0.49 0.39 0.24 0.21 0.22 0.20 0.16 0.12 0.10 0.11 0.13 0.14 0.17 0.17 0.21 0.19 0.17 0.20 0.25 0.30 0.38 0.41 0.42 0.43 0.47 0.50 0.50 0.49 0.44 0.37 0.30 0.29 0.31 0.34 0.38
0.19 0.25 0.30 0.27 0.28 0.45 0.57 0.38 0.35 0.40 0.36 0.18 0.13 0.12 0.10 0.08 0.07 0.05 0.05 0.06 0.07 0.06 0.07 0.10 0.10 0.10 0.11 0.11 0.12 0.15 0.17 0.20 0.24 0.32 0.38 0.42 0.42 0.38 0.33 0.28 0.35 0.41 0.41 0.40
0.32 0.34 0.35 0.35 0.41 0.54 0.40 0.16 0.16 0.28 0.42 0.16 0.08 0.06 0.05 0.05 0.06 0.04 0.04 0.06 0.05 0.03 0.03 0.04 0.06 0.05 0.05 0.04 0.04 0.04 0.06 0.10 0.13 0.20 0.26 0.32 0.35 0.37 0.40 0.48 0.56 0.56 0.53 0.47
0.20 0.26 0.33 0.42 0.61 0.61 0.36 0.14 0.16 0.30 0.43 0.22 0.08 0.04 0.03 0.03 0.02 0.02 0.04 0.05 0.03 0.02 0.01 0.02 0.04 0.04 0.04 0.03 0.02 0.01 0.02 0.02 0.03 0.05 0.10 0.20 0.33 0.39 0.47 0.58 0.60 0.59 0.53 0.45
0.19 0.30 0.41 0.53 0.70 0.78 0.39 0.20 0.23 0.22 0.14 0.11 0.05 0.03 0.02 0.02 0.02 0.02 0.03 0.03 0.02 0.02 0.02 0.02 0.03 0.03 0.04 0.04 0.03 0.02 0.02 0.02 0.02 0.04 0.08 0.14 0.22 0.31 0.45 0.53 0.52 0.50 0.49 0.46
0.19 0.35 0.48 0.53 0.58 0.49 0.29 0.19 0.14 0.10 0.09 0.04 0.02 0.01 0.01 0.01 0.02 0.03 0.04 0.03 0.02 0.02 0.03 0.03 0.04 0.04 0.04 0.03 0.05 0.04 0.04 0.04 0.03 0.02 0.04 0.07 0.12 0.23 0.38 0.41 0.41 0.43 0.46 0.45
0.09 0.12 0.19 0.21 0.16 0.15 0.12 0.09 0.05 0.04 0.04 0.01 0.01 0.01 0.01 0.01 0.02 0.02 0.02 0.03 0.03 0.03 0.02 0.02 0.02 0.03 0.03 0.02 0.03 0.05 0.05 0.05 0.04 0.02 0.02 0.02 0.04 0.06 0.12 0.16 0.21 0.27 0.32 0.33
0.09 0.11 0.17 0.21 0.11 0.06 0.05 0.04 0.03 0.02 0.02 0.01 0.00 0.01 0.01 0.01 0.02 0.02 0.01 0.01 0.02 0.03 0.03 0.02 0.01 0.01 0.01 0.01 0.01 0.02 0.03 0.04 0.05 0.04 0.02 0.02 0.04 0.05 0.05 0.07 0.11 0.14 0.16 0.20
0.06 0.12 0.17 0.20 0.13 0.07 0.04 0.03 0.02 0.02 0.01 0.01 0.01 0.00 0.00 0.01 0.01 0.02 0.01 0.01 0.01 0.02 0.03 0.02 0.02 0.01 0.01 0.01 0.01 0.01 0.01 0.01 0.03 0.05 0.04 0.02 0.02 0.03 0.03 0.05 0.06 0.07 0.08 0.10

GEFSCGP_prec_meanprecacc_180.txt.gz
Total_Precipitation_Accumulation
0.37 0.62 0.86 0.77 0.82 0.85 0.71 0.71 0.78 0.77 0.64 0.71 0.76 0.69 0.72 0.69 0.64 0.53 0.47 0.40 0.35 0.31 0.33 0.31 0.30 0.31 0.31 0.32 0.35 0.41 0.59 0.76 0.91 1.01 1.14 1.38 1.55 1.64 1.63 1.63 1.70 1.62 1.44 1.52
0.51 0.59 0.50 0.51 0.55 0.63 0.66 0.70 0.74 0.67 0.55 0.61 0.66 0.65 0.67 0.62 0.55 0.43 0.39 0.36 0.30 0.26 0.24 0.24 0.22 0.23 0.23 0.23 0.26 0.34 0.50 0.74 0.97 1.18 1.34 1.53 1.84 2.00 2.00 2.06 2.01 1.96 1.85 1.87
0.46 0.44 0.37 0.42 0.49 0.56 0.60 0.60 0.63 0.59 0.61 0.61 0.61 0.66 0.70 0.67 0.52 0.39 0.31 0.29 0.24 0.20 0.21 0.22 0.22 0.20 0.18 0.18 0.21 0.27 0.41 0.64 0.93 1.22 1.47 1.65 1.88 2.14 2.24 2.15 2.10 2.13 2.21 2.26
0.42 0.37 0.33 0.37 0.41 0.50 0.68 0.45 0.43 0.46 0.55 0.70 0.61 0.80 0.73 0.68 0.57 0.43 0.34 0.30 0.26 0.22 0.21 0.20 0.20 0.23 0.20 0.21 0.22 0.26 0.41 0.57 0.77 1.02 1.34 1.59 1.84 2.15 2.22 2.20 2.18 2.21 2.33 2.42
0.41 0.37 0.35 0.40 0.37 0.40 0.53 0.35 0.37 0.45 0.44 0.49 0.46 0.67 0.72 0.60 0.61 0.52 0.43 0.37 0.30 0.25 0.24 0.21 0.19 0.22 0.27 0.26 0.27 0.34 0.48 0.62 0.79 1.01 1.32 1.64 1.83 1.99 2.19 2.20 2.12 2.05 2.12 2.14
0.42 0.35 0.34 0.35 0.29 0.30 0.38 0.38 0.39 0.41 0.43 0.50 0.36 0.50 0.67 0.62 0.55 0.53 0.46 0.39 0.28 0.21 0.22 0.25 0.28 0.29 0.31 0.36 0.40 0.48 0.60 0.80 0.93 1.01 1.13 1.30 1.51 1.79 1.92 2.02 2.06 2.07 2.07 1.95
0.40 0.34 0.25 0.22 0.31 0.32 0.34 0.48 0.62 0.62 0.62 0.55 0.29 0.42 0.54 0.47 0.41 0.44 0.42 0.38 0.32 0.29 0.31 0.39 0.49 0.45 0.44 0.48 0.59 0.66 0.73 0.82 0.86 0.84 0.89 1.01 1.17 1.39 1.52 1.62 1.81 1.88 1.92 1.87
0.36 0.32 0.23 0.19 0.23 0.31 0.32 0.39 0.59 0.67 0.60 0.49 0.41 0.54 0.56 0.46 0.40 0.40 0.40 0.34 0.31 0.35 0.43 0.57 0.69 0.73 0.70 0.69 0.72 0.70 0.73 0.69 0.69 0.72 0.77 0.83 0.89 1.02 1.14 1.21 1.37 1.50 1.50 1.48
0.33 0.30 0.17 0.16 0.14 0.21 0.27 0.23 0.25 0.40 0.40 0.45 0.49 0.61 0.60 0.43 0.37 0.39 0.41 0.35 0.35 0.47 0.59 0.75 0.88 0.95 0.91 0.83 0.78 0.75 0.77 0.74 0.66 0.66 0.73 0.79 0.82 0.83 0.86 0.90 0.89 0.98 1.06 1.09
0.27 0.29 0.20 0.13 0.13 0.15 0.19 0.19 0.25 0.44 0.60 0.62 0.55 0.62 0.70 0.58 0.46 0.47 0.51 0.54 0.61 0.77 0.83 0.93 1.01 1.00 0.98 1.03 0.99 0.83 0.78 0.80 0.73 0.79 0.80 0.76 0.74 0.71 0.69 0.72 0.77 0.79 0.87 0.98
0.24 0.29 0.22 0.14 0.14 0.16 0.17 0.21 0.33 0.49 0.57 0.74 0.86 0.94 0.76 0.62 0.62 0.61 0.66 0.83 0.88 0.96 1.02 1.04 1.11 1.04 0.91 0.92 0.90 0.89 0.85 0.81 0.82 0.85 0.85 0.74 0.71 0.70 0.69 0.66 0.68 0.77 0.85 0.95
0.28 0.36 0.30 0.16 0.15 0.19 0.29 0.41 0.54 0.78 0.77 0.73 1.01 1.17 0.83 0.69 0.71 0.73 0.72 0.71 0.71 0.87 0.98 1.00 1.06 0.98 0.83 0.79 0.70 0.74 0.82 0.84 0.92 0.92 0.84 0.75 0.73 0.75 0.81 0.78 0.70 0.71 0.77 0.79
0.36 0.52 0.49 0.32 0.34 0.38 0.43 0.52 0.65 0.80 0.93 0.92 1.02 1.13 0.87 0.66 0.64 0.71 0.78 0.74 0.71 0.74 0.76 0.74 0.75 0.81 0.78 0.74 0.66 0.72 0.78 0.84 0.89 0.92 0.90 0.79 0.68 0.70 0.75 0.76 0.68 0.66 0.70 0.74
0.31 0.48 0.58 0.52 0.48 0.50 0.47 0.42 0.48 0.71 0.98 0.99 1.02 0.99 0.77 0.66 0.63 0.65 0.70 0.74 0.69 0.59 0.55 0.53 0.48 0.53 0.56 0.59 0.64 0.69 0.79 0.91 0.96 0.95 0.89 0.85 0.78 0.79 0.74 0.64 0.62 0.64 0.63 0.61
0.24 0.25 0.26 0.24 0.22 0.27 0.35 0.37 0.45 0.59 0.77 0.99 0.89 0.69 0.57 0.56 0.52 0.54 0.60 0.52 0.46 0.42 0.40 0.38 0.34 0.34 0.36 0.39 0.48 0.55 0.67 0.82 0.95 1.01 0.96 0.88 0.82 0.72 0.64 0.58 0.51 0.52 0.49 0.48
0.29 0.23 0.12 0.10 0.13 0.18 0.29 0.42 0.55 0.61 0.68 0.71 0.62 0.58 0.44 0.39 0.35 0.36 0.41 0.40 0.38 0.33 0.29 0.26 0.25 0.23 0.25 0.31 0.38 0.38 0.49 0.64 0.76 0.81 0.83 0.85 0.81 0.64 0.56 0.49 0.42 0.40 0.42 0.43
0.13 0.17 0.14 0.10 0.10 0.19 0.41 0.54 0.60 0.59 0.55 0.47 0.43 0.39 0.28 0.25 0.19 0.19 0.25 0.29 0.31 0.29 0.24 0.22 0.21 0.22 0.24 0.31 0.34 0.34 0.42 0.54 0.58 0.62 0.66 0.69 0.66 0.52 0.46 0.36 0.32 0.35 0.36 0.39
0.12 0.17 0.23 0.16 0.15 0.37 0.62 0.52 0.46 0.49 0.39 0.24 0.22 0.22 0.20 0.16 0.13 0.10 0.11 0.13 0.15 0.17 0.17 0.22 0.19 0.18 0.20 0.25 0.31 0.40 0.41 0.42 0.44 0.47 0.50 0.50 0.50 0.45 0.38 0.30 0.29 0.31 0.34 0.39
0.19 0.25 0.31 0.27 0.28 0.45 0.57 0.38 0.35 0.41 0.36 0.18 0.13 0.12 0.10 0.08 0.07 0.05 0.05 0.07 0.08 0.07 0.08 0.11 0.11 0.11 0.12 0.12 0.14 0.16 0.18 0.21 0.24 0.33 0.39 0.42 0.42 0.39 0.33 0.29 0.35 0.41 0.41 0.41
0.32 0.34 0.36 0.35 0.42 0.54 0.40 0.16 0.16 0.28 0.42 0.16 0.08 0.06 0.05 0.05 0.06 0.04 0.05 0.06 0.05 0.03 0.03 0.05 0.07 0.06 0.06 0.06 0.06 0.05 0.06 0.10 0.14 0.20 0.26 0.32 0.35 0.38 0.40 0.48 0.56 0.57 0.53 0.48
0.20 0.27 0.33 0.42 0.61 0.61 0.36 0.14 0.16 0.30 0.43 0.22 0.08 0.04 0.03 0.03 0.03 0.02 0.04 0.05 0.04 0.02 0.02 0.03 0.05 0.05 0.05 0.05 0.03 0.02 0.02 0.03 0.03 0.05 0.10 0.20 0.33 0.39 0.48 0.58 0.60 0.59 0.54 0.45
0.20 0.30 0.41 0.54 0.70 0.78 0.39 0.20 0.24 0.22 0.14 0.11 0.05 0.03 0.02 0.02 0.02 0.03 0.03 0.03 0.02 0.03 0.02 0.03 0.04 0.04 0.06 0.06 0.04 0.03 0.02 0.02 0.02 0.04 0.08 0.14 0.22 0.32 0.45 0.54 0.52 0.51 0.50 0.47
0.19 0.35 0.48 0.53 0.58 0.49 0.29 0.19 0.14 0.10 0.09 0.04 0.02 0.01 0.01 0.02 0.03 0.03 0.04 0.03 0.02 0.02 0.03 0.04 0.05 0.05 0.06 0.05 0.06 0.05 0.04 0.04 0.03 0.03 0.04 0.07 0.13 0.24 0.38 0.41 0.41 0.44 0.46 0.45
0.09 0.12 0.19 0.22 0.16 0.15 0.12 0.09 0.05 0.04 0.04 0.01 0.01 0.01 0.01 0.02 0.02 0.02 0.02 0.03 0.03 0.03 0.03 0.03 0.03 0.04 0.04 0.03 0.04 0.05 0.05 0.05 0.04 0.03 0.02 0.02 0.04 0.07 0.12 0.17 0.21 0.27 0.32 0.33
0.09 0.11 0.17 0.21 0.11 0.06 0.05 0.04 0.03 0.02 0.02 0.01 0.00 0.01 0.01 0.02 0.02 0.02 0.01 0.02 0.03 0.03 0.03 0.02 0.02 0.03 0.03 0.02 0.02 0.03 0.04 0.05 0.05 0.04 0.03 0.03 0.04 0.06 0.06 0.08 0.11 0.14 0.17 0.20
0.06 0.12 0.17 0.20 0.13 0.07 0.04 0.03 0.02 0.02 0.01 0.01 0.01 0.00 0.00 0.01 0.01 0.02 0.01 0.01 0.01 0.02 0.03 0.03 0.03 0.03 0.04 0.03 0.02 0.02 0.02 0.03 0.04 0.06 0.04 0.02 0.02 0.03 0.04 0.05 0.06 0.07 0.08 0.11